     2.10           OBSERVATION DATA    G (GPS)             RINEX VERSION / TYPE
teqc 2002Mar14 SOPAC 20050725 22:56:02UTC                   PGM / RUN BY / DATE
Linux 2.0.36|Pentium II|gcc -static|Linux|486/DX+           COMMENT
BIT 2 OF LLI FLAGS DATA COLLECTED UNDER A/S CONDITION       COMMENT
W 141                                                       MARKER NAME
W141                                                        MARKER NUMBER
Tony Carruthers                                             OBSERVER / AGENCY
0220188099 TRIMBLE 4700 1.30                                REC # / TYPE / VERS
0220187156 TRM33429.00+GP NONE                              ANT # / TYPE
 -2454257.0000 -4230710.0000  4081961.0000                  APPROX POSITION XYZ
        2.0000        0.0000        0.0000                  ANTENNA: DELTA H/E/N
     1     1                                                WAVELENGTH FACT L1/2
     6    L1    L2    C1    P2    P1    D1                  # / TYPES OF OBSERV
    15.0000                                                 INTERVAL
Northern California Height Modernization 2004               COMMENT
                                                            COMMENT
SOPAC - Scripps Orbit and Permanent Array Center            COMMENT
IGPP - Institute of Geophysics and Planetary Physics        COMMENT
SIO - Scripps Institution of Oceanography                   COMMENT
UCSD - University of California, San Diego                  COMMENT
                                                            COMMENT
email: archive@gpsmail.ucsd.edu                             COMMENT
ftp://garner.ucsd.edu                                       COMMENT
http://sopac.ucsd.edu                                       COMMENT
                                                            COMMENT
                                                            COMMENT
Approximate Lat, Lon : 40.037, -120.118                     COMMENT
                                                            COMMENT
SNR is mapped to RINEX snr flag value [1-9]                 COMMENT
L1: 3 -> 1; 8 -> 5; 40 -> 9                                 COMMENT
L2: 1 -> 1; 5 -> 5; 60 -> 9                                 COMMENT
  2004     9    16    15     1    0.0000000     GPS         TIME OF FIRST OBS
                                                            END OF HEADER
 04  9 16 15  1  0.0000000  0  6G 1G11G14G20G22G25
    -79002.05659    -54605.57457  21556667.2664   21556662.6334
      1431.4694
    -36413.21159    -27399.82458  21548911.4924   21548905.6764
       647.9534
    150136.41659     92741.01757  21378136.9534   21378131.2664
     -2750.9694
    -87151.33659    -56333.79256  23996521.2034   23996516.0554
      2418.3594
    165630.53159    100110.35657  23153865.5474   23153858.9884
     -3009.8914
    -83571.46559    -56921.53958  21250396.3284   21250391.8634
      1494.2194
 04  9 16 15  1 15.0000000  0  6G 1G11G14G20G22G25
   -100412.63449    -71289.13447  21552593.0864   21552588.1564
      1423.0634
    -46045.40249    -34905.43248  21547078.5084   21547072.9534
       636.2034
    191450.35949    124933.68347  21385998.8524   21385993.3484
     -2757.7814
   -123403.36749    -84582.06746  23989622.1884   23989617.1804
      2414.8754
    210821.50449    135324.07347  23162464.6334   23162458.2504
     -3015.7504
   -105906.13449    -74325.16548  21246146.1334   21246141.4614
      1483.4844
 04  9 16 15  1 30.0000000  0  6G 1G11G14G20G22G25
   -121693.06349    -87871.29347  21548542.9534   21548539.1564
      1413.7344
    -55496.94249    -42270.28247  21545280.2194   21545273.5204
       623.4384
    232870.34749    157208.97147  21393880.7424   21393875.3324
     -2765.5164
   -159599.55549   -112786.95446  23982733.7274   23982729.8094
      2410.6884
    256105.30549    170610.08847  23171081.4844   23171075.7344
     -3022.5944
   -128076.65249    -91600.90948  21241927.1644   21241921.9964
      1471.9224
 04  9 16 15  1 45.0000000  0  6G 1G11G14G20G22G25
   -142827.67949   -104339.81947  21544521.6724   21544517.0044
      1403.9694
    -64751.92249    -49481.97447  21543518.3984   21543512.4574
       610.2664
    274411.80849    189578.93847  21401785.6724   21401780.2934
     -2773.6724
   -195724.06749   -140935.88446  23975859.7894   23975855.5664
      2405.6564
    301497.66849    205980.74147  23179719.7664   23179713.0554
     -3029.8914
   -150067.09049   -108736.30948  21237742.5084   21237737.8524
      1459.8444
 04  9 16 15  2  0.0000000  0  6G 1G11G14G20G22G25
   -163804.85449   -120685.68047  21540529.6804   21540525.5354
      1393.2814
    -73798.67449    -56531.39847  21541797.2034   21541791.4964
       596.1884
    316086.16349    222052.43947  21409716.0234   21409710.4804
     -2782.7504
   -231765.21749   -169019.89746  23969001.3594   23968996.3164
      2399.9534
    347010.05649    241444.89947  23188380.5864   23188374.5124
     -3038.2194
   -171865.58049   -125722.15148  21233594.5944   21233589.6844
      1446.8284
 04  9 16 15  2 15.0000000  0  6G 1G11G14G20G22G25
   -184616.41149   -136902.48247  21536569.1334   21536565.1294
      1381.7974
    -82628.84149    -63412.05847  21540116.8834   21540111.3204
       581.3134
    357901.21649    254635.58447  21417673.1724   21417667.6174
     -2792.4374
   -267714.93249   -197032.62646  23962160.5164   23962155.5274
      2393.5474
    392650.51349    277008.86347  23197065.6174   23197060.1174
     -3047.1094
   -193463.71849   -142551.86648  21229484.5634   21229479.5234
      1433.0944
 04  9 16 15  2 30.0000000  0  6G 1G11G14G20G22G25
   -205246.58149   -152977.93047  21532643.7894   21532639.2074
      1368.8594
    -91226.63749    -70111.65047  21538481.2274   21538474.9614
       564.9534
    399872.55749    287340.50248  21425660.2814   21425654.8754
     -2803.7194
   -303557.20949   -224961.69346  23955340.7664   23955335.3594
      2385.4384
    438434.81849    312684.90947  23205778.3444   23205772.5634
     -3057.5004
   -214845.59649   -159213.07048  21225415.8914   21225411.0234
      1417.8444
 04  9 16 15  2 45.0000000  0  6G 1G11G14G20G22G25
   -225696.92649   -168913.26447  21528751.9144   21528747.8594
      1357.3284
    -99593.16449    -76631.03147  21536888.9614   21536882.6134
       550.0784
    441998.42449    320165.83947  21433676.6484   21433671.2704
     -2813.5784
   -339293.54549   -252808.15946  23948539.9614   23948534.8404
      2378.8134
    484361.38549    348471.81647  23214517.6484   23214511.5594
     -3066.5314
   -236012.50349   -175706.76148  21221387.7114   21221383.3054
      1404.0164
 04  9 16 15  3  0.0000000  0  6G 1G11G14G20G22G25
   -245974.20449   -184713.74247  21524893.5704   21524888.5984
      1345.9844
   -107735.34149    -82975.59147  21535339.4774   21535333.3554
       535.2504
    484271.77849    353106.09847  21441720.7814   21441715.3874
     -2823.1564
   -374930.65249   -280577.37146  23941757.6334   23941753.6484
      2372.5164
    530423.51849    384364.35847  23223282.8204   23223276.9494
     -3075.4224
   -256971.07049   -192038.10448  21217399.0704   21217394.5904
      1390.2344
 04  9 16 15  3 15.0000000  0  6G 1G11G14G20G22G25
   -266086.46649   -200385.64247  21521066.2734   21521062.0044
      1335.2664
   -115661.04349    -89151.48847  21533830.9224   21533824.9844
       521.1254
    526684.36849    386154.84247  21449791.8444   21449785.7734
     -2832.1874
   -410476.50849   -308275.46746  23934994.7894   23934989.0394
      2366.5474
    576613.06749    420356.17247  23232072.4614   23232066.3404
     -3083.6254
   -277729.22449   -208213.29948  21213449.2584   21213444.5434
      1377.1724
 04  9 16 15  3 30.0000000  0  6G 1G11G14G20G22G25
   -286034.62149   -215929.65547  21517269.9534   21517265.7234
      1324.3284
   -123371.02649    -95159.26748  21532363.8984   21532358.0314
       506.6724
    569234.97549    419311.15247  21457888.9774   21457883.3714
     -2841.4374
   -445931.93149   -335903.00446  23928247.1804   23928242.0314
      2360.5004
    622929.03349    456446.50747  23240886.5084   23240880.3404
     -3092.0944
   -298287.60849   -224232.80548  21209537.1024   21209532.2234
      1363.7974
 04  9 16 15  3 45.0000000  0  6G 1G11G14G20G22G25
   -305819.86449   -231346.72747  21513504.9924   21513500.8054
      1313.5784
   -130866.23349   -100999.70748  21530937.9144   21530931.6454
       492.5784
    611922.27549    452573.96547  21466012.2504   21466006.8094
     -2850.3444
   -481297.97449   -363460.99946  23921517.3754   23921512.4104
      2354.7504
    669370.21649    492634.38147  23249724.0084   23249718.0744
     -3100.2504
   -318647.16249   -240097.39348  21205662.9774   21205658.0944
      1350.7194
 04  9 16 15  4  0.0000000  0  6G 1G11G14G20G22G25
   -325450.10549   -246643.01347  21509769.4144   21509765.2194
      1303.5164
   -138154.64449   -106678.99747  21529550.8754   21529544.7704
       479.0004
    654737.99049    485936.83847  21474159.7034   21474153.7344
     -2858.6254
   -516582.44849   -390955.39546  23914803.1724   23914797.5944
      2349.5314
    715928.65849    528913.66647  23258583.8364   23258577.8244
     -3107.7664
   -338815.58749   -255813.05048  21201825.1094   21201820.1214
      1338.2034
 04  9 16 15  4 15.0000000  0  6G 1G11G14G20G22G25
   -344928.16649   -261820.71247  21506062.8444   21506059.0044
      1293.6414
   -145239.04249   -112199.30547  21528202.8834   21528196.9184
       465.5634
    697679.06249    519397.40647  21482331.1174   21482325.3054
     -2866.7664
   -551788.23149   -418388.43646  23908103.5864   23908098.5904
      2344.4844
    762601.50049    565282.08047  23267465.2814   23267459.3324
     -3115.2504
   -358795.54049   -271381.83148  21198022.8754   21198018.0514
      1325.7974
 04  9 16 15  4 30.0000000  0  6G 1G11G14G20G22G25
   -364256.46749   -276881.73147  21502384.7974   21502380.9574
      1283.7034
   -152121.38049   -117562.17748  21526892.9384   21526886.4264
       452.2344
    740742.93449    552953.65047  21490526.1254   21490520.1294
     -2874.8284
   -586917.58349   -445761.95446  23901418.6414   23901413.4964
      2339.5314
    809386.18349    601737.63547  23276367.9924   23276362.2114
     -3122.5474
   -378589.38049   -286805.60448  21194256.1094   21194251.6524
      1313.4844
 04  9 16 15  4 45.0000000  0  6G 1G11G14G20G22G25
   -383439.31849   -291829.40047  21498734.6414   21498730.2734
      1273.8914
   -158806.11949   -122771.07548  21525620.9534   21525615.1684
       438.9224
    783925.06149    586602.04847  21498742.8984   21498737.1564
     -2882.8754
   -621974.84149   -473079.32946  23894747.2114   23894742.1724
      2334.7814
    856278.34349    638276.96647  23285291.6024   23285285.6844
     -3129.8754
   -398201.24749   -302087.57848  21190524.1804   21190519.5824
      1301.2664
 04  9 16 15  5  0.0000000  0  6G 1G11G14G20G22G25
   -402475.73949   -306662.95947  21495112.2814   21495107.9774
      1264.4064
   -165291.98149   -127824.99547  21524386.8754   21524380.9844
       425.9224
    827226.19749    620343.18347  21506983.0474   21506977.5124
     -2890.4224
   -656958.69649   -500339.46346  23888090.3524   23888084.5784
      2330.0314
    903279.05749    674900.85447  23294235.3914   23294229.3594
     -3136.7974
   -417629.80649   -317226.70248  21186826.8984   21186822.4344
      1289.3594
 04  9 16 15  5 15.0000000  0  6G 1G11G14G20G22G25
   -421372.11249   -321387.40047  21491516.2194   21491511.9734
      1255.4224
   -171585.33249   -132728.91947  21523188.9924   21523183.1524
       413.5004
    870639.70949    654171.88747  21515244.4384   21515238.7544
     -2897.6564
   -691875.55049   -527547.38746  23881445.9224   23881440.6334
      2325.9064
    950381.71449    711604.17147  23303198.0704   23303192.2504
     -3143.2194
   -436881.31349   -332227.87048  21183163.5004   21183158.4804
      1277.8444
 04  9 16 15  5 30.0000000  0  6G 1G11G14G20G22G25
   -440127.83849   -336002.25647  21487947.3204   21487942.2774
      1245.8914
   -177685.34649   -137482.19747  21522028.2194   21522022.0904
       400.3914
    914166.06849    688088.51147  21523527.1414   21523522.0634
     -2905.3594
   -726724.66549   -554702.52346  23874813.9064   23874808.5704
      2321.1094
    997586.95949    748387.44747  23312181.1174   23312175.1954
     -3150.2194
   -455954.79949   -347090.33548  21179533.5474   21179529.1054
      1265.7814
 04  9 16 15  5 45.0000000  0  6G 1G11G14G20G22G25
   -458750.02149   -350513.03447  21484403.4454   21484399.1804
      1237.0474
   -183598.98049   -142090.22747  21520903.0474   21520896.9924
       387.9534
    957797.79449    722087.24147  21531829.8134   21531824.7544
     -2912.3594
   -761513.11849   -581810.43447  23868194.2274   23868189.0634
      2317.2034
   1044887.74349    785245.15447  23321182.3674   23321176.9654
     -3156.6564
   -474857.26049   -361819.52748  21175936.6724   21175931.9924
      1254.3914
 04  9 16 15  6  0.0000000  0  6G 1G11G14G20G22G25
   -477245.22049   -364924.86947  21480883.6564   21480879.5474
      1228.8134
   -189332.63449   -146558.01647  21519811.8444   21519805.8914
       376.2974
   1001528.09449    756162.78147  21540151.7894   21540146.0904
     -2918.5944
   -796247.27649   -608875.98447  23861584.3284   23861579.1764
      2313.9384
   1092277.41949    822172.14847  23330200.5864   23330194.6914
     -3162.2034
   -493595.15449   -376420.47048  21172371.0634   21172366.1484
      1243.7814
 04  9 16 15  6 15.0000000  0  6G 1G11G14G20G22G25
   -495610.00449   -379235.08547  21477389.2424   21477384.8954
      1220.1254
   -194882.91349   -150882.92147  21518755.4384   21518749.4534
       364.0634
   1045360.24549    790317.69847  21548492.5314   21548487.0394
     -2925.3754
   -830923.72949   -635896.56147  23854985.8364   23854980.4454
      2310.0474
   1139759.37749    859171.04947  23339235.9924   23339230.3484
     -3168.4374
   -512164.76649   -390890.29848  21168837.6484   21168832.3634
      1232.4844
 04  9 16 15  6 30.0000000  0  6G 1G11G14G20G22G25
   -513849.14649   -393447.39348  21473918.5944   21473913.8984
      1211.5784
   -200254.41949   -155068.51747  21517733.6954   21517727.8554
       352.0164
   1089289.28349    824548.10247  21556852.0784   21556846.2194
     -2931.9844
   -865547.15749   -662875.85746  23848397.1334   23848391.4774
      2306.2664
   1187328.82449    896238.13747  23348288.4144   23348282.1804
     -3174.3124
   -530570.70749   -405232.57948  21165334.8524   21165329.9224
      1221.4384
 04  9 16 15  6 45.0000000  0  6G 1G11G14G20G22G25
   -531962.58049   -407561.75347  21470471.5944   21470467.4964
      1203.4064
   -205446.89749   -159114.61248  21516745.1024   21516739.5004
       340.2504
   1133314.93949    858853.80347  21565229.9144   21565224.4224
     -2938.2664
   -900117.41349   -689813.71946  23841818.6884   23841812.9024
      2303.0004
   1234985.81449    933373.41347  23357356.8914   23357350.9144
     -3180.0474
   -548812.70549   -419447.12648  21161863.5004   21161858.7704
      1210.7034
 04  9 16 15  7  0.0000000  0  6G 1G11G14G20G22G25
   -549957.30249   -421583.60948  21467047.3444   21467043.1254
      1196.0634
   -210467.27049   -163026.59047  21515790.1024   21515784.0904
       329.3284
   1177430.08749    893229.21847  21573624.7424   21573618.7774
     -2943.6724
   -934641.23349   -716715.39347  23835249.0084   23835243.0744
      2300.2974
   1282723.25849    970571.39947  23366441.9144   23366435.5634
     -3184.8444
   -566897.59749   -433539.24548  21158422.2504   21158417.3834
      1200.7194
 04  9 16 15  7 15.0000000  0  6G 1G11G14G20G22G25
   -567789.48149   -435478.80348  21463653.9224   21463649.6844
      1181.9064
   -215271.65149   -166770.28347  21514875.8134   21514869.4654
       311.6724
   1221678.24449    927708.29247  21582045.0784   21582039.4494
     -2955.6724
   -969074.86649   -743546.80447  23828696.1174   23828690.5744
      2291.1884
   1330584.83549   1007866.10747  23375549.5784   23375542.8484
     -3196.2974
   -584781.34149   -447474.62848  21155019.0474   21155014.2384
      1184.1724
 04  9 16 15  7 30.0000000  0  6G 1G11G14G20G22G25
   -585458.68449   -449247.01548  21460291.5944   21460287.4344
      1173.9844
   -219859.34949   -170345.11147  21514002.7894   21513996.8404
       300.0634
   1266059.67649    962291.21447  21590490.6094   21590484.8714
     -2961.7344
  -1003417.57249   -770307.35746  23822161.2974   23822155.6414
      2287.9224
   1378571.07949   1045257.94847  23384680.7734   23384674.9804
     -3201.7974
   -602463.35749   -461252.81148  21151654.2974   21151649.3554
      1173.4844
 04  9 16 15  7 45.0000000  0  6G 1G11G14G20G22G25
   -603009.17849   -462922.72447  21456951.8284   21456947.2034
      1166.1884
   -224274.63649   -173785.60847  21513162.5084   21513156.7304
       288.7814
   1310529.85649    996943.28447  21598953.1564   21598947.2274
     -2967.5164
  -1037713.68849   -797031.58747  23815634.7734   23815629.7624
      2285.0164
   1426637.61649   1082712.34247  23393827.4694   23393821.5124
     -3206.9694
   -619987.64949   -474908.11248  21148319.5234   21148314.4694
      1163.1564
 04  9 16 15  8  0.0000000  0  6G 1G11G14G20G22G25
   -620441.06949   -476506.00847  21453634.4844   21453629.9694
      1158.2504
   -228517.46349   -177091.71047  21512355.2424   21512349.2934
       277.2194
   1355088.50149   1031664.30347  21607432.1564   21607426.6454
     -2973.3754
  -1071963.18749   -823719.49846  23809117.7274   23809111.7384
      2281.8284
   1474784.33449   1120229.23647  23402989.5314   23402983.4144
     -3212.3284
   -637354.25849   -488440.52048  21145014.9454   21145009.6214
      1152.6254
 04  9 16 15  8 15.0000000  0  6G 1G11G14G20G22G25
   -637759.33549   -490000.75347  21450339.2034   21450335.0274
      1150.7344
   -232592.70249   -180267.23047  21511579.6804   21511573.5044
       265.9844
   1399730.41649   1066450.19447  21615927.3674   21615921.9694
     -2978.9534
  -1106170.97849   -850374.93246  23802607.7664   23802602.3204
      2279.1414
   1523006.15649   1157804.63247  23412165.8674   23412159.9104
     -3217.3594
   -654567.88649   -501853.73248  21141738.9144   21141734.1724
      1142.4224
 04  9 16 15  8 30.0000000  0  6G 1G11G14G20G22G25
   -654962.58449   -503405.88647  21447065.5784   21447061.3244
      1143.0784
   -236498.86049   -183310.99647  21510836.8674   21510830.6884
       254.7974
   1444456.71749   1101301.85047  21624438.5704   21624432.9614
     -2984.5944
  -1140335.60149   -876996.70746  23796106.4064   23796100.8134
      2276.2034
   1571304.45049   1195439.65047  23421357.0234   23421351.0234
     -3222.4064
   -671627.02849   -515146.56448  21138492.7664   21138488.0394
      1132.1884
 04  9 16 15  8 45.0000000  0  6G 1G11G14G20G22G25
   -672056.16649   -516725.54847  21443812.7034   21443807.9964
      1135.6564
   -240241.11049   -186227.05347  21510124.6024   21510118.5084
       243.7504
   1489261.96949   1136215.01747  21632964.0704   21632958.9694
     -2990.0004
  -1174462.15349   -903588.85146  23789612.4224   23789606.5274
      2273.5784
   1619673.87849   1233130.06747  23430561.5864   23430554.6454
     -3227.2504
   -688536.70949   -528322.94448  21135275.2344   21135270.1804
      1122.0314
 04  9 16 15  9  0.0000000  0  6G 1G11G14G20G22G25
   -689038.08349   -529958.21248  21440580.9534   21440576.1764
      1128.5944
   -243817.34349   -189013.72947  21509444.1334   21509437.8674
       233.0634
   1534147.84749   1171191.01447  21641505.8524   21641500.3634
     -2994.8754
  -1208548.60449   -930149.71546  23783126.2974   23783120.2074
      2271.1724
   1668116.51049   1270877.54847  23439779.5084   23439773.9414
     -3231.7664
   -705294.77549   -541381.16748  21132086.2504   21132081.5164
      1112.2974
 04  9 16 15  9 15.0000000  0  6G 1G11G14G20G22G25
   -705911.54549   -543106.35648  21437370.3284   21437365.9654
      1121.3754
   -247230.58949   -191673.41548  21508794.6484   21508788.2344
       222.2344
   1579110.96549   1206227.19947  21650061.9304   21650057.0044
     -3000.0474
  -1242597.99449   -956681.71246  23776646.8914   23776641.1644
      2268.8594
   1716629.00349   1308679.46947  23449011.5004   23449005.1844
     -3236.3754
   -721904.28349   -554323.62748  21128925.6024   21128920.4734
      1102.4844
 04  9 16 15  9 30.0000000  0  6G 1G11G14G20G22G25
   -722677.30549   -556170.57548  21434179.8284   21434175.1724
      1114.2194
   -250481.59749   -194206.66547  21508175.7894   21508169.9574
       211.4224
   1624150.32149   1241322.79947  21658632.6334   21658627.6644
     -3005.0624
  -1276611.03549   -983185.39046  23770173.6724   23770168.7344
      2266.4384
   1765210.52749   1346535.16447  23458255.7584   23458250.2034
     -3240.9064
   -738365.71549   -567150.70748  21125792.8914   21125787.8204
      1092.6094
 04  9 16 15  9 45.0000000  0  6G 1G11G14G20G22G25
   -739337.25149   -569152.33847  21431009.1804   21431004.9064
      1107.1724
   -253572.02549   -196614.80248  21507588.0084   21507581.5004
       200.6564
   1669263.80249   1276476.14347  21667217.8914   21667212.8874
     -3010.0164
  -1310589.45649  -1009662.04946  23763707.8754   23763702.7624
      2264.0314
   1813859.33349   1384443.25747  23467513.7114   23467507.8444
     -3245.5004
   -754680.80449   -579863.76548  21122688.0554   21122683.2344
      1082.8284
 04  9 16 15 10  0.0000000  0  6G 1G11G14G20G22G25
   -755889.72249   -582050.36147  21427859.8444   21427855.2384
      1100.2194
   -256500.16549   -198896.48148  21507030.4304   21507024.6684
       190.1094
   1714452.89949   1311688.41347  21675816.7344   21675811.3164
     -3014.8124
  -1344531.42749  -1036110.33946  23757248.8524   23757243.8014
      2261.9384
   1862576.81549   1422404.92747  23476784.6254   23476778.2074
     -3249.8754
   -770847.76749   -592461.39948  21119611.8204   21119606.9844
      1073.2194
 04  9 16 15 10 15.0000000  0  6G 1G11G14G20G22G25
   -772338.55449   -594867.64047  21424729.3834   21424724.6914
      1092.9224
   -259269.74349   -201054.59248  21506503.6564   21506497.9224
       179.1884
   1759713.56849   1346956.45547  21684429.7194   21684424.1644
     -3020.0164
  -1378440.73549  -1062533.18146  23750796.1254   23750791.0084
      2259.2814
   1911359.23449   1460417.19047  23486066.7734   23486061.1844
     -3254.5944
   -786870.09249   -604946.31648  21116562.8364   21116557.6334
      1063.1724
 04  9 16 15 10 30.0000000  0  6G 1G11G14G20G22G25
   -788680.51049   -607601.62047  21421619.7034   21421615.2034
      1085.7974
   -261877.48849   -203086.60048  21506006.7894   21506001.2584
       168.3594
   1805048.78849   1382282.59547  21693056.6884   21693051.1524
     -3024.8594
  -1412314.15949  -1088928.05646  23744350.5554   23744344.9144
      2256.9694
   1960209.74349   1498482.49847  23495363.3284   23495357.3244
     -3259.0784
   -802744.64349   -617316.09248  21113542.0704   21113537.0594
      1053.3134
 04  9 16 15 10 45.0000000  0  6G 1G11G14G20G22G25
   -804918.23649   -620254.39148  21418529.6954   21418524.9574
      1078.8444
   -264325.85549   -204994.42747  21505541.4454   21505535.6604
       157.6724
   1850455.74649   1417664.62847  21701697.3204   21701691.7854
     -3029.7034
  -1446154.13249  -1115296.85746  23737910.6564   23737905.4574
      2254.5634
   2009125.66949   1536598.76347  23504671.9064   23504665.8364
     -3263.4694
   -818473.77749   -629572.54648  21110548.6884   21110543.6954
      1043.5314
 04  9 16 15 11  0.0000000  0  6G 1G11G14G20G22G25
   -821049.01449   -632823.82147  21415460.3134   21415455.4064
      1072.0784
   -266612.00349   -206775.84548  21505106.2034   21505100.2624
       147.2504
   1895936.87749   1453104.45247  21710352.2424   21710346.7504
     -3034.3124
  -1479957.80149  -1141637.36346  23731478.2734   23731472.8954
      2252.6414
   2058109.63149   1574768.03347  23513992.7504   23513987.2344
     -3267.6094
   -834054.50149   -641713.36448  21107583.9534   21107579.0394
      1034.0004
 04  9 16 15 11 15.0000000  0  6G 1G11G14G20G22G25
   -837078.02749   -645313.96448  21412410.0084   21412405.8054
      1064.9224
   -268740.87049   -208434.71847  21504701.2664   21504695.0864
       136.4064
   1941486.84349   1488597.92547  21719019.8834   21719014.3364
     -3039.2344
  -1513730.18049  -1167953.52847  23725051.1254   23725046.4344
      2250.2034
   2107156.51249   1612986.34347  23523326.4384   23523320.2934
     -3272.2194
   -849491.90649   -653742.51648  21104646.2664   21104641.1764
      1024.1254
 04  9 16 15 11 30.0000000  0  6G 1G11G14G20G22G25
   -853003.74949   -657723.59947  21409379.1094   21409375.1724
      1058.5784
   -270710.97449   -209969.85648  21504326.5314   21504320.0164
       126.3444
   1987107.03249   1524146.10847  21727701.0394   21727695.5944
     -3043.3754
  -1547469.69749  -1194244.01347  23718631.5164   23718626.1914
      2248.4694
   2156267.73649   1651254.79947  23532672.0164   23532665.9264
     -3275.8594
   -864784.23849   -665658.60148  21101736.4144   21101731.2664
      1014.9384
 04  9 16 15 11 45.0000000  0  6G 1G11G14G20G22G25
   -868829.13449   -670055.07147  21406367.7664   21406363.5274
      1051.9694
   -272525.15049   -211383.51347  21503981.4144   21503974.9494
       115.9534
   2032794.23449   1559746.51347  21736394.9384   21736389.5434
     -3047.7194
  -1581179.16949  -1220511.14747  23712216.5004   23712211.6054
      2246.5314
   2205440.43749   1689571.16147  23542029.9144   23542022.6604
     -3279.9694
   -879934.19249   -677463.75948  21098853.1484   21098848.6604
      1005.5004
 04  9 16 15 12  0.0000000  0  6G 1G11G14G20G22G25
   -884554.78849   -682308.81648  21403375.3054   21403370.8914
      1045.3914
   -274183.96649   -212676.09547  21503665.1954   21503659.1094
       105.7504
   2078547.58249   1595398.46647  21745101.6414   21745096.4344
     -3052.0944
  -1614859.07849  -1246755.20947  23705807.4224   23705802.0514
      2244.6564
   2254673.89949   1727934.86547  23551397.6564   23551392.0204
     -3283.9694
   -894942.24649   -689158.34348  21095997.2274   21095992.2304
       996.0944
 04  9 16 15 12 15.0000000  0  6G 1G11G14G20G22G25
   -900183.83049   -694487.28948  21400401.2344   21400396.9264
      1038.7664
   -275690.24749   -213849.81847  21503378.7894   21503372.4654
        95.3754
   2124363.82149   1631099.42447  21753820.6094   21753814.5434
     -3056.4534
  -1648512.39749  -1272978.56147  23699403.0004   23699398.2074
      2242.6414
   2303964.89349   1766343.39447  23560777.9064   23560772.0864
     -3287.9224
   -909811.41949   -700744.69448  21093167.7344   21093162.6374
       986.7034
 04  9 16 15 12 30.0000000  0  6G 1G11G14G20G22G25
   -915709.84049   -706585.48148  21397446.8834   21397442.4844
      1032.1414
   -277037.53549   -214899.67047  21503122.4534   21503116.4844
        84.9694
   2170249.21949   1666854.27047  21762552.0004   21762546.6374
     -3060.8914
  -1682132.68449  -1299176.15347  23693006.0314   23693000.9614
      2240.7034
   2353319.93249   1804801.81247  23570170.5784   23570164.3594
     -3292.0314
   -924535.03149   -712217.64148  21090365.9384   21090360.9454
       977.2344
 04  9 16 15 12 45.0000000  0  6G 1G11G14G20G22G25
   -931138.99849   -718608.19748  21394510.8674   21394506.6174
      1025.3914
   -278231.99049   -215830.41947  21502894.8594   21502889.3364
        74.5004
   2216197.39249   1702658.03347  21771295.7114   21771290.2464
     -3065.2664
  -1715725.92649  -1325352.71247  23686613.5864   23686608.2114
      2238.6564
   2402732.78149   1843305.30247  23579572.2814   23579566.7814
     -3296.1564
   -939118.97649   -723581.74748  21087590.8754   21087585.9454
       967.5474
 04  9 16 15 13  0.0000000  0  6G 1G11G14G20G22G25
   -946470.67049   -730554.94148  21391593.2034   21391588.6914
      1019.0784
   -279272.78549   -216641.43747  21502696.9534   21502691.1214
        64.4064
   2262208.65149   1738510.95547  21780051.2504   21780045.5784
     -3069.2664
  -1749291.27149  -1351507.53647  23680226.3284   23680220.6214
      2237.0004
   2452204.11049   1881854.38547  23588987.2894   23588980.9224
     -3299.8284
   -953562.54949   -734836.47248  21084842.2894   21084837.2974
       958.4844
 04  9 16 15 13 15.0000000  0  6G 1G11G14G20G22G25
   -961705.55149   -742426.27648  21388694.1094   21388689.1374
      1012.6094
   -280160.57249   -217333.21848  21502527.7974   21502521.8954
        54.2194
   2308282.13149   1774412.35947  21788818.9224   21788813.3914
     -3073.5314
  -1782829.38849  -1377641.14247  23673844.2814   23673838.7854
      2235.1564
   2501733.06349   1920448.32947  23598411.7504   23598405.5864
     -3303.6724
   -967866.41949   -745982.33148  21082120.2424   21082115.4654
       949.0474
 04  9 16 15 13 30.0000000  0  6G 1G11G14G20G22G25
   -976842.30149   -754221.14548  21385813.5784   21385808.9774
      1006.1884
   -280893.97849   -217904.71147  21502388.2584   21502382.6644
        44.0164
   2354418.95249   1810363.11747  21797598.6884   21797592.8204
     -3077.5624
  -1816338.85649  -1403752.41047  23667467.3524   23667461.7584
      2233.3754
   2551321.02149   1959088.27647  23607848.3444   23607842.3554
     -3307.5784
   -982028.94849   -757018.04348  21079425.2734   21079420.3054
       939.8284
 04  9 16 15 13 45.0000000  0  6G 1G11G14G20G22G25
   -991883.20249   -765941.31948  21382951.3284   21382947.0824
       999.4694
   -281474.93749   -218357.41547  21502278.2424   21502272.1294
        33.6094
   2400616.71349   1846361.35647  21806389.7584   21806384.0084
     -3081.9224
  -1849821.80749  -1429843.01547  23661095.5004   23661089.9024
      2231.2814
   2600965.57849   1997772.31147  23617295.2664   23617289.7934
     -3311.5624
   -996052.16549   -767945.22348  21076756.8054   21076752.0514
       930.2034
 04  9 16 15 14  0.0000000  0  6G 1G11G14G20G22G25
  -1006822.55549   -777582.37247  21380108.6094   21380103.9264
       992.7344
   -281897.82449   -218686.94547  21502197.3524   21502191.7234
        23.0474
   2446880.84849   1882411.31747  21815193.6174   21815187.6604
     -3086.2814
  -1883272.39049  -1455908.40847  23654730.7584   23654725.3054
      2229.1564
   2650672.41549   2036504.87347  23626754.3914   23626748.7074
     -3315.6564
  -1009930.17549   -778759.24348  21074115.6334   21074110.7384
       920.5314
 04  9 16 15 14 15.0000000  0  6G 1G11G14G20G22G25
  -1021669.37849   -789151.32748  21377283.1334   21377278.6884
       986.7034
   -282171.56149   -218900.25548  21502145.4064   21502139.5044
        13.2664
   2493202.05449   1918505.75047  21824008.1094   21824002.4224
     -3089.9534
  -1916699.53849  -1481955.50447  23648369.6484   23648364.1374
      2227.7504
   2700432.54149   2075278.98047  23636223.5474   23636217.6024
     -3319.1414
  -1023671.91549   -789467.09148  21071500.6954   21071495.2304
       911.5634
 04  9 16 15 14 30.0000000  0  6G 1G11G14G20G22G25
  -1036419.94149   -800645.27348  21374476.4694   21374471.5474
       980.2664
   -282292.39749   -218994.41848  21502122.6484   21502116.2934
         3.0474
   2539584.00149   1954647.51847  21832834.3364   21832828.6684
     -3094.0944
  -1950099.29449  -1507981.32347  23642013.3444   23642007.8014
      2225.8284
   2750249.55149   2114097.39047  23645703.0164   23645697.8134
     -3322.8444
  -1037273.54449   -800065.75348  21068912.2664   21068907.2304
       902.2194
 04  9 16 15 14 45.0000000  0  6G 1G11G14G20G22G25
  -1051076.73749   -812066.13648  21371687.4064   21371682.6644
       973.6724
   -282262.62949   -218971.23447  21502128.0084   21502121.7934
        -7.3444
   2586023.94949   1990834.48247  21841671.2734   21841666.0594
     -3098.2194
  -1983474.16849  -1533987.72647  23635662.7114   23635657.6414
      2223.8754
   2800120.98549   2152958.22947  23655193.7504   23655187.7384
     -3326.9224
  -1050737.42849   -810557.08048  21066350.4614   21066345.3204
       892.6254
 04  9 16 15 15  0.0000000  0  6G 1G11G14G20G22G25
  -1065638.42149   -823412.90848  21368916.6174   21368911.8914
       967.4694
   -282080.69949   -218829.46447  21502162.8284   21502156.6604
       -17.4064
   2632523.07949   2027067.54147  21850519.8594   21850514.3984
     -3102.0944
  -2016822.58749  -1559973.48847  23629316.2424   23629311.0164
      2222.1564
   2850048.06649   2191862.42547  23664694.2734   23664688.8554
     -3330.5004
  -1064061.98049   -820939.83248  21063814.9614   21063809.7974
       883.5004
 04  9 16 15 15 15.0000000  0  6G 1G11G14G20G22G25
  -1080104.10849   -834684.86648  21366163.4694   21366159.1844
       961.5634
   -281745.77249   -218568.49647  21502226.3204   21502220.4924
       -27.1254
   2679081.95349   2063347.18547  21859380.0554   21859374.2624
     -3105.5624
  -2050143.50649  -1585937.82447  23622975.7344   23622970.3134
      2220.7974
   2900031.83649   2230810.80247  23674206.4224   23674200.2664
     -3333.8594
  -1077246.08449   -831213.14648  21061305.7034   21061300.7504
       874.5784
 04  9 16 15 15 30.0000000  0  6G 1G11G14G20G22G25
  -1094475.10849   -845883.05348  21363428.8364   21363424.4224
       954.8754
   -281259.11149   -218189.28448  21502319.2814   21502313.0984
       -37.5784
   2725699.17149   2099672.26747  21868250.6564   21868245.0904
     -3109.7814
  -2083438.31549  -1611881.82347  23616639.9144   23616634.5354
      2218.7194
   2950070.88449   2269802.20147  23683727.6024   23683722.5354
     -3337.8444
  -1090290.95249   -841377.97948  21058823.5234   21058818.6804
       864.9844
 04  9 16 15 15 45.0000000  0  6G 1G11G14G20G22G25
  -1108751.99549   -857007.90048  21360712.1414   21360707.5904
       948.8914
   -280621.11349   -217692.15347  21502440.5864   21502434.3554
       -47.4534
   2772374.03249   2136042.27047  21877132.9534   21877127.1764
     -3113.4224
  -2116707.30449  -1637805.69447  23610309.7034   23610303.8134
      2217.2664
   3000164.61349   2308836.26247  23693261.3834   23693255.2304
     -3341.2034
  -1103196.92549   -851434.57748  21056367.6334   21056362.7624
       855.9844
 04  9 16 15 16  0.0000000  0  6G 1G11G14G20G22G25
  -1122938.18849   -868062.07048  21358013.0164   21358008.1134
       942.5004
   -279835.02549   -217079.62447  21502589.6024   21502583.8834
       -57.5944
   2819102.91949   2172454.37847  21886025.0554   21886019.6214
     -3117.3124
  -2149953.67149  -1663711.96646  23603982.3594   23603976.8054
      2215.5004
   3050309.52449   2347910.17947  23702802.9534   23702797.1024
     -3344.9534
  -1115967.35149   -861385.57148  21053937.6414   21053932.6294
       846.5314
 04  9 16 15 16 15.0000000  0  6G 1G11G14G20G22G25
  -1137027.80249   -879040.99248  21355331.2584   21355327.3874
       936.3284
   -278894.63049   -216346.85648  21502768.8284   21502762.6884
       -67.6254
   2865891.42949   2208912.94847  21894928.3204   21894923.0084
     -3120.9694
  -2183171.43149  -1689595.92847  23597661.3834   23597655.9454
      2213.7504
   3100511.60149   2387028.63647  23712355.6884   23712350.0634
     -3348.5474
  -1128595.99249   -871226.06248  21051534.2584   21051529.4884
       837.3284
 04  9 16 15 16 30.0000000  0  6G 1G11G14G20G22G25
  -1151024.62549   -889947.60148  21352668.0004   21352663.6134
       929.6724
   -277804.02949   -215497.03948  21502976.6884   21502970.8714
       -78.0474
   2912735.64449   2245414.92447  21903842.6724   21903836.8714
     -3125.1724
  -2216364.30749  -1715460.49647  23591344.6174   23591339.9304
      2211.7664
   3150766.85049   2426188.58047  23721919.7664   23721913.2154
     -3352.3594
  -1141086.54649   -880958.96248  21049157.5004   21049152.7704
       827.7974
 04  9 16 15 16 45.0000000  0  6G 1G11G14G20G22G25
  -1164929.69449   -900782.71948  21350021.7894   21350016.8204
       923.6254
   -276564.22249   -214530.96248  21503212.4614   21503207.1214
       -88.0004
   2959634.34849   2281959.34447  21912766.9224   21912761.5434
     -3128.7974
  -2249533.15549  -1741306.35547  23585033.2504   23585027.7034
      2210.1094
   3201074.33849   2465389.14347  23731492.6414   23731486.3134
     -3356.0164
  -1153440.02549   -890585.03448  21046807.0394   21046801.8094
       818.6254
 04  9 16 15 17  0.0000000  0  6G 1G11G14G20G22G25
  -1178744.21649   -911547.27548  21347393.0944   21347388.5554
       917.8594
   -275176.13149   -213449.34548  21503476.8054   21503471.0824
       -97.5314
   3006586.06949   2318545.09147  21921701.9924   21921696.4304
     -3131.9534
  -2282679.06449  -1767134.32647  23578725.9614   23578720.2194
      2208.8284
   3251432.68849   2504629.40647  23741075.6094   23741069.5944
     -3358.9534
  -1165657.28749   -900104.97548  21044482.1884   21044476.8554
       809.8914
 04  9 16 15 17 15.0000000  0  6G 1G11G14G20G22G25
  -1192466.04649   -922239.60948  21344781.8524   21344777.6724
       911.7344
   -273637.54449   -212250.46248  21503769.6484   21503763.4264
      -107.5314
   3053592.87049   2355173.75247  21930646.9224   21930641.4924
     -3135.5314
  -2315799.65149  -1792942.59047  23572422.9384   23572417.8754
      2207.2814
   3301844.21249   2543911.08847  23750668.3054   23750662.3284
     -3362.5624
  -1177735.96249   -909516.92248  21042183.3204   21042178.1254
       800.6724
 04  9 16 15 17 30.0000000  0  6G 1G11G14G20G22G25
  -1206094.67849   -932859.32348  21342188.5084   21342184.1454
       905.5944
   -271947.88349   -210933.84547  21504091.2734   21504084.6914
      -117.5164
   3100655.04949   2391845.55947  21939602.5234   21939596.9884
     -3139.2504
  -2348894.28749  -1818730.58447  23566125.0784   23566120.1804
      2205.5164
   3352309.22849   2583234.42547  23760271.2894   23760265.6884
     -3366.0624
  -1189675.52949   -918820.48148  21039911.4694   21039906.0664
       791.4844
 04  9 16 15 17 45.0000000  0  6G 1G11G14G20G22G25
  -1219634.16649   -943409.56848  21339611.8364   21339607.2734
       899.1094
   -270111.05849   -209502.56548  21504440.8524   21504434.7114
      -127.9224
   3147768.27649   2428557.15347  21948568.0314   21948562.3364
     -3143.1564
  -2381966.90449  -1844501.44947  23559831.9304   23559826.5944
      2203.5634
   3402823.71849   2622596.31447  23769884.8984   23769878.5784
     -3369.7814
  -1201479.98049   -928018.74448  21037665.1094   21037660.1884
       781.9384
 04  9 16 15 18  0.0000000  0  6G 1G11G14G20G22G25
  -1233078.67049   -953885.80348  21337053.6414   21337049.4104
       892.6564
   -268121.14549   -207951.99247  21504819.2114   21504813.3794
      -138.2504
   3194938.31149   2465313.01047  21957544.2344   21957538.8324
     -3147.0624
  -2415011.63449  -1870250.58647  23553543.1644   23553538.2194
      2201.5314
   3453393.56849   2662001.37747  23779507.0864   23779501.5634
     -3373.6254
  -1213143.10549   -937106.87848  21035445.8754   21035440.8134
       772.3444
 04  9 16 15 18 15.0000000  0  6G 1G11G14G20G22G25
  -1246429.36549   -964288.92748  21334512.8594   21334508.3484
       887.0944
   -265979.20049   -206282.93548  21505226.8364   21505220.7304
      -147.8754
   3242163.81349   2502112.10447  21966530.8284   21966525.3634
     -3150.0474
  -2448029.35449  -1895978.67147  23547260.8524   23547255.0354
      2200.3594
   3504017.51449   2701448.57847  23789140.1884   23789135.4694
     -3376.5474
  -1224665.84149   -946085.62848  21033252.9614   21033247.7504
       763.6254
 04  9 16 15 18 30.0000000  0  6G 1G11G14G20G22G25
  -1259690.80349   -974622.51848  21331989.1414   21331984.8094
       881.1094
   -263689.78749   -204498.99948  21505662.8054   21505656.3594
      -157.5314
   3289440.02449   2538950.69547  21975527.2034   21975521.8794
     -3153.4534
  -2481024.57649  -1921689.24547  23540981.5004   23540976.3054
      2198.9064
   3554690.86949   2740934.26347  23798783.1884   23798778.0744
     -3379.9694
  -1236052.77349   -954958.54748  21031085.9454   21031080.9304
       754.5474
 04  9 16 15 18 45.0000000  0  6G 1G11G14G20G22G25
  -1272852.59549   -984878.46948  21329484.7734   21329479.8874
       874.1254
   -261242.31249   -202591.87248  21506128.1174   21506122.0864
      -168.3914
   3336777.18449   2575836.77447  21984535.5004   21984530.5164
     -3157.8594
  -2513986.80549  -1947374.09747  23534709.3134   23534704.0394
      2196.4064
   3605424.14849   2780466.69147  23808438.4844   23808431.9844
     -3384.2194
  -1247293.27749   -963717.37548  21028947.1804   21028941.6564
       744.5314
 04  9 16 15 19  0.0000000  0  6G 1G11G14G20G22G25
  -1285918.12349   -995059.38348  21326998.1884   21326993.9024
       867.8754
   -258640.15549   -200564.22447  21506623.1804   21506617.3754
      -178.6094
   3384171.65549   2612767.52847  21993554.2114   21993548.7734
     -3161.5314
  -2546919.14049  -1973035.63247  23528442.2814   23528437.3634
      2194.4064
   3656213.94249   2820043.06447  23818102.7734   23818096.5704
     -3387.8284
  -1258390.54149   -972364.59048  21026835.0704   21026829.8164
       735.0784
 04  9 16 15 19 15.0000000  0  6G 1G11G14G20G22G25
  -1298887.77849  -1005165.60248  21324530.7194   21324526.0664
       861.0474
   -255883.60649   -198416.27848  21507148.2664   21507142.0744
      -189.3594
   3431622.89649   2649742.50047  22002583.5084   22002578.2234
     -3165.7344
  -2579821.90549  -1998674.12847  23522180.7734   23522175.7234
      2192.1564
   3707059.76549   2859663.16147  23827778.2664   23827772.7854
     -3392.0004
  -1269344.84449   -980900.40948  21024750.6954   21024745.5124
       725.1094
 04  9 16 15 19 30.0000000  0  6G 1G11G14G20G22G25
  -1311764.98749  -1015199.79548  21322079.7974   21322075.3834
       855.3914
   -252976.03749   -196150.64747  21507701.0084   21507695.1644
      -198.8444
   3479127.15449   2686758.78647  22011623.6484   22011618.2544
     -3168.7504
  -2612698.46549  -2024292.25347  23515924.7974   23515919.5664
      2190.8754
   3757958.09349   2899324.20947  23837464.3134   23837458.5514
     -3394.9374
  -1280159.45149   -989327.36448  21022692.8284   21022687.7854
       716.2194
 04  9 16 15 19 45.0000000  0  6G 1G11G14G20G22G25
  -1324549.62249  -1025161.83448  21319647.4224   21319642.6484
       849.1724
   -249917.24349   -193767.17947  21508283.5394   21508277.6644
      -209.0944
   3526684.43849   2723816.39647  22020673.6024   22020668.0514
     -3172.3594
  -2645548.50849  -2049889.68047  23509673.9534   23509668.7584
      2189.0004
   3808909.10649   2939026.24047  23847160.1884   23847154.5664
     -3398.5944
  -1290834.18149   -997645.32448  21020661.3364   21020656.0824
       706.8914
 04  9 16 15 20  0.0000000  0  6G 1G11G14G20G22G25
  -1337242.95249  -1035052.74148  21317231.7274   21317226.8874
       842.9384
   -246708.41949   -191266.79748  21508893.9064   21508887.8054
      -219.1874
   3574293.37449   2760914.25847  22029733.2504   22029728.0004
     -3175.8914
  -2678373.08049  -2075467.26347  23503427.4694   23503421.9344
      2187.2664
   3859911.51449   2978768.33147  23856865.2274   23856859.5864
     -3402.2194
  -1301370.07649  -1005855.10348  21018656.7194   21018651.4534
       697.5474
 04  9 16 15 20 15.0000000  0  6G 1G11G14G20G22G25
  -1349845.20549  -1044872.66748  21314833.7734   21314828.8054
       837.3134
   -243349.62949   -188649.57148  21509533.1334   21509527.0474
      -228.7504
   3621953.62849   2798052.10047  22038802.5084   22038797.1174
     -3178.8444
  -2711172.15649  -2101024.97747  23497185.4384   23497180.8404
      2186.0314
   3910965.07049   3018550.29147  23866580.7734   23866574.8524
     -3405.0624
  -1311767.14649  -1013956.71148  21016678.3204   21016672.8364
       688.6884
 04  9 16 15 20 30.0000000  0  6G 1G11G14G20G22G25
  -1362324.52449  -1054596.82548  21312458.8984   21312454.0434
       828.0944
   -239808.98049   -185890.63648  21510206.7894   21510200.6954
      -241.8444
   3669696.85249   2835254.58747  22047888.1804   22047882.2274
     -3185.3594
  -2743913.77949  -2126537.93147  23490955.4384   23490950.1764
      2181.1254
   3962101.61749   3058396.91347  23876311.8834   23876305.4804
     -3411.5474
  -1321993.43349  -1021925.24048  21014731.9454   21014726.7384
       676.3914
 04  9 16 15 20 45.0000000  0  6G 1G11G14G20G22G25
  -1374703.77149  -1064242.98847  21310102.8284   21310098.6134
       822.3444
   -236109.21549   -183007.71048  21510910.6724   21510904.7304
      -251.5624
   3717499.98049   2872503.76947  22056984.4144   22056979.1024
     -3188.5314
  -2776620.69749  -2152023.81647  23484731.4694   23484726.3054
      2179.6254
   4013298.28749   3098290.38547  23886054.1724   23886048.3754
     -3414.7504
  -1332071.46749  -1029778.24748  21012814.4304   21012808.7624
       667.2974
 04  9 16 15 21  0.0000000  0  6G 1G11G14G20G22G25
  -1386993.64449  -1073819.50048  21307764.2894   21307759.7974
       816.4694
   -232261.04849   -180009.13547  21511643.1644   21511637.4804
      -261.3754
   3765352.09349   2909791.11947  22066090.3134   22066084.9344
     -3191.7194
  -2809303.56249  -2177490.97747  23478512.5704   23478506.9494
      2178.1414
   4064544.29149   3138222.33047  23895806.0314   23895800.0204
     -3417.8594
  -1342012.01249  -1037524.10948  21010922.9694   21010917.8164
       658.2504
 04  9 16 15 21 15.0000000  0  6G 1G11G14G20G22G25
  -1399191.50749  -1083324.32448  21305443.2114   21305438.6644
       809.8594
   -228261.64849   -176892.72148  21512404.2034   21512398.0554
      -271.9224
   3813255.75649   2947118.64347  22075205.7274   22075200.6094
     -3195.5474
  -2841959.45449  -2202937.12747  23472297.5634   23472292.7384
      2175.8594
   4115842.34349   3178194.83147  23905568.0554   23905562.0124
     -3421.8594
  -1351812.14249  -1045160.57348  21009057.4694   21009052.5084
       648.4064
 04  9 16 15 21 30.0000000  0  6G 1G11G14G20G22G25
  -1411296.93749  -1092757.12748  21303139.1884   21303134.9774
       804.0784
   -224110.55149   -173658.11448  21513194.2034   21513188.0784
      -281.7034
   3861211.19149   2984486.48647  22084332.1414   22084326.5234
     -3198.6254
  -2874587.79149  -2228361.77447  23466088.9924   23466083.9574
      2174.3754
   4167192.71249   3218208.05247  23915340.4454   23915334.3094
     -3425.0164
  -1361471.44249  -1052687.30348  21007219.5634   21007214.6914
       639.3914
 04  9 16 15 21 45.0000000  0  6G 1G11G14G20G22G25
  -1423315.46549  -1102122.21648  21300852.2344   21300848.0474
       798.4694
   -219813.23049   -170309.56148  21514012.1024   21514005.7304
      -291.1724
   3909212.68049   3021890.23947  22093466.7974   22093460.8794
     -3201.4694
  -2907193.91949  -2253769.14047  23459884.1094   23459878.8674
      2173.0944
   4218590.01649   3258257.88447  23925119.8524   23925113.8674
     -3427.9374
  -1370995.10949  -1060108.34548  21005407.2664   21005402.3794
       630.5164
 04  9 16 15 22  0.0000000  0  6G 1G11G14G20G22G25
  -1435243.50549  -1111416.78548  21298582.8284   21298578.3284
       792.3444
   -215366.06849   -166844.23648  21514858.3364   21514852.4184
      -301.3594
   3957263.58849   3059332.49647  22102609.9454   22102604.2274
     -3204.8914
  -2939774.27549  -2279156.42747  23453684.6414   23453679.0944
      2171.2504
   4270037.65849   3298346.92847  23934909.7664   23934904.2934
     -3431.4064
  -1380379.56249  -1067420.89748  21003621.8284   21003616.2894
       621.0784
 04  9 16 15 22 15.0000000  0  6G 1G11G14G20G22G25
  -1447083.15449  -1120642.48048  21296330.1884   21296325.3324
       786.0004
   -210771.05749   -163263.72048  21515732.9534   21515726.6134
      -311.6564
   4005361.61549   3096811.46847  22111762.5004   22111756.8014
     -3208.5314
  -2972330.70949  -2304525.06647  23447489.2194   23447484.1564
      2169.2974
   4321533.56049   3338473.53547  23944709.3914   23944703.6914
     -3435.0784
  -1389626.66149  -1074626.41848  21001861.6094   21001856.7074
       611.4844
 04  9 16 15 22 30.0000000  0  6G 1G11G14G20G22G25
  -1458831.47449  -1129797.00848  21294093.9064   21294089.5594
       780.3134
   -206025.16149   -159565.63548  21516636.0234   21516629.9844
      -321.3594
   4053509.63049   3134329.38547  22120925.2274   22120919.3444
     -3211.3914
  -3004860.14849  -2329872.69047  23441299.3204   23441293.2624
      2167.8914
   4373080.57549   3378640.03247  23954518.5234   23954512.9344
     -3438.2034
  -1398733.34149  -1081722.53848  21000128.9844   21000123.7664
       602.5314
 04  9 16 15 22 45.0000000  0  6G 1G11G14G20G22G25
  -1470490.26749  -1138881.78048  21291875.5554   21291870.7894
       774.4844
   -201130.13549   -155751.32547  21517567.5234   21517561.7974
      -331.1564
   4101705.60949   3171884.67747  22130095.9924   22130091.1604
     -3214.5164
  -3037364.18549  -2355200.48047  23435113.4614   23435107.9964
      2166.3134
   4424676.93149   3418844.94547  23964335.9774   23964331.9184
     -3441.1724
  -1407701.25249  -1088710.51148  20998422.4844   20998417.5474
       593.4844
 04  9 16 15 23  0.0000000  0  6G 1G11G14G20G22G25
  -1482061.64149  -1147898.42848  21289673.4064   21289669.2704
       768.0474
   -196088.19149   -151822.55748  21518527.0704   21518521.2074
      -341.5164
   4149947.38649   3209475.64947  22139277.0004   22139271.0394
     -3218.1724
  -3069844.73049  -2380510.01447  23428932.8834   23428927.7114
      2164.0474
   4476320.51149   3459086.66047  23974164.3524   23974158.8444
     -3445.0474
  -1416532.31549  -1095591.85548  20996741.9224   20996736.6334
       583.6414
 04  9 16 15 23 15.0000000  0  6G 1G11G14G20G22G25
  -1493540.92349  -1156843.31148  21287489.0394   21287484.3444
       762.5164
   -190894.46249   -147775.49948  21519515.1804   21519509.0944
      -351.0474
   4198239.26049   3247105.67047  22148466.4614   22148460.8164
     -3220.8914
  -3102297.04749  -2405797.52447  23422757.9224   23422752.1254
      2162.7974
   4528015.79949   3499368.66747  23984001.1484   23983995.9574
     -3447.8594
  -1425221.93149  -1102362.97348  20995088.2114   20995083.8594
       574.8594
 04  9 16 15 23 30.0000000  0  6G 1G11G14G20G22G25
  -1504933.23249  -1165720.43948  21285320.7504   21285316.4844
       756.4694
   -185553.75849   -143613.92448  21520531.3284   21520525.4494
      -361.0784
   4246576.07849   3284770.68547  22157664.5784   22157659.2034
     -3224.0784
  -3134725.99949  -2431066.80147  23416586.5554   23416581.3444
      2161.0944
   4579757.81349   3539687.07447  23993848.0314   23993842.1174
     -3451.1564
  -1433774.83749  -1109027.57348  20993460.7664   20993455.5514
       565.5634
 04  9 16 15 23 45.0000000  0  6G 1G11G14G20G22G25
  -1516235.05249  -1174527.03748  21283170.5474   21283165.5514
       750.5004
   -180062.60149   -139335.10148  21521576.1414   21521570.3524
      -371.0784
   4294961.14949   3322473.33547  22166871.7194   22166866.7194
     -3227.1874
  -3167127.91349  -2456315.04547  23410420.3594   23410415.3134
      2159.1884
   4631550.21949   3580044.77547  24003703.8674   24003698.6724
     -3454.4694
  -1442187.30249  -1115582.74848  20991859.6954   20991854.5864
       556.1414
 04  9 16 15 24  0.0000000  0  6G 1G11G14G20G22G25
  -1527445.35649  -1183262.34748  21281037.5704   21281033.1414
       744.1094
   -174419.94249   -134938.23648  21522650.1884   21522644.1334
      -381.4534
   4343395.34849   3360214.24347  22176088.7734   22176082.8954
     -3230.7814
  -3199501.67849  -2481541.36147  23404259.8984   23404254.6254
      2157.0944
   4683393.81349   3620442.35147  24013569.2584   24013563.5164
     -3458.1874
  -1450458.32949  -1122027.70348  20990286.1884   20990280.9924
       546.4534
 04  9 16 15 24 15.0000000  0  6G 1G11G14G20G22G25
  -1538568.11149  -1191929.42948  21278920.7114   21278915.9024
       738.6094
   -168629.77549   -130426.42948  21523752.2584   21523746.4064
      -390.9224
   4391874.57149   3397990.24947  22185314.1644   22185308.5204
     -3233.4694
  -3231851.02849  -2506748.65647  23398104.2504   23398098.7464
      2155.8284
   4735284.63149   3660876.70447  24023443.6724   24023438.2424
     -3460.9694
  -1458591.70949  -1128365.38748  20988738.1174   20988733.0554
       537.6254
 04  9 16 15 24 30.0000000  0  6G 1G11G14G20G22G25
  -1549603.54349  -1200528.45148  21276820.5784   21276816.3834
       732.7974
   -162692.20649   -125799.75348  21524881.8134   21524876.2274
      -400.7194
   4440398.42549   3435801.02847  22194547.6414   22194542.0784
     -3236.3914
  -3264176.03549  -2531936.96447  23391952.4614   23391947.5044
      2154.1564
   4787222.47949   3701347.69247  24033327.0704   24033321.8794
     -3464.0944
  -1466587.43649  -1134595.82048  20987216.8204   20987211.9024
       528.4694
 04  9 16 15 24 45.0000000  0  6G 1G11G14G20G22G25
  -1560553.94649  -1209061.23448  21274736.7734   21274731.9184
       726.7974
   -156609.54349   -121060.01847  21526039.2504   21526033.1764
      -410.7194
   4488964.42549   3473644.65247  22203789.4454   22203784.0164
     -3239.5164
  -3296478.91849  -2557108.03047  23385805.7194   23385800.6884
      2152.4224
   4839204.90749   3741853.45747  24043219.3054   24043214.0904
     -3467.4224
  -1474447.71549  -1140720.70748  20985720.7194   20985715.5434
       519.1094
 04  9 16 15 25  0.0000000  0  6G 1G11G14G20G22G25
  -1571411.80649  -1217521.90648  21272670.4224   21272666.1374
       721.0784
   -150374.06049   -116201.21648  21527225.9064   21527219.7624
      -420.5314
   4537579.96349   3511526.86247  22213040.6254   22213034.6334
     -3242.4224
  -3328751.86549  -2582255.75447  23379664.6174   23379659.2464
      2150.8444
   4891239.46249   3782399.81047  24053122.2344   24053116.1724
     -3470.3444
  -1482164.97149  -1146734.15448  20984252.3524   20984247.2194
       509.9844
 04  9 16 15 25 15.0000000  0  6G 1G11G14G20G22G25
  -1582184.47149  -1225916.18648  21270620.9614   21270616.1844
       715.3754
   -143993.13149   -111229.06848  21528440.3524   21528434.2424
      -430.2034
   4586237.52449   3549441.83847  22222299.7344   22222294.3594
     -3245.0944
  -3361002.02749  -2607385.76247  23373527.4454   23373521.6644
      2149.3284
   4943318.86349   3822981.12847  24063032.0004   24063025.8634
     -3473.2974
  -1489746.46249  -1152641.80748  20982809.7424   20982804.7464
       500.9534
 04  9 16 15 25 30.0000000  0  6G 1G11G14G20G22G25
  -1592868.18549  -1234241.15348  21268587.8444   21268583.1054
       709.3444
   -137463.09249   -106140.73648  21529682.8054   21529676.9144
      -440.3124
   4634940.72649   3587392.37847  22231567.8204   22231562.0044
     -3248.3754
  -3393225.53449  -2632494.98747  23367395.3134   23367390.2384
      2147.4064
   4995446.73749   3863600.20847  24072950.7034   24072945.5044
     -3476.7504
  -1497188.13249  -1158440.51548  20981393.6724   20981388.2734
       491.5164
 04  9 16 15 25 45.0000000  0  6G 1G11G14G20G22G25
  -1603461.79849  -1242495.91148  21266571.9304   21266567.4494
       703.2504
   -130782.55649   -100935.13847  21530953.9304   21530948.3714
      -450.4064
   4683690.55649   3625379.24147  22240844.7344   22240838.7814
     -3251.6414
  -3425421.03449  -2657582.38647  23361269.2194   23361264.0004
      2145.4224
   5047624.21549   3904257.94846  24082880.3524   24082874.5004
     -3480.1564
  -1504488.70949  -1164129.26548  20980004.3284   20979999.5474
       481.9844
 04  9 16 15 26  0.0000000  0  6G 1G11G14G20G22G25
  -1613966.35149  -1250681.28148  21264572.7034   21264567.9344
       697.4384
   -123952.48949    -95613.01447  21532253.9224   21532248.0394
      -460.2344
   4732485.72149   3663401.43247  22250130.2894   22250124.4774
     -3254.3914
  -3457589.48349  -2682648.66547  23355147.1024   23355142.3014
      2143.7814
   5099850.14749   3944953.47046  24092817.3834   24092812.8054
     -3483.2664
  -1511649.13749  -1169708.81048  20978641.4534   20978636.5314
       472.8444
 04  9 16 15 26 15.0000000  0  6G 1G11G14G20G22G25
  -1624386.24049  -1258800.66348  21262589.8524   21262585.7234
       691.6884
   -116977.21449    -90177.74047  21533581.2424   21533575.1954
      -469.9844
   4781321.72149   3701455.43147  22259423.5554   22259417.4964
     -3257.2814
  -3489735.05549  -2707697.16047  23349030.3444   23349025.5084
      2142.0634
   5152120.34149   3985683.44646  24102765.9064   24102760.2154
     -3486.2814
  -1518673.67649  -1175182.47648  20977304.9064   20977300.0004
       463.6414
 04  9 16 15 26 30.0000000  0  6G 1G11G14G20G22G25
  -1634716.33349  -1266850.09847  21260624.4144   21260619.5124
       685.6884
   -109851.56949    -84625.29747  21534937.0554   21534931.2894
      -479.9534
   4830203.52949   3739545.14947  22268725.2344   22268719.1724
     -3260.2664
  -3521852.50149  -2732723.73747  23342918.3134   23342912.7424
      2140.3134
   5204439.76849   4026451.80546  24112721.0004   24112715.8404
     -3489.5164
  -1525557.08749  -1180546.17648  20975995.0164   20975989.6484
       454.2814
 04  9 16 15 26 45.0000000  0  6G 1G11G14G20G22G25
  -1644960.03549  -1274832.19747  21258674.7974   21258669.8554
       679.9534
   -102578.83949    -78958.24247  21536321.4304   21536314.9654
      -489.8124
   4879127.73149   3777667.87647  22278035.4614   22278029.3324
     -3263.0944
  -3553945.01949  -2757730.89347  23336811.7894   23336806.4344
      2138.5784
   5256805.11149   4067255.92246  24122685.7114   24122680.4614
     -3492.5474
  -1532302.61149  -1185802.42848  20974711.5234   20974706.2894
       445.0634
 04  9 16 15 27  0.0000000  0  6G 1G11G14G20G22G25
  -1655117.04149  -1282746.75847  21256742.3204   21256737.2544
       673.8594
    -95158.67449    -73176.31347  21537733.2504   21537727.1994
      -500.0004
   4928094.26149   3815823.58347  22287352.9454   22287346.6294
     -3266.2344
  -3586012.17949  -2782718.28347  23330709.4614   23330703.5784
      2136.5474
   5309216.51049   4108095.94546  24132659.8754   24132653.7854
     -3495.9694
  -1538909.83949  -1190950.91947  20973454.2814   20973448.5784
       435.4224
 04  9 16 15 27 15.0000000  0  6G 1G11G14G20G22G25
  -1665182.23349  -1290589.75747  21254827.1094   21254821.7344
       668.2194
    -87586.13549    -67275.63847  21539174.0554   21539167.8954
      -509.5784
   4977108.22349   3854016.27347  22296680.0394   22296674.5084
     -3268.8124
  -3618048.50849  -2807681.69247  23324613.3594   23324606.8874
      2135.0164
   5361679.19849   4148975.92046  24142642.4614   24142637.9804
     -3498.8914
  -1545373.45349  -1195987.49247  20972224.0164   20972218.4694
       426.4224
 04  9 16 15 27 30.0000000  0  6G 1G11G14G20G22G25
  -1675157.94649  -1298363.04447  21252928.2194   21252923.0044
       661.9694
    -79863.21749    -61257.78947  21540644.0394   21540637.6134
      -520.0624
   5026167.15849   3892243.99047  22306015.7274   22306009.7504
     -3272.1414
  -3650056.26149  -2832622.79647  23318522.0864   23318516.0514
      2132.7974
   5414190.78049   4189893.96146  24152635.5004   24152630.1724
     -3502.5944
  -1551695.69249  -1200913.92247  20971021.0004   20971015.6334
       416.6094
 04  9 16 15 27 45.0000000  0  6G 1G11G14G20G22G25
  -1685044.94949  -1306067.19247  21251046.9924   21251041.5314
       656.0004
    -71990.77049    -55123.42847  21542142.1254   21542135.4024
      -529.9844
   5075270.13349   3930506.04547  22315360.0164   22315354.2344
     -3275.2194
  -3682035.96649  -2857542.04947  23312437.2114   23312430.8634
      2130.8284
   5466750.35049   4230849.45246  24162637.4064   24162631.3164
     -3505.7504
  -1557877.21549  -1205730.69047  20969844.7504   20969838.9734
       407.2034
 04  9 16 15 28  0.0000000  0  6G 1G11G14G20G22G25
  -1694843.22449  -1313702.20347  21249182.4064   21249177.3164
       650.5474
    -63968.59249    -48872.38247  21543668.5634   21543661.9024
      -539.4844
   5124417.03949   3968802.32747  22324712.2344   22324706.2344
     -3277.6724
  -3713987.49249  -2882439.31047  23306356.7034   23306350.6414
      2129.4384
   5519358.09149   4271842.47546  24172648.2894   24172642.6764
     -3508.4224
  -1563917.79749  -1210437.64847  20968695.5704   20968689.8164
       398.3284
 04  9 16 15 28 15.0000000  0  6G 1G11G14G20G22G25
  -1704556.80449  -1321271.22347  21247334.2734   21247329.0594
       644.4384
    -55800.75849    -42507.84247  21545222.7274   21545216.1844
      -549.7344
   5173603.64849   4007129.53247  22334072.3834   22334066.4924
     -3280.7974
  -3745914.63349  -2907317.59647  23300280.7734   23300274.9104
      2127.3754
   5572009.82949   4312869.76346  24182668.0944   24182662.0164
     -3511.8914
  -1569821.27249  -1215037.75347  20967571.9304   20967566.3134
       388.6254
 04  9 16 15 28 30.0000000  0  6G 1G11G14G20G22G25
  -1714180.58149  -1328770.27547  21245502.8054   21245497.7624
       638.7194
    -47482.04449    -36025.73247  21546806.1484   21546799.2894
      -559.3914
   5222834.91049   4045491.53447  22343440.5704   22343434.9494
     -3283.4224
  -3777812.15649  -2932172.80247  23294211.5394   23294205.0864
      2125.7034
   5624710.73749   4353935.36846  24192696.5704   24192690.8914
     -3514.9844
  -1575582.49049  -1219527.00547  20966475.7274   20966469.9734
       379.4694
 04  9 16 15 28 45.0000000  0  6G 1G11G14G20G22G25
  -1723718.70949  -1336202.57447  21243687.4534   21243682.1994
       633.1094
    -39016.64749    -29429.32647  21548416.5394   21548409.8094
      -569.1724
   5272106.51149   4083884.96847  22352817.1174   22352810.8244
     -3286.0474
  -3809684.01149  -2957008.01047  23288146.1414   23288139.5664
      2123.9534
   5677456.53549   4395035.90946  24202733.7034   24202727.8674
     -3517.8284
  -1581205.46249  -1223908.54148  20965405.6564   20965399.8164
       370.2814
 04  9 16 15 29  0.0000000  0  6G 1G11G14G20G22G25
  -1733168.25249  -1343565.85147  21241889.6724   21241884.2504
       627.1414
    -30401.52549    -22716.25447  21550056.0234   21550049.9264
      -579.2504
   5321421.28449   4122312.04747  22362200.8754   22362194.8244
     -3288.9534
  -3841527.07249  -2981820.78047  23282086.6414   23282080.5904
      2122.0314
   5730250.33349   4436173.89446  24212780.0474   24212773.9734
     -3521.0944
  -1586687.10649  -1228179.94747  20964362.7114   20964356.7114
       360.8594
 04  9 16 15 29 15.0000000  0  6G 1G11G14G20G22G25
  -1742528.94849  -1350859.89047  21240108.0164   21240102.9224
       621.2664
    -21636.35249    -15886.25547  21551724.0474   21551717.4024
      -589.2034
   5370779.36649   4160772.90347  22371593.7114   22371587.4454
     -3291.8444
  -3873340.86249  -3006610.73347  23276032.1484   23276027.0124
      2120.0784
   5783092.21249   4477349.35646  24222836.0474   24222829.9304
     -3524.2504
  -1592027.03949  -1232340.93248  20963346.3284   20963340.8634
       351.4224
 04  9 16 15 29 30.0000000  0  6G 1G11G14G20G22G25
  -1751803.16249  -1358086.55747  21238343.1724   21238338.0394
       615.4534
    -12723.57549     -8941.24247  21553420.0394   21553413.4884
      -599.0784
   5420178.17049   4199265.43647  22380993.5234   22380987.9064
     -3294.5944
  -3905127.60949  -3031379.63047  23269983.3444   23269977.4494
      2118.1414
   5835979.79349   4518560.42646  24232899.5164   24232893.8014
     -3527.3444
  -1597227.51049  -1236393.24347  20962356.5004   20962350.7974
       342.0004
 04  9 16 15 29 45.0000000  0  6G 1G11G14G20G22G25
  -1760987.61049  -1365243.26047  21236595.3444   21236590.5824
       609.2664
     -3659.77649     -1878.55247  21555145.0554   21555138.5234
      -609.2814
   5469620.91249   4237792.24947  22390402.8594   22390396.6024
     -3297.6254
  -3936883.72749  -3056124.63947  23263940.5554   23263934.4694
      2116.0314
   5888916.42949   4559809.73046  24242973.3914   24242967.2344
     -3530.7504
  -1602285.06149  -1240334.18048  20961394.2344   20961388.9964
       332.4534
 04  9 16 15 30  0.0000000  0  6G 1G11G14G20G22G25
  -1770083.44749  -1372330.92647  21234864.5864   21234859.3404
       603.4694
      5554.07249      5301.05647  21556898.4064   21556891.8134
      -619.2344
   5519106.24449   4276352.21947  22399819.2424   22399812.9804
     -3300.4224
  -3968610.25249  -3080846.60047  23257903.7504   23257897.5434
      2114.1884
   5941900.79749   4601096.22446  24253057.0164   24253049.7934
     -3533.8754
  -1607200.80849  -1244164.62747  20960458.8834   20960453.2584
       322.9694
 04  9 16 15 30 15.0010000  0  6G 1G11G14G20G22G25
  -1779094.97649  -1379352.89847  21233149.9274   21233144.6494
       598.1724
     14914.73949     12595.07347  21558679.5134   21558672.7634
      -628.6564
   5568633.56449   4314944.92247  22409243.9424   22409237.9974
     -3302.6724
  -4000312.91249  -3105549.98347  23251870.7864   23251864.7044
      2112.7194
   5994932.80949   4642419.79846  24263148.4114   24263141.2084
     -3536.4224
  -1611978.71149  -1247887.67247  20959549.6694   20959544.0994
       314.1094
 04  9 16 15 30 30.0010000  0  6G 1G11G14G20G22G25
  -1788022.30049  -1386309.24747  21231451.0284   21231446.0364
       592.4844
     24419.74149     20001.55547  21560488.3884   21560481.9974
      -638.3444
   5618194.88049   4353564.10347  22418675.0444   22418669.2004
     -3305.1414
  -4031988.62549  -3130232.35847  23245843.0834   23245837.2244
      2111.0474
   6048004.11849   4683774.05946  24273245.8884   24273240.4034
     -3539.4064
  -1616619.27749  -1251503.69248  20958666.5604   20958660.5244
       304.9224
 04  9 16 15 30 45.0010000  0  6G 1G11G14G20G22G25
  -1796863.14649  -1393198.22147  21229768.4894   21229763.3214
       586.3594
     34072.58749     27523.25647  21562324.9504   21562318.9894
      -648.5784
   5667796.33949   4392214.59047  22428114.2944   22428108.3494
     -3308.2194
  -4063636.32049  -3154892.89847  23239820.8964   23239814.9814
      2108.7194
   6101120.96549   4725163.75646  24283354.5604   24283348.0564
     -3542.7344
  -1621119.88149  -1255010.66047  20957809.8884   20957804.6774
       295.2194
 04  9 16 15 31  0.0010000  0  6G 1G11G14G20G22G25
  -1805612.55049  -1400015.93747  21228103.8104   21228098.6424
       580.3444
     43878.42649     35164.15647  21564191.0284   21564184.6614
      -658.7504
   5717442.76849   4430900.09347  22437561.3334   22437555.7124
     -3311.1414
  -4095250.85949  -3179527.58947  23233804.5674   23233798.5994
      2106.6094
   6154288.44849   4766592.93846  24293472.5444   24293465.9814
     -3546.1414
  -1625475.27149  -1258404.45847  20956981.1614   20956975.4424
       285.5944
 04  9 16 15 31 15.0010000  0  6G 1G11G14G20G22G25
  -1814274.80749  -1406765.73947  21226455.5284   21226450.1424
       574.3594
     53832.90049     42920.87947  21566085.6304   21566079.4384
      -668.7814
   5767129.59749   4469617.08747  22447016.5994   22447010.6494
     -3314.0004
  -4126836.33849  -3204139.62347  23227793.6774   23227788.1614
      2104.4694
   6207502.20749   4808058.10346  24303597.2864   24303592.1304
     -3549.2664
  -1629689.62749  -1261688.36447  20956179.4584   20956173.7204
       276.0474
 04  9 16 15 31 30.0010000  0  6G 1G11G14G20G22G25
  -1822848.88249  -1413446.84347  21224823.8174   21224818.3644
       568.8444
     63937.20549     50794.35947  21568008.3564   21568001.6464
      -678.4374
   5816857.74849   4508366.28847  22456479.1774   22456473.2354
     -3316.4534
  -4158391.47549  -3228728.04447  23221789.0914   23221783.3764
      2102.6884
   6260763.30949   4849560.27746  24313733.5674   24313727.8884
     -3552.2034
  -1633761.91849  -1264861.57448  20955404.4894   20955398.2594
       266.9534
 04  9 16 15 31 45.0010000  0  6G 1G11G14G20G22G25
  -1831339.11549  -1420062.60147  21223208.1924   21223203.2824
       563.5784
     74186.86749     58781.10347  21569958.6774   21569952.3294
      -687.7664
   5866622.75049   4547144.20047  22465949.5444   22465943.8924
     -3318.5164
  -4189920.39449  -3253296.03647  23215789.5444   23215783.5954
      2101.3754
   6314067.31149   4891095.79246  24323877.0284   24323871.6034
     -3554.6564
  -1637696.38149  -1267927.37947  20954655.5364   20954649.8534
       258.0474
 04  9 16 15 32  0.0010000  0  6G 1G11G14G20G22G25
  -1839745.84749  -1426613.29747  21221608.1774   21221603.2904
       557.4064
     84581.58949     66880.87547  21571936.7554   21571930.7124
      -698.0314
   5916424.16049   4585950.48447  22475426.7784   22475420.6184
     -3321.5784
  -4221423.36549  -3277843.78547  23209794.7634   23209788.6104
      2099.1094
   6367413.78149   4932664.44446  24334029.1144   24334022.7594
     -3558.1094
  -1641493.12249  -1270885.86947  20953933.1774   20953927.1494
       248.2814
 04  9 16 15 32 15.0010000  0  6G 1G11G14G20G22G25
  -1848063.64849  -1433094.70247  21220025.5284   21220020.2084
       551.5314
     95126.84149     75097.94347  21573943.3884   21573937.3844
      -708.0314
   5966267.29449   4624789.26247  22484911.3724   22484905.3724
     -3324.2344
  -4252894.80749  -3302366.97847  23203805.9744   23203799.9584
      2097.0474
   6420808.30749   4974270.51646  24344187.7084   24344184.1814
     -3561.3284
  -1645146.69449  -1273732.80447  20953238.0754   20953232.7124
       238.7814
 04  9 16 15 32 30.0010000  0  6G 1G11G14G20G22G25
  -1856294.23349  -1439508.13947  21218459.2314   21218454.0364
       545.7034
    105821.08349     83431.11747  21575978.5914   21575972.3414
      -718.0314
   6016150.25749   4663659.08647  22494403.5134   22494397.8134
     -3326.9224
  -4284336.14449  -3326866.71847  23197822.4424   23197816.7004
      2095.0474
   6474249.00749   5015912.55446  24354358.9894   24354352.5604
     -3564.3754
  -1648658.69149  -1276469.42247  20952569.7004   20952564.0284
       229.2814
 04  9 16 15 32 45.0010000  0  6G 1G11G14G20G22G25
  -1864438.28549  -1445854.14047  21216909.4744   21216904.4234
       540.2974
    116663.52649     91879.76247  21578041.4974   21578035.3724
      -727.5624
   6066072.21749   4702559.28847  22503903.4274   22503897.3924
     -3329.2344
  -4315747.87849  -3351343.38947  23191845.4114   23191839.0634
      2093.3594
   6527735.12749   5057589.98346  24364537.1384   24364531.3334
     -3567.0784
  -1652029.68649  -1279096.16648  20951927.9274   20951922.2594
       220.2344
 04  9 16 15 33  0.0010000  0  6G 1G11G14G20G22G25
  -1872497.19849  -1452133.81547  21215375.9274   21215371.0794
       534.4384
    127652.88349    100442.89547  21580132.7314   21580126.2904
      -737.4694
   6116031.72049   4741488.77047  22513410.5914   22513404.3804
     -3331.9224
  -4347131.14049  -3375797.87147  23185873.1464   23185867.4784
      2091.3284
   6581265.46649   5099301.92446  24374723.1534   24374717.5604
     -3570.1724
  -1655260.85549  -1281613.95147  20951313.0134   20951307.3214
       210.6724
 04  9 16 15 33 15.0010000  0  6G 1G11G14G20G22G25
  -1880460.52549  -1458338.99047  21213860.5834   21213855.2204
       527.9534
    138799.58649    109128.61347  21582253.9744   21582247.6814
      -748.0314
   6166039.08449   4780455.52447  22522926.5994   22522920.7904
     -3335.1094
  -4378475.34149  -3400221.92647  23179908.6144   23179902.4744
      2088.6094
   6634850.24049   5141056.25946  24384921.0994   24384914.1884
     -3573.7974
  -1658341.65949  -1284014.57747  20950727.1924   20950721.6384
       200.6254
 04  9 16 15 33 30.0010000  0  5G 1G11G14G20G25
  -1888335.87849  -1464475.62747  21212361.6144   21212356.3764
       521.7194
    150096.11549    117931.09447  21584403.7244   21584397.0634
      -758.4224
   6216086.49949   4819453.48947  22532450.3024   22532444.1344
     -3338.1874
  -4409787.92249  -3424621.35347  23173950.3174   23173944.5404
      2086.0784
  -1661279.49149  -1286303.79648  20950168.0834   20950161.9784
       190.7504
 04  9 16 15 33 45.0010000  0  5G 1G11G14G20G25
  -1896125.74049  -1470545.65347  21210879.7864   21210874.6494
       516.6094
    161540.04049    126848.43547  21586581.4354   21586575.5214
      -767.6254
   6266171.41949   4858480.68147  22541981.3334   22541975.4384
     -3340.0624
  -4441071.06849  -3448997.81647  23167997.0134   23167990.9814
      2084.7974
  -1664077.00649  -1288483.66648  20949635.5214   20949630.3884
       182.0004
 04  9 16 15 34  0.0010000  0  5G 1G11G14G20G25
  -1903829.38549  -1476548.49147  21209414.0444   21209408.7594
       510.5784
    173132.04149    135881.15347  21588787.4114   21588780.6184
      -777.8284
   6316294.34849   4897537.48947  22551519.1774   22551513.2594
     -3342.8594
  -4472323.94249  -3473350.67147  23162049.5214   23162043.4034
      2082.3914
  -1666733.31649  -1290553.52847  20949129.8804   20949124.4504
       172.2814
 04  9 16 15 34 15.0010000  0  5G 1G11G14G20G25
  -1911445.19549  -1482482.88347  21207964.5604   21207959.0874
       504.7664
    184873.74049    145030.53047  21591021.8254   21591015.7864
      -787.7974
   6366456.76949   4936625.08647  22561064.7004   22561058.6774
     -3345.5004
  -4503544.71749  -3497678.56047  23156108.7474   23156102.8924
      2080.2814
  -1669246.52749  -1292511.85948  20948651.9664   20948646.0284
       162.7344
 04  9 16 15 34 30.0010000  0  5G 1G11G14G20G25
  -1918973.36649  -1488348.98847  21206532.0834   21206526.7084
       499.1414
    196764.93049    154296.36747  21593284.5524   21593278.0524
      -797.5474
   6416658.47549   4975743.27347  22570617.7864   22570611.6574
     -3347.9064
  -4534733.35249  -3521981.38247  23150173.6144   23150167.6654
      2078.2664
  -1671616.81149  -1294358.83948  20948201.0364   20948194.9704
       153.3754
 04  9 16 15 34 45.0010000  0  5G 1G11G14G20G25
  -1926415.75149  -1494148.23447  21205115.7474   21205110.5284
       493.4064
    208803.89049    163677.38147  21595575.4814   21595569.0524
      -807.3914
   6466897.34849   5014890.44347  22580178.1774   22580172.4274
     -3350.3914
  -4565891.55449  -3546260.50247  23144244.6304   23144238.9274
      2076.2034
  -1673845.97649  -1296095.85248  20947776.5134   20947771.2044
       144.0314
 04  9 16 15 35  0.0010000  0  5G 1G11G14G20G25
  -1933770.33549  -1499879.08547  21203716.0284   21203710.8454
       487.2974
    220992.62149    173175.07047  21597894.7714   21597888.6654
      -817.6414
   6517175.43249   5054068.13747  22589745.3564   22589739.7164
     -3353.2504
  -4597017.00049  -3570514.10247  23138321.2004   23138315.1384
      2073.8284
  -1675931.86349  -1297721.21548  20947379.9354   20947374.0754
       134.2344
 04  9 16 15 35 15.0010000  0  5G 1G11G14G20G25
  -1941037.26249  -1505541.62048  21202333.3964   21202328.2244
       481.6724
    233330.98849    182789.38847  21600242.8884   21600236.5404
      -827.5314
   6567492.36749   5093276.12847  22599320.7084   22599314.4354
     -3355.6874
  -4628109.73949  -3594742.20447  23132404.7004   23132398.9154
      2071.8754
  -1677874.55249  -1299234.98248  20947009.9894   20947004.6534
       124.9384
 04  9 16 15 35 30.0010000  0  5G 1G11G14G20G25
  -1948221.42249  -1511139.65747  21200966.3494   21200960.8534
       475.9384
    245814.16549    192516.52347  21602618.4974   21602611.9384
      -837.3124
   6617843.17249   5132510.50747  22608902.3884   22608895.8534
     -3358.1254
  -4659174.33149  -3618948.37847  23126492.9274   23126487.1034
      2069.7814
  -1679678.75249  -1300640.86047  20946666.7004   20946661.0134
       115.4224
 04  9 16 15 35 45.0010000  0  5G 1G11G14G20G25
  -1955319.88649  -1516670.92547  21199615.8104   21199610.3214
       470.4224
    258445.03949    202358.75047  21605021.8564   21605015.0244
      -846.9374
   6668230.61449   5171773.42747  22618490.4114   22618484.7164
     -3360.2974
  -4690207.64249  -3643130.15247  23120587.9034   23120581.9784
      2067.9534
  -1681341.44349  -1301936.46248  20946350.4584   20946344.6924
       106.2814
 04  9 16 15 36  0.0010000  0  5G 1G11G14G20G25
  -1962334.88949  -1522137.16147  21198280.4974   21198275.1224
       464.6254
    271221.38749    212314.34647  21607453.1464   21607447.0834
      -856.8914
   6718652.38449   5211063.12247  22628085.6924   22628079.6184
     -3362.8284
  -4721211.78349  -3667289.23147  23114688.4814   23114681.8994
      2065.7034
  -1682864.74549  -1303123.44148  20946060.2634   20946054.8924
        96.6254
 04  9 16 15 36 15.0010000  0  5G 1G11G14G20G25
  -1969263.14549  -1527535.79647  21196962.0134   21196956.5524
       458.9224
    284146.61049    222385.92547  21609912.6924   21609906.2554
      -866.7344
   6769111.66249   5250381.99747  22637687.5754   22637681.3214
     -3365.2664
  -4752183.23149  -3691422.82047  23108794.8564   23108788.4074
      2063.6094
  -1684245.25049  -1304199.16248  20945797.6614   20945792.2674
        87.2194
 04  9 16 15 36 30.0010000  0  5G 1G11G14G20G25
  -1976105.09049  -1532867.17947  21195660.1694   21195654.9154
       453.0784
    297220.24249    232573.16947  21612400.5604   21612394.1574
      -876.6414
   6819607.94249   5289729.74847  22647296.9974   22647290.7594
     -3367.8444
  -4783122.25849  -3715531.13547  23102906.7554   23102900.9894
      2061.3284
  -1685483.46549  -1305163.99948  20945562.1614   20945556.4664
        77.5784
 04  9 16 15 36 45.0010000  0  5G 1G11G14G20G25
  -1982862.28949  -1538132.52747  21194374.4744   21194368.7674
       447.7814
    310440.68949    242874.81347  21614916.1774   21614909.8294
      -886.1724
   6870139.42349   5329104.92047  22656912.4664   22656906.6064
     -3369.8754
  -4814030.19449  -3739615.22547  23097025.2004   23097018.9744
      2059.5784
  -1686580.81449  -1306019.06948  20945353.2474   20945347.7634
        68.5474
 04  9 16 15 37  0.0010000  0  5G 1G11G14G20G25
  -1989535.21549  -1543332.20747  21193104.6614   21193099.2944
       442.0474
    323807.54649    253290.54247  21617460.1144   21617453.5794
      -896.0314
   6920705.55249   5368507.05747  22666535.0524   22666528.8724
     -3372.1724
  -4844907.27649  -3763675.28747  23091149.8494   23091143.7944
      2057.5004
  -1687537.56849  -1306764.60048  20945170.9034   20945165.2314
        59.1254
 04  9 16 15 37 15.0010000  0  5G 1G11G14G20G25
  -1996122.33749  -1548465.02247  21191851.2164   21191845.1534
       436.6414
    337322.30749    263821.50347  21620031.9664   21620025.4584
      -905.5164
   6971307.69849   5407937.27947  22676164.4814   22676158.4974
     -3374.3284
  -4875751.73749  -3787709.94147  23085280.6774   23085273.8414
      2055.6564
  -1688352.22849  -1307399.39547  20945016.3964   20945010.4114
        49.8914
 04  9 16 15 37 30.0010000  0  5G 1G11G14G20G25
  -2002624.89349  -1553531.94247  21190613.3564   21190607.9154
       430.5784
    350983.78949    274466.80747  21622631.3254   21622625.1344
      -915.7814
   7021944.57349   5447394.56347  22685800.3414   22685793.8564
     -3377.1874
  -4906564.60649  -3811719.96847  23079416.7784   23079410.6924
      2053.0004
  -1689025.67349  -1307924.15048  20944887.9584   20944882.7124
        40.0944
 04  9 16 15 37 45.0010000  0  5G 1G11G14G20G25
  -2009038.48349  -1558529.54747  21189393.1224   21189387.8134
       424.6094
    364796.37449    285229.84347  21625260.2554   21625253.9974
      -925.9064
   7072620.30249   5486882.12747  22695444.1694   22695437.7554
     -3379.6724
  -4937341.37149  -3835701.85547  23073559.9504   23073553.9664
      2050.6094
  -1689553.57749  -1308335.50648  20944787.7394   20944781.9664
        30.3444
 04  9 16 15 38  0.0010000  0  5G 1G11G14G20G25
  -2015369.09549  -1563462.48847  21188188.3964   21188182.9814
       419.0314
    378754.07349    296105.96747  21627915.9894   21627909.6424
      -935.5944
   7123328.92049   5526395.32747  22705093.2394   22705086.8454
     -3381.9064
  -4968087.72449  -3859660.04247  23067709.0444   23067702.5874
      2048.4694
  -1689941.86849  -1308638.05748  20944713.9034   20944708.3254
        20.9384
 04  9 16 15 38 15.0010000  0  5G 1G11G14G20G25
  -2021612.03649  -1568327.11047  21187000.2394   21186994.6224
       413.3594
    392861.68549    307098.90347  21630600.4034   21630594.0364
      -945.4374
   7174075.06049   5565937.76347  22714749.9504   22714743.8994
     -3384.2344
  -4998798.75249  -3883590.70347  23061864.7084   23061858.4664
      2046.3444
  -1690185.75249  -1308828.09247  20944667.3884   20944661.6654
        11.5314
 04  9 16 15 38 30.0010000  0  6G 1G11G14G23G20G25
  -2027773.52549  -1573128.26647  21185827.7784   21185822.5754
       407.8444
    407112.96549    318203.79347  21633312.2944   21633305.7434
      -955.1094
   7224852.33349   5605504.45547  22724412.5214   22724406.3844
     -3386.4064
    -64522.51759    -44829.40156  24372296.9664   24372289.2044
      2100.0784
  -5029480.41649  -3907498.50547  23056026.6304   23056020.3534
      2044.2504
  -1690291.28749  -1308910.32248  20944647.1614   20944641.6774
         2.1884
 04  9 16 15 38 45.0010000  0  6G 1G11G14G23G20G25
  -2033853.89049  -1577866.21847  21184670.9274   21184665.6344
       402.3134
    421507.59649    329420.38447  21636052.1614   21636045.3174
      -964.7814
   7275660.36049   5645095.10447  22734081.0284   22734075.1184
     -3388.5474
    -96008.87649    -69364.23946  24366304.3334   24366298.0714
      2097.5784
  -5060132.85249  -3931383.50247  23050193.0134   23050187.4854
      2042.1884
  -1690258.71949  -1308884.94947  20944652.9504   20944647.6854
        -7.1094
 04  9 16 15 39  0.0010000  0  6G 1G11G14G23G20G25
  -2039850.03549  -1582538.52047  21183529.6064   21183524.6814
       397.3914
    436048.58249    340751.00347  21638818.8804   21638812.2744
      -973.8444
   7326502.09149   5684712.01447  22743755.5754   22743750.1304
     -3390.1094
   -127454.28949    -93867.13046  24360322.0134   24360314.6424
      2095.3284
  -5090752.73049  -3955243.13847  23044366.4744   23044360.5954
      2040.6884
  -1690084.85949  -1308749.46248  20944686.4424   20944680.5364
       -15.8284
 04  9 16 15 39 15.0010000  0  6G 1G11G14G23G20G25
  -2045763.13049  -1587146.13447  21182404.6854   21182399.4544
       391.6884
    450734.80649    352194.80747  21641613.8414   21641606.8454
      -983.7034
   7377376.19749   5724354.16747  22753436.5834   22753430.6264
     -3392.4694
   -158859.94949   -118338.97546  24354344.9744   24354338.1034
      2092.5634
  -5121341.07349  -3979078.20347  23038545.5994   23038539.6034
      2038.3914
  -1689770.83449  -1308504.76748  20944746.2244   20944740.2044
       -25.3124
 04  9 16 15 39 30.0010000  0  6G 1G11G14G23G20G25
  -2051591.58749  -1591687.78247  21181295.4424   21181290.0244
       385.4384
    465567.90249    363753.06347  21644436.1064   21644429.5214
      -994.0784
   7428284.21749   5764022.73647  22763124.3494   22763118.4424
     -3395.3284
   -190224.02349   -142778.50246  24348376.4034   24348369.0324
      2089.2034
  -5151895.92349  -4002887.18947  23032731.4744   23032725.7714
      2035.5944
  -1689314.94249  -1308149.51448  20944832.6144   20944826.8724
       -35.4064
 04  9 16 15 39 45.0010000  0  6G 1G11G14G23G20G25
  -2057331.88149  -1596160.73647  21180203.3104   21180198.1494
       379.7814
    480551.29249    375428.42047  21647287.6924   21647281.2434
     -1003.8754
   7479229.51249   5803720.35547  22772819.1064   22772813.1184
     -3397.5624
   -221543.15749   -167183.01046  24342416.7784   24342409.6574
      2086.5004
  -5182413.73149  -4026667.28047  23026924.1694   23026918.1734
      2033.3134
  -1688713.68949  -1307681.01048  20944947.4034   20944941.5794
       -44.9064
 04  9 16 15 40  0.0010000  0  6G 1G11G14G23G20G25
  -2062985.68349  -1600566.28947  21179127.0444   21179121.7744
       374.2034
    495683.43849    387219.69847  21650167.1384   21650160.2864
     -1013.6414
   7530210.27249   5843445.61547  22782520.1924   22782514.2674
     -3399.7344
   -252818.73549   -191553.56846  24336464.7714   24336457.6694
      2083.7664
  -5212895.86549  -4050419.58147  23021123.3964   23021117.7634
      2031.0634
  -1687968.63149  -1307100.43847  20945089.1464   20945083.4114
       -54.3124
 04  9 16 15 40 15.0010000  0  6G 1G11G14G23G20G25
  -2068557.30549  -1604907.81547  21178066.9114   21178061.5094
       368.6884
    510959.88549    399123.41547  21653074.1534   21653067.6964
     -1023.2344
   7581222.04749   5883195.00847  22792227.5054   22792221.1614
     -3401.8124
   -284055.02049   -215893.58346  24330521.0524   24330513.3494
      2081.1414
  -5243346.45749  -4074147.32047  23015328.7474   23015323.0794
      2028.9224
  -1687083.98849  -1306411.11448  20945257.5754   20945252.0994
       -63.6874
 04  9 16 15 40 30.0010000  0  6G 1G11G14G23G20G25
  -2074042.97149  -1609182.35747  21177023.3174   21177017.6264
       362.8444
    526384.48849    411142.57447  21656009.0994   21656002.9114
     -1033.2664
   7632268.69049   5922971.60447  22801941.6304   22801935.8134
     -3404.2974
   -315247.97149   -240199.79346  24324586.1064   24324577.7904
      2078.0634
  -5273761.37949  -4097847.23347  23009541.0994   23009535.1964
      2026.4064
  -1686055.80549  -1305609.92647  20945452.9194   20945447.2164
       -73.3594
 04  9 16 15 40 45.0010000  0  6G 1G11G14G23G20G25
  -2079444.02949  -1613390.95948  21175995.1694   21175990.0484
       357.5314
    541955.99449    423276.21447  21658972.1304   21658966.1464
     -1042.7504
   7683348.78149   5962774.24647  22811661.2474   22811655.5834
     -3406.2344
   -346399.09749   -264473.37946  24318657.5994   24318649.7284
      2075.4384
  -5304141.77149  -4121520.26347  23003759.9894   23003753.9384
      2024.4844
  -1684885.20349  -1304697.75348  20945676.1224   20945669.9934
       -82.5944
 04  9 16 15 41  0.0010000  0  6G 1G11G14G23G20G25
  -2084763.03449  -1617535.65247  21174983.1064   21174978.0994
       352.0634
    557671.86649    435522.33847  21661962.8414   21661956.3334
     -1052.2974
   7734459.63949   6002600.87247  22821388.0134   22821382.0134
     -3408.2034
   -377510.60849   -288716.06446  24312736.1384   24312729.6534
      2072.9844
  -5334489.95249  -4145168.20047  22997984.8804   22997978.8844
      2022.4224
  -1683574.75849  -1303676.62548  20945925.1614   20945919.5714
       -91.7664
 04  9 16 15 41 15.0010000  0  6G 1G11G14G23G20G25
  -2089997.88649  -1621614.76147  21173986.7864   21173981.8174
       345.8594
    573534.17049    447882.54947  21664981.1224   21664975.0604
     -1062.6564
   7785603.15549   6042452.95647  22831119.9814   22831114.0604
     -3410.9064
   -408580.35849   -312926.27446  24306824.5994   24306816.8994
      2069.6564
  -5364803.53149  -4168789.15347  22992216.3024   22992210.4664
      2019.5004
  -1682122.22149  -1302544.77848  20946201.5134   20946195.8064
      -101.9224
 04  9 16 15 41 30.0010000  0  6G 1G11G14G23G20G25
  -2095152.30649  -1625631.18047  21173005.8564   21173000.7714
       341.1884
    589539.16949    460353.98447  21668027.2714   21668020.6574
     -1071.5004
   7836775.50349   6082327.49947  22840857.9194   22840852.2084
     -3412.2504
   -439611.99149   -337106.78346  24300919.3254   24300911.4744
      2067.7034
  -5395086.08949  -4192385.96547  22986453.5364   22986448.0564
      2017.9384
  -1680531.32749  -1301305.11348  20946504.3174   20946498.7864
      -110.4694
 04  9 16 15 41 45.0010000  0  6G 1G11G14G23G20G25
  -2100222.80549  -1629582.22147  21172041.0834   21172035.9504
       335.2814
    605690.26349    472939.23747  21671100.6774   21671094.2124
     -1081.6564
   7887980.04749   6122227.10047  22850601.6384   22850595.7594
     -3414.7034
   -470601.95749   -361254.83946  24295022.7944   24295014.1924
      2064.6724
  -5425334.10349  -4215955.83347  22980697.4424   22980691.9424
      2015.3754
  -1678798.54349  -1299954.89247  20946834.0134   20946828.2244
      -120.2504
 04  9 16 15 42  0.0010000  0  6G 1G11G14G23G20G25
  -2105206.32049  -1633465.47348  21171092.8174   21171087.4544
       329.5164
    621990.46549    485640.69247  21674202.6854   21674196.3964
     -1091.4534
   7939219.75349   6162154.14447  22860352.0604   22860346.4624
     -3417.0004
   -501547.12049   -385367.87846  24289133.3564   24289125.6064
      2061.7504
  -5455544.24249  -4239496.18547  22974948.7164   22974943.2634
      2012.9064
  -1676920.86949  -1298491.76847  20947191.8254   20947185.5564
      -129.7974
 04  9 16 15 42 15.0010000  0  6G 1G11G14G23G20G25
  -2110108.98149  -1637285.71847  21170160.0364   21170154.7824
       324.2034
    638433.72249    498453.60647  21677331.5214   21677325.1574
     -1100.8914
   7990488.39649   6202103.71647  22870108.5444   22870102.7124
     -3418.8124
   -532453.44549   -409450.74346  24283252.2634   24283244.9074
      2059.1884
  -5485722.18749  -4263011.44547  22969206.5444   22969201.0364
      2010.8754
  -1674904.34049  -1296920.44048  20947575.0994   20947569.3494
      -139.0164
 04  9 16 15 42 30.0010000  0  6G 1G11G14G23G20G25
  -2114930.51149  -1641042.76147  21169242.1144   21169236.7554
       318.3754
    655020.39849    511378.28247  21680487.9354   21680481.0634
     -1110.9694
   8041786.22349   6242076.02747  22879870.2394   22879864.4814
     -3421.2664
   -563320.54149   -433503.04546  24277378.5524   24277370.6144
      2056.0164
  -5515867.43849  -4286501.24447  22963470.1464   22963464.2004
      2008.1254
  -1672748.49649  -1295240.56248  20947985.4424   20947979.6694
      -148.8594
 04  9 16 15 42 45.0010000  0  6G 1G11G14G23G20G25
  -2119667.35549  -1644733.79847  21168341.0914   21168335.5174
       312.9384
    671753.81549    524417.30047  21683671.9424   21683665.5484
     -1120.4844
   8093116.57549   6282073.68847  22889637.8724   22889631.8844
     -3423.1564
   -594144.80049   -457521.91946  24271513.5444   24271505.6734
      2053.4534
  -5545976.31149  -4309962.69547  22957740.2784   22957734.7984
      2005.9694
  -1670449.74349  -1293449.31848  20948422.9504   20948417.1144
      -158.0944
 04  9 16 15 43  0.0010000  0  6G 1G11G14G23G20G25
  -2124318.85849  -1648358.33847  21167455.9664   21167450.2824
       307.4064
    688634.77049    537571.28447  21686884.3644   21686877.6344
     -1130.1874
   8144480.08149   6322097.20147  22899411.7944   22899406.1854
     -3425.2194
   -624925.50049   -481506.87846  24265655.3804   24265647.9234
      2050.7814
  -5576047.94149  -4333395.13847  22952018.0054   22952011.4544
      2003.6884
  -1668007.31349  -1291546.12347  20948887.4744   20948881.5874
      -167.5004
 04  9 16 15 43 15.0010000  0  6G 1G11G14G23G20G25
  -2128888.11249  -1651918.78048  21166586.0214   21166581.1034
       301.9534
    705660.09049    550837.75247  21690124.2164   21690117.8764
     -1139.7504
   8195873.45049   6362143.95747  22909191.4114   22909186.2474
     -3427.1724
   -655665.52749   -505460.15746  24259806.1614   24259798.0174
      2048.0474
  -5606085.05149  -4356800.67747  22946302.1064   22946295.9584
      2001.3914
  -1665424.16849  -1289533.27848  20949378.8414   20949372.9664
      -176.8444
 04  9 16 15 43 30.0010000  0  6G 1G11G14G23G20G25
  -2133375.05649  -1655415.10748  21165732.5284   21165727.3024
       296.0474
    722829.81449    564216.75347  21693391.6464   21693384.9384
     -1149.8284
   8247296.78549   6402214.07147  22918977.2634   22918971.1694
     -3429.5474
   -686364.80749   -529381.62046  24253963.3494   24253956.5244
      2044.7814
  -5636087.47749  -4380179.16347  22940592.5994   22940586.9974
      1998.7194
  -1662700.16549  -1287410.68548  20949897.4894   20949891.7044
      -186.6094
 04  9 16 15 43 45.0010000  0  6G 1G11G14G23G20G25
  -2137777.43049  -1658845.52148  21164894.6694   21164889.4274
       290.9694
    740146.26349    577710.08347  21696686.7634   21696680.4744
     -1159.0314
   8298752.21749   6442309.19847  22928768.9584   22928763.2744
     -3431.1564
   -717020.94949   -553269.54246  24248129.9744   24248122.3644
      2042.6094
  -5666052.61949  -4403528.63047  22934890.3104   22934884.6064
      1996.6564
  -1659833.01949  -1285176.52948  20950443.1464   20950437.7084
      -195.6094
 04  9 16 15 44  0.0010000  0  6G 1G11G14G23G20G25
  -2142100.28049  -1662213.97547  21164072.3024   21164066.9114
       285.1094
    757604.37449    591313.78947  21700009.1464   21700002.1854
     -1169.0474
   8350234.62149   6482425.32347  22938565.8644   22938559.6144
     -3433.5784
   -747638.76349   -577127.54046  24242303.4894   24242295.8454
      2039.3914
  -5695985.41849  -4426852.87747  22929194.4664   22929188.8494
      1993.9534
  -1656827.81649  -1282834.81948  20951014.8104   20951009.1614
      -205.4374
 04  9 16 15 44 15.0010000  0  6G 1G11G14G23G20G25
  -2146337.93149  -1665516.03647  21163265.4274   21163260.3174
       280.0634
    775209.67749    605032.19947  21703359.2394   21703352.8414
     -1178.2504
   8401749.52449   6522566.79447  22948368.7164   22948362.6464
     -3435.0164
   -778212.63149   -600951.35746  24236485.3024   24236478.1924
      2037.1414
  -5725879.93049  -4450147.31347  22923505.8414   22923499.8104
      1991.9694
  -1653678.74949  -1280380.99348  20951614.2004   20951608.4544
      -214.4224
 04  9 16 15 44 30.0010000  0  6G 1G11G14G23G20G25
  -2150492.64549  -1668753.47147  21162474.9274   21162469.5564
       274.5004
    792959.95949    618863.58647  21706737.0914   21706730.6304
     -1187.8754
   8453294.62249   6562731.80547  22958177.2474   22958171.7554
     -3437.1094
   -808744.69649   -624742.54246  24230675.6534   24230668.5524
      2034.3134
  -5755738.13749  -4473413.42447  22917824.0364   22917817.7824
      1989.5474
  -1650387.98549  -1277816.74647  20952240.2634   20952234.5174
      -223.8914
 04  9 16 15 44 45.0010000  0  6G 1G11G14G23G20G25
  -2154565.40649  -1671927.04947  21161700.0444   21161694.8414
       269.1724
    810854.18949    632807.13047  21710142.2944   21710135.7394
     -1197.3594
   8504868.77649   6602919.42847  22967991.8174   22967985.7904
     -3438.8284
   -839235.74649   -648501.79646  24224873.4744   24224866.0524
      2031.7344
  -5785560.84149  -4496651.89147  22912148.8414   22912143.1774
      1987.3754
  -1646956.46049  -1275142.83248  20952893.1464   20952887.4234
      -233.0474
 04  9 16 15 45  0.0010000  0  6G 1G11G14G23G20G25
  -2158554.46249  -1675035.40748  21160941.1614   21160936.4314
       262.9224
    828894.16049    646864.24847  21713574.7784   21713568.2164
     -1207.7814
   8556473.72849   6643131.04747  22977811.5674   22977806.2634
     -3441.5314
   -869684.04049   -672227.71046  24219078.6614   24219071.7164
      2028.2504
  -5815346.02949  -4519861.12847  22906480.8884   22906474.8064
      1984.2504
  -1643382.32149  -1272357.78747  20953573.4974   20953567.8684
      -243.2344
 04  9 16 15 45 15.0010000  0  6G 1G11G14G23G20G25
  -2162461.83149  -1678080.10647  21160197.5914   21160192.7824
       258.1564
    847077.70649    661033.22947  21717035.3494   21717028.8454
     -1216.6414
   8608107.26549   6683364.94947  22987637.1924   22987631.2744
     -3442.8754
   -900091.41049   -695921.74446  24213292.7314   24213285.5754
      2026.1414
  -5845095.51949  -4543042.53447  22900819.7714   22900814.1064
      1982.5004
  -1639667.56449  -1269463.15447  20954280.3334   20954274.7554
      -251.9844
 04  9 16 15 45 30.0010000  0  6G 1G11G14G23G20G25
  -2166289.34349  -1681062.57247  21159469.1854   21159463.9584
       252.3284
    865403.08949    675312.74147  21720522.6774   21720515.8254
     -1226.6094
   8659767.49749   6723619.67447  22997467.8804   22997462.4814
     -3445.0624
   -930459.70849   -719585.34146  24207513.7714   24207506.3214
      2023.0634
  -5874810.74349  -4566197.26847  22895164.7864   22895159.1304
      1979.7034
  -1635813.96149  -1266460.33747  20955013.6924   20955007.8964
      -261.7194
 04  9 16 15 45 45.0010000  0  6G 1G11G14G23G20G25
  -2170032.99849  -1683979.71147  21158756.6614   21158751.4744
       246.7814
    883874.33349    689705.90047  21724037.2394   21724031.2204
     -1236.3284
   8711458.40249   6763898.28447  23007304.4034   23007298.6694
     -3447.1254
   -960784.67549   -743215.15646  24201743.3334   24201736.0794
      2020.2344
  -5904487.56149  -4589322.05947  22889517.7554   22889512.1344
      1977.1724
  -1631817.33249  -1263346.08448  20955774.5604   20955767.9314
      -271.2504
 04  9 16 15 46  0.0010000  0  6G 1G11G14G23G20G25
  -2173697.59949  -1686835.23647  21158059.8104   21158053.9894
       241.7814
    902486.65349    704209.00547  21727579.2244   21727572.8494
     -1245.4374
   8763175.02049   6804196.93147  23017145.2944   23017139.9274
     -3448.5474
   -991071.07749   -766814.92446  24195979.4424   24195972.3294
      2017.8914
  -5934130.46449  -4612420.41447  22883877.1924   22883870.9784
      1975.1414
  -1627682.54249  -1260124.16748  20956561.2784   20956555.1734
      -280.0784
 04  9 16 15 46 15.0010000  0  6G 1G11G14G23G20G25
  -2177281.38049  -1689627.79947  21157377.2394   21157372.1614
       236.4064
    921241.75049    718823.36547  21731147.7784   21731141.7904
     -1254.9064
   8814919.04449   6844516.91447  23026992.4974   23026986.4504
     -3450.3284
  -1021317.00349   -790383.14846  24190223.5054   24190216.9704
      2015.2194
  -5963737.47149  -4635490.80447  22878243.0674   22878237.1654
      1972.7504
  -1623407.69549  -1256793.10347  20957374.6854   20957369.2084
      -289.4224
 04  9 16 15 46 30.0010000  0  6G 1G11G14G23G20G25
  -2180781.79049  -1692355.38448  21156711.1924   21156705.7314
       230.9534
    940142.03249    733550.83847  21734744.9814   21734738.7124
     -1264.4844
   8866692.97149   6884860.20547  23036845.0754   23036838.5994
     -3452.2664
  -1051519.81349   -813917.77946  24184476.5914   24184469.6694
      2012.5474
  -5993305.83849  -4658531.08847  22872616.2944   22872610.6034
      1970.2974
  -1618990.31749  -1253350.98648  20958215.3334   20958209.7004
      -298.8444
 04  9 16 15 46 45.0010000  0  6G 1G11G14G23G20G25
  -2184198.27149  -1695017.57048  21156061.0524   21156056.1184
       224.7974
    959188.09549    748391.92047  21738369.1224   21738362.7204
     -1274.8284
   8918497.22649   6925227.14747  23046703.0054   23046696.7984
     -3454.8754
  -1081678.86949   -837418.32746  24178737.1774   24178730.2674
      2008.9064
  -6022834.77649  -4681540.64247  22866997.1534   22866990.6654
      1967.0944
  -1614429.72349  -1249797.27848  20959082.9974   20959077.4894
      -309.0004
 04  9 16 15 47  0.0010000  0  6G 1G11G14G23G20G25
  -2187533.10449  -1697616.13947  21155426.7784   21155421.8104
       219.5784
    978377.70749    763344.85547  21742020.8804   21742014.7984
     -1284.0944
   8970329.52049   6965615.93047  23056565.9034   23056559.6104
     -3456.4534
  -1111796.31949   -860886.43946  24173006.5214   24172999.1034
      2006.4534
  -6052326.22349  -4704520.97847  22861385.1464   22861379.0794
      1964.8284
  -1609728.23549  -1246133.78547  20959978.0134   20959972.3214
      -318.1414
 04  9 16 15 47 15.0010000  0  6G 1G11G14G23G20G25
  -2190788.29149  -1700152.64447  21154807.0524   21154801.6464
       214.3134
    997708.75749    778408.00847  21745699.2314   21745693.0014
     -1293.4224
   9022187.66249   7006024.86147  23066434.2554   23066428.7944
     -3458.1254
  -1141874.17649   -884323.71146  24167283.3964   24167275.8644
      2003.8284
  -6081782.02249  -4727473.54547  22855779.8644   22855773.6964
      1962.5314
  -1604887.62549  -1242361.87848  20960899.1144   20960893.0054
      -327.3444
 04  9 16 15 47 30.0010000  0  6G 1G11G14G23G20G25
  -2193960.48249  -1702624.47248  21154203.4354   21154198.1534
       208.8444
   1017184.50649    793583.90147  21749405.3804   21749399.1694
     -1303.1094
   9074074.95549   7046456.50547  23076308.0214   23076302.2554
     -3460.0624
  -1171908.88449   -907727.33946  24161567.5994   24161560.3764
      2001.0004
  -6111198.62949  -4750395.56547  22850181.7714   22850175.9934
      1959.9224
  -1599904.55149  -1238478.95547  20961847.0214   20961841.4074
      -336.8444
 04  9 16 15 47 45.0010000  0  6G 1G11G14G23G20G25
  -2197049.63149  -1705031.61047  21153615.6614   21153610.2824
       203.2974
   1036804.93749    808872.54047  21753139.1694   21753133.0834
     -1312.8444
   9125991.31249   7086910.78647  23086187.7714   23086181.8024
     -3461.9694
  -1201900.27749   -931097.26347  24155860.6224   24155852.8134
      1998.0004
  -6140575.71849  -4773286.81747  22844591.8334   22844585.4074
      1957.1414
  -1594778.92049  -1234484.97147  20962822.4974   20962816.9544
      -346.5004
 04  9 16 15 48  0.0010000  0  6G 1G11G14G23G20G25
  -2200057.36849  -1707375.29047  21153043.0674   21153037.8174
       197.9534
   1056568.47349    824272.69347  21756900.0994   21756893.3604
     -1322.1724
   9177935.13549   7127386.47947  23096072.3254   23096065.8724
     -3463.6414
  -1231849.88649   -954434.60747  24150161.8964   24150154.0994
      1995.3594
  -6169914.61049  -4796148.27347  22839008.8334   22839002.9704
      1954.8444
  -1589512.26049  -1230381.06248  20963824.4354   20963818.9744
      -355.5944
 04  9 16 15 48 15.0010000  0  6G 1G11G14G23G20G25
  -2202985.41849  -1709656.88347  21152485.9814   21152480.8134
       192.4844
   1076473.31549    839782.94247  21760687.8104   21760681.4854
     -1331.7194
   9229904.47149   7167882.04547  23105961.8024   23105955.1694
     -3465.5164
  -1261759.47249   -977740.75946  24144470.0284   24144462.3644
      1992.5634
  -6199216.79649  -4818981.12747  22833432.7634   22833426.8174
      1952.2664
  -1584106.44349  -1226168.74248  20964853.2944   20964847.0404
      -365.0164
 04  9 16 15 48 30.0010000  0  6G 1G11G14G23G20G25
  -2205831.35449  -1711874.49347  21151944.3804   21151938.8924
       186.7664
   1096521.94749    855405.23647  21764502.9814   21764496.5834
     -1341.5944
   9281901.78549   7208399.40847  23115856.7864   23115850.3924
     -3467.5784
  -1291626.41349  -1001013.67747  24138785.4664   24138779.2904
      1989.5634
  -6228479.59049  -4841783.29247  22827864.1924   22827858.0754
      1949.3134
  -1578558.84249  -1221845.93947  20965909.0674   20965902.8604
      -374.7814
 04  9 16 15 48 45.0010000  0  6G 1G11G14G23G20G25
  -2208596.18049  -1714028.89047  21151418.3104   21151413.2124
       181.5004
   1116713.18649    871138.66447  21768344.9274   21768338.8214
     -1350.9374
   9333925.98749   7248937.74347  23125756.3804   23125750.2554
     -3469.3594
  -1321451.54849  -1024254.01646  24133109.9974   24133103.4544
      1986.8754
  -6257703.75349  -4864555.36747  22822303.0444   22822296.6104
      1946.8914
  -1572870.42249  -1217413.40047  20966991.8414   20966986.0524
      -384.0944
 04  9 16 15 49  0.0010000  0  6G 1G11G14G23G20G25
  -2211276.72149  -1716117.62947  21150908.6464   21150902.6774
       176.2034
   1137050.26349    886985.72347  21772215.3024   21772209.0324
     -1360.3444
   9385980.10349   7289499.35147  23135662.1614   23135656.1534
     -3471.0004
  -1351231.65549  -1047459.26246  24127443.6224   24127436.1264
      1984.1884
  -6286885.87649  -4887294.68647  22816749.7864   22816743.3924
      1944.4224
  -1567037.95049  -1212868.61948  20968101.5214   20968095.6884
      -393.3754
 04  9 16 15 49 15.0010000  0  6G 1G11G14G23G20G25
  -2213875.07349  -1718142.32447  21150414.0444   21150408.6884
       170.9534
   1157531.02449    902944.75047  21776112.9894   21776106.4274
     -1369.7344
   9438061.96749   7330082.62247  23145572.6614   23145567.3454
     -3472.5314
  -1380968.65949  -1070630.96046  24121784.9034   24121777.0994
      1981.4534
  -6316027.84549  -4910002.72247  22811204.2394   22811198.0834
      1941.9384
  -1561063.33249  -1208213.06448  20969238.3494   20969232.6224
      -402.5474
 04  9 16 15 49 30.0010000  0  6G 1G11G14G23G20G25
  -2216395.41249  -1720106.21347  21149934.3644   21149929.1184
       165.6254
   1178151.21249    919012.42347  21780036.7394   21780030.0674
     -1379.1564
   9490167.26749   7370684.13647  23155488.1144   23155482.4154
     -3474.3754
  -1410666.71249  -1093772.25846  24116133.1464   24116125.9424
      1978.7194
  -6345133.63649  -4932682.54147  22805665.2554   22805659.7784
      1939.2664
  -1554950.96849  -1203450.18147  20970401.3414   20970395.4384
      -411.9064
 04  9 16 15 49 45.0010000  0  6G 1G11G14G23G20G25
  -2218831.79549  -1722004.68748  21149470.5674   21149465.1924
       159.7034
   1198916.84549    935193.41847  21783988.3414   21783982.1734
     -1389.1414
   9542301.90149   7411308.49847  23165409.1144   23165403.4074
     -3476.5624
  -1440319.79649  -1116878.57546  24110490.9664   24110483.1344
      1975.4064
  -6374197.05349  -4955329.35647  22800134.9584   22800129.2904
      1936.1414
  -1548694.85849  -1198575.28647  20971591.9894   20971586.0134
      -421.8124
 04  9 16 15 50  0.0010000  0  6G 1G11G14G23G20G25
  -2221187.99049  -1723840.67147  21149022.2784   21149016.9114
       154.1724
   1219824.04649    951484.73447  21787966.4354   21787960.2474
     -1398.7814
   9594462.17649   7451952.85347  23175334.7394   23175329.2314
     -3478.3914
  -1469931.49549  -1139952.62546  24104856.0604   24104848.0244
      1972.5634
  -6403221.39649  -4977945.70547  22794611.7314   22794606.1924
      1933.4534
  -1542298.58349  -1193591.17147  20972808.8884   20972803.1184
      -431.2504
 04  9 16 15 50 15.0010000  0  6G 1G11G14G23G20G25
  -2223461.79549  -1725612.47348  21148589.6384   21148584.6224
       148.5784
   1240874.98149    967888.05147  21791972.4814   21791966.1924
     -1408.4534
   9646650.17849   7492618.80147  23185266.2164   23185260.1104
     -3480.3914
  -1499499.50449  -1162992.58546  24099229.2944   24099222.0874
      1969.3914
  -6432204.23849  -5000529.72047  22789096.5364   22789090.5244
      1930.5784
  -1535759.88149  -1188496.07647  20974053.4664   20974047.6964
      -440.9224
 04  9 16 15 50 30.0010000  0  6G 1G11G14G23G20G25
  -2225653.92049  -1727320.62947  21148172.7394   21148167.0364
       143.6414
   1262068.80249    984402.70547  21796005.5914   21795999.2714
     -1417.4694
   9698865.03349   7533305.69847  23195202.3174   23195196.8844
     -3481.7504
  -1529024.47349  -1185999.05246  24093610.5674   24093603.3964
      1967.0784
  -6461146.09349  -5023081.82247  22783588.9424   22783583.6854
      1928.2344
  -1529079.38349  -1183290.49547  20975324.6384   20975318.6854
      -449.9064
 04  9 16 15 50 45.0010000  0  6G 1G11G14G23G20G25
  -2227765.10949  -1728965.71048  21147770.4424   21147764.9074
       138.0004
   1283404.71049   1001028.08047  21800065.7004   21800060.0794
     -1427.1414
   9751105.89149   7574012.82547  23205143.4354   23205137.3334
     -3483.5944
  -1558507.04449  -1208972.46246  24088000.1384   24087992.5604
      1964.0944
  -6490047.52449  -5045602.41547  22778089.2944   22778083.6104
      1925.4384
  -1522258.02249  -1177975.14847  20976622.7164   20976616.9314
      -459.5004
 04  9 16 15 51  0.0010000  0  6G 1G11G14G23G20G25
  -2229794.65249  -1730547.17447  21147384.5214   21147378.9464
       132.2814
   1304883.56149   1017764.82547  21804152.8804   21804146.8804
     -1436.9694
   9803373.53649   7614740.84947  23215089.5524   23215083.9854
     -3485.7194
  -1587946.30649  -1231912.15046  24082398.1614   24082390.5634
      1960.9534
  -6518907.44749  -5068090.66147  22772597.7084   22772591.7004
      1922.3594
  -1515294.85649  -1172549.30347  20977947.8104   20977941.6424
      -469.2194
 04  9 16 15 51 15.0010000  0  6G 1G11G14G23G20G25
  -2231741.21449  -1732063.95748  21147014.2394   21147008.2714
       127.1094
   1326506.61649   1034613.96747  21808267.9354   21808261.7284
     -1446.2814
   9855669.15049   7655490.66747  23225040.6924   23225035.2084
     -3487.1564
  -1617340.91449  -1254817.02446  24076803.9424   24076796.6614
      1958.2344
  -6547724.38149  -5090545.38947  22767113.2864   22767107.8494
      1919.7814
  -1508188.54549  -1167011.90247  20979299.9034   20979294.3414
      -478.4694
 04  9 16 15 51 30.0010000  0  6G 1G11G14G23G20G25
  -2233607.91049  -1733518.53047  21146658.7944   21146653.4504
       121.8594
   1348270.61449   1051572.91847  21812409.4034   21812402.9504
     -1455.5474
   9907989.51849   7696259.76847  23234997.0214   23234991.4424
     -3488.7664
  -1646693.86649  -1277689.39446  24071218.8174   24071211.2044
      1955.5784
  -6576501.07749  -5112968.77547  22761637.9354   22761632.1264
      1917.2194
  -1500942.16849  -1161365.36747  20980678.9504   20980673.2004
      -487.7034
 04  9 16 15 51 45.0010000  0  6G 1G11G14G23G20G25
  -2235397.39949  -1734912.93747  21146318.0524   21146312.5524
       116.6094
   1370172.65249   1068639.42647  21816577.1534   21816570.4934
     -1464.8594
   9960331.82649   7737045.95247  23244957.5054   23244952.0914
     -3490.3124
  -1676007.59849  -1300531.27346  24065641.0214   24065632.8104
      1952.7974
  -6605240.06249  -5135362.80147  22756168.9274   22756163.1034
      1914.5634
  -1493558.46849  -1155611.84548  20982084.1224   20982077.9314
      -496.9064
 04  9 16 15 52  0.0010000  0  6G 1G11G14G23G20G25
  -2237107.41149  -1736245.40248  21145992.6614   21145987.2824
       111.5164
   1392215.21549   1085815.45747  21820771.6464   21820765.5874
     -1474.0314
  10012698.38249   7777851.05147  23254923.0284   23254917.2354
     -3491.7664
  -1705279.87149  -1323340.80246  24060069.6304   24060062.8254
      1950.2194
  -6633938.72549  -5157725.38547  22750707.8104   22750701.8564
      1912.0314
  -1486035.07249  -1149749.44248  20983515.5914   20983510.0404
      -506.0944
 04  9 16 15 52 15.0010000  0  6G 1G11G14G23G20G25
  -2238743.11049  -1737519.95848  21145681.6464   21145676.3964
       106.6094
   1414393.05749   1103096.88047  21824991.6854   21824985.8454
     -1482.9374
  10065083.91449   7818670.95047  23264891.1694   23264885.5134
     -3492.9064
  -1734515.74049  -1346121.95646  24054506.3104   24054499.6304
      1947.9384
  -6662601.94549  -5180060.33947  22745253.7004   22745248.1064
      1909.7344
  -1478377.02749  -1143782.11748  20984972.5134   20984967.3174
      -515.0004
 04  9 16 15 52 30.0010000  0  6G 1G11G14G23G20G25
  -2240297.13649  -1738730.88948  21145386.0524   21145380.7204
       100.6884
   1436713.46149   1120489.38947  21829239.2554   21829233.7354
     -1492.9694
  10117495.76549   7859511.32847  23274864.5444   23274860.1884
     -3495.2504
  -1763707.73349  -1368868.94647  24048951.5054   24048944.3964
      1944.5314
  -6691222.14449  -5202361.78947  22739807.0914   22739801.7124
      1906.3754
  -1470577.02649  -1137704.20248  20986457.2864   20986451.6534
      -524.9534
 04  9 16 15 52 45.0010000  0  6G 1G11G14G23G20G25
  -2241772.80949  -1739880.75548  21145105.2084   21145100.3414
        96.0784
   1459173.06949   1137990.37747  21833513.0604   21833507.4034
     -1501.7344
  10169930.47849   7900369.52547  23284842.8494   23284838.3994
     -3496.0004
  -1792859.09649  -1391584.27647  24043404.4114   24043397.5134
      1942.3754
  -6719802.33149  -5224632.04447  22734368.3174   22734363.2164
      1904.2974
  -1462638.35149  -1131518.21048  20987967.8494   20987962.3374
      -533.5624
 04  9 16 15 53  0.0010000  0  6G 1G11G14G23G20G25
  -2243169.25449  -1740968.89748  21144838.9584   21144834.6184
        90.2034
   1481772.56149   1155600.35847  21837813.6774   21837807.9624
     -1511.5164
  10222388.95149   7941246.24847  23294824.7634   23294820.2164
     -3498.2974
  -1821968.81749  -1414267.11247  24037865.1774   24037858.1654
      1939.0634
  -6748341.43949  -5246870.31447  22728937.7164   22728932.4154
      1901.0004
  -1454560.07649  -1125223.46048  20989505.2004   20989500.2004
      -543.4694
 04  9 16 15 53 15.0010000  0  6G 1G11G14G23G20G25
  -2244485.79749  -1741994.76148  21144588.6694   21144583.9624
        84.6564
   1504512.68149   1173319.92247  21842141.0524   21842135.2944
     -1521.1254
  10274871.72349   7982141.88847  23304812.2554   23304807.8994
     -3500.0784
  -1851036.03249  -1436916.90647  24032333.9354   24032326.4314
      1935.9694
  -6776838.55649  -5269075.84447  22723514.5754   22723509.5364
      1897.9844
  -1446341.53249  -1118819.38348  20991068.8644   20991063.9384
      -553.0474
 04  9 16 15 53 30.0010000  0  6G 1G11G14G23G20G25
  -2245719.69849  -1742956.24548  21144353.8564   21144348.7044
        79.7344
   1527396.10549   1191151.15047  21846495.8564   21846489.9744
     -1530.1094
  10327381.54549   8023058.61747  23314804.6224   23314799.8994
     -3501.2814
  -1880057.96249  -1459531.38247  24026811.3964   24026803.5054
      1933.5634
  -6805290.57349  -5291246.24447  22718100.4504   22718095.0174
      1895.5474
  -1437979.85249  -1112303.79848  20992660.2084   20992654.8334
      -562.0004
 04  9 16 15 53 45.0010000  0  6G 1G11G14G23G20G25
  -2246875.28749  -1743856.69748  21144134.0054   21144129.0524
        74.2814
   1550418.41449   1209090.59347  21850876.5834   21850870.9704
     -1539.5164
  10379914.02749   8063992.98447  23324801.2474   23324796.3174
     -3503.0474
  -1909038.78549  -1482113.84047  24021296.1924   24021288.7004
      1930.6564
  -6833701.64749  -5313384.73847  22712694.2314   22712688.8604
      1892.5784
  -1429479.39949  -1105680.07248  20994277.8174   20994272.6694
      -571.4694
 04  9 16 15 54  0.0010000  0  6G 1G11G14G23G20G25
  -2247950.57349  -1744694.58848  21143929.4664   21143924.2944
        68.9534
   1573581.59649   1227139.82747  21855284.1694   21855279.0444
     -1548.9694
  10432471.01849   8104946.47347  23334802.3964   23334798.0674
     -3504.6564
  -1937976.41249  -1504662.61947  24015789.2784   24015782.3104
      1927.7974
  -6862069.49449  -5335489.54347  22707295.8024   22707290.5834
      1889.7194
  -1420838.10249  -1098946.58648  20995922.0914   20995916.6534
      -580.7814
 04  9 16 15 54 15.0010000  0  6G 1G11G14G23G20G25
  -2248946.09849  -1745470.32048  21143740.0994   21143734.9814
        63.6094
   1596885.08349   1245298.36847  21859719.1694   21859713.4424
     -1558.3124
  10485051.93149   8145918.58947  23344808.4034   23344803.9814
     -3506.1874
  -1966871.31549  -1527178.09147  24010291.1384   24010284.4584
      1924.7974
  -6890394.28149  -5357560.79947  22701905.8724   22701900.5484
      1886.7504
  -1412056.58849  -1092103.84548  20997593.2634   20997587.9504
      -590.2664
 04  9 16 15 54 30.0010000  0  6G 1G11G14G23G20G25
  -2249861.16549  -1746183.34748  21143565.7164   21143561.0324
        58.2504
   1620329.46249   1263566.71947  21864180.6464   21864174.7784
     -1567.8444
  10537657.36049   8186909.81847  23354818.9814   23354813.9504
     -3507.9374
  -1995722.70149  -1549659.68247  24004800.1854   24004794.3024
      1921.8594
  -6918675.15949  -5379597.84047  22696524.4894   22696518.8454
      1883.7974
  -1403134.14249  -1085151.28448  20999291.2784   20999285.9584
      -599.7034
 04  9 16 15 54 45.0010000  0  6G 1G11G14G23G20G25
  -2250694.80649  -1746832.94748  21143407.2634   21143402.5054
        52.8594
   1643915.48249   1281945.42347  21868669.0604   21868663.4854
     -1577.1874
  10590288.26249   8227920.87947  23364834.3334   23364829.3804
     -3509.6414
  -2024529.46749  -1572106.47147  23999318.0524   23999311.9314
      1918.8914
  -6946910.93349  -5401599.74347  22691151.3414   22691145.5094
      1880.8754
  -1394069.77349  -1078088.13148  21001016.3024   21001010.3104
      -609.1094
 04  9 16 15 55  0.0010000  0  6G 1G11G14G23G20G25
  -2251447.72249  -1747419.63648  21143264.1144   21143259.1654
        47.5004
   1667642.46949   1300433.97647  21873184.0604   21873178.2714
     -1586.4694
  10642943.83549   8268951.17947  23374854.8174   23374849.9424
     -3511.1874
  -2053292.30049  -1594519.05147  23993845.6064   23993838.7674
      1916.0784
  -6975101.96249  -5423566.76847  22685786.4744   22685781.1064
      1877.9224
  -1384864.06749  -1070914.86048  21002767.6224   21002762.6384
      -618.4694
 04  9 16 15 55 15.0010000  0  6G 1G11G14G23G20G25
  -2252121.88949  -1747944.95048  21143135.2714   21143130.6104
        42.1564
   1691508.48949   1319030.86847  21877725.2244   21877719.3414
     -1595.7974
  10695622.05149   8309999.11447  23384878.5054   23384873.8724
     -3512.7974
  -2082013.01049  -1616898.78447  23988380.2164   23988373.1694
      1913.1724
  -7003249.93149  -5445500.23647  22680430.0754   22680424.8104
      1874.9534
  -1375518.92449  -1063632.93148  21004546.3104   21004540.8064
      -627.7814
 04  9 16 15 55 30.0010000  0  6G 1G11G14G23G20G25
  -2252714.53649  -1748406.75148  21143022.8494   21143017.5134
        36.9384
   1715516.22949   1337738.18447  21882293.6304   21882288.0994
     -1605.0944
  10748325.63749   8351066.81547  23394907.7944   23394902.9664
     -3514.3284
  -2110688.69349  -1639243.48347  23982922.8024   23982916.5564
      1910.4694
  -7031351.78149  -5467397.76747  22675082.2784   22675076.8494
      1872.0784
  -1366031.70549  -1056240.27948  21006351.4744   21006346.0404
      -637.0624
 04  9 16 15 55 45.0010000  0  6G 1G11G14G23G20G25
  -2253227.80449  -1748806.69548  21142925.3414   21142920.0874
        31.8444
   1739663.42649   1356554.17747  21886888.9034   21886882.7514
     -1614.2034
  10801052.37749   8392152.57647  23404941.0444   23404936.3994
     -3515.6254
  -2139321.29649  -1661554.58047  23977474.9194   23977467.9074
      1907.6884
  -7059409.38549  -5489260.82947  22669743.2084   22669737.7904
      1869.2814
  -1356404.35249  -1048738.44148  21008183.2314   21008178.1494
      -646.2344
 04  9 16 15 56  0.0010000  0  6G 1G11G14G23G20G25
  -2253662.17249  -1749145.15348  21142842.6854   21142838.0674
        26.5164
   1763949.55449   1375478.43047  21891510.6304   21891504.3534
     -1623.4374
  10853801.82849   8433256.02647  23414979.2554   23414974.3214
     -3517.2194
  -2167911.28449  -1683832.47947  23972035.2314   23972027.0994
      1904.8134
  -7087422.95549  -5511089.58747  22664412.6854   22664406.9354
      1866.2504
  -1346637.43249  -1041127.84148  21010042.3564   21010036.4894
      -655.5474
 04  9 16 15 56 15.0010000  0  6G 1G11G14G23G20G25
  -2254017.38649  -1749421.95148  21142774.5834   21142770.1924
        20.5784
   1788374.51449   1394510.85247  21896158.5834   21896152.4744
     -1633.5474
  10906574.16149   8474377.31447  23425021.4114   23425016.4154
     -3519.4534
  -2196458.28949  -1706076.88347  23966602.0674   23966595.6774
      1901.2034
  -7115392.04249  -5532883.65647  22659090.2634   22659084.8804
      1862.6564
  -1336730.75349  -1033408.34848  21011927.2944   21011922.0794
      -665.6254
 04  9 16 15 56 30.0010000  0  6G 1G11G14G23G20G25
  -2254284.80049  -1749630.31448  21142723.9814   21142719.2164
        15.2504
   1812947.23749   1413658.41347  21900834.2394   21900828.8564
     -1642.7974
  10959377.89349   8515523.06147  23435069.9194   23435065.0524
     -3520.9224
  -2224953.64949  -1728281.01547  23961179.6924   23961172.3804
      1898.2194
  -7143307.74749  -5554636.15347  22653777.4814   22653772.4234
      1859.5474
  -1326675.48149  -1025573.07048  21013840.7084   21013835.5874
      -674.9694
 04  9 16 15 56 45.0010000  0  6G 1G11G14G23G20G25
  -2254471.85349  -1749776.07048  21142688.3334   21142683.4034
         9.8754
   1837660.06449   1432915.14947  21905536.9584   21905531.7204
     -1652.1094
  11012205.40649   8556687.32247  23445122.7554   23445117.3764
     -3522.4844
  -2253404.65549  -1750450.64447  23955765.5604   23955758.7744
      1895.3134
  -7171177.23749  -5576352.63247  22648474.2474   22648469.0874
      1856.4694
  -1316479.18949  -1017627.90448  21015781.1924   21015775.8764
      -684.3914
 04  9 16 15 57  0.0010000  0  6G 1G11G14G23G20G25
  -2254576.14549  -1749857.33448  21142668.3254   21142663.7674
         4.4224
   1862515.39749   1452282.93347  21910266.7164   21910261.0054
     -1661.5944
  11065059.23649   8597872.12847  23455180.2784   23455175.1694
     -3524.2814
  -2281808.68949  -1772583.65347  23950360.0284   23950353.2824
      1892.2344
  -7198997.68449  -5598030.90147  22643180.6144   22643175.0994
      1853.2974
  -1306139.38049  -1009570.90348  21017748.4034   21017743.2394
      -693.9224
 04  9 16 15 57 15.0010000  0  6G 1G11G14G23G20G25
  -2254599.87649  -1749875.82748  21142664.4504   21142659.3924
        -1.0164
   1887510.82549   1471759.87648  21915023.7474   21915017.9744
     -1670.9534
  11117937.01549   8639075.55347  23465242.4894   23465237.9074
     -3525.9224
  -2310167.98649  -1794681.77047  23944962.8564   23944956.8294
      1889.2664
  -7226771.15949  -5619672.56647  22637895.6464   22637889.8534
      1850.0784
  -1295658.27349  -1001403.80048  21019743.4274   21019737.7204
      -703.3594
 04  9 16 15 57 30.0010000  0  6G 1G11G14G23G20G25
  -2254540.49849  -1749829.56048  21142675.4424   21142670.3534
        -6.5164
   1912649.00049   1491348.05048  21919806.8964   21919801.3454
     -1680.4534
  11170841.26149   8680299.62447  23475310.0604   23475305.8414
     -3527.6094
  -2338479.87049  -1816742.95347  23939575.1924   23939569.1104
      1886.1414
  -7254494.83649  -5641275.42647  22632619.8644   22632613.9974
      1846.8284
  -1285033.35649   -993124.64748  21021765.1304   21021759.5284
      -712.8754
 04  9 16 15 57 45.0010000  0  6G 1G11G14G23G20G25
  -2254400.94349  -1749720.81048  21142701.5754   21142697.5134
       -12.1564
   1937926.78149   1511045.01548  21924617.1924   21924611.5244
     -1690.0784
  11223768.96749   8721541.99147  23485381.8884   23485377.3604
     -3529.4224
  -2366747.19749  -1838769.41447  23934196.9974   23934189.4504
      1882.8594
  -7282171.33049  -5662841.51647  22627353.0524   22627348.2784
      1843.3444
  -1274267.51349   -984735.66948  21023813.6384   21023808.5284
      -722.5624
 04  9 16 15 58  0.0010000  0  6G 1G11G14G23G20G25
  -2254178.17949  -1749547.21848  21142744.3884   21142739.3134
       -17.5784
   1963346.98149   1530852.95848  21929454.6064   21929449.2354
     -1699.4224
  11276723.14449   8762804.95647  23495459.3644   23495454.1064
     -3531.1254
  -2394966.75549  -1860758.68347  23928827.6384   23928819.2084
      1879.7034
  -7309797.32549  -5684368.26047  22622096.0364   22622090.5054
      1840.1414
  -1263357.75549   -976234.54948  21025889.7004   21025884.5954
      -732.1414
 04  9 16 15 58 15.0010000  0  6G 1G11G14G23G20G25
  -2253871.61049  -1749308.33148  21142802.9744   21142798.0214
       -23.3754
   1988910.41249   1550772.50348  21934319.6614   21934313.6814
     -1709.1564
  11329704.31149   8804088.95047  23505541.1144   23505536.4934
     -3533.1254
  -2423137.88549  -1882710.19347  23923465.9744   23923458.6494
      1876.3134
  -7337371.98049  -5705854.99747  22616848.9194   22616843.0174
      1836.4384
  -1252303.37449   -967620.73948  21027993.2714   21027988.0404
      -741.9374
 04  9 16 15 58 30.0010000  0  6G 1G11G14G23G20G25
  -2253476.64349  -1749000.56848  21142877.7004   21142872.9814
       -29.1414
   2014621.40549   1570807.03147  21939211.8254   21939206.5364
     -1718.7814
  11382716.95449   8845397.50147  23515628.7784   23515624.1614
     -3535.0004
  -2451255.86849  -1904620.27647  23918115.3724   23918108.2244
      1872.9224
  -7364890.43249  -5727297.95047  22611612.0674   22611606.5714
      1832.8914
  -1241099.96149   -958890.79448  21030125.2554   21030119.8964
      -751.6874
 04  9 16 15 58 45.0010000  0  6G 1G11G14G23G20G25
  -2252996.65649  -1748626.55748  21142969.0054   21142964.5954
       -34.9534
   2040476.50649   1590953.84648  21944131.8964   21944126.3764
     -1728.6564
  11435757.64349   8886727.89047  23525721.7634   23525717.2784
     -3537.1094
  -2479323.93149  -1926491.47847  23912774.8334   23912767.2864
      1869.3754
  -7392355.80949  -5748699.52847  22606385.5994   22606379.9544
      1829.1094
  -1229750.76149   -950047.26548  21032284.4814   21032279.2354
      -761.6414
 04  9 16 15 59  0.0010000  0  6G 1G11G14G23G20G25
  -2252430.78549  -1748185.61348  21143076.5054   21143072.3724
       -40.5784
   2066476.59749   1611213.64348  21949079.7314   21949073.5754
     -1738.1724
  11488827.32949   8928080.85147  23535821.1224   23535816.0714
     -3538.8444
  -2507341.24749  -1948323.14747  23907442.7634   23907435.9114
      1866.1564
  -7419766.92049  -5770058.84247  22601169.3494   22601164.1224
      1825.6254
  -1218255.03249   -941089.55448  21034472.5524   21034467.1734
      -771.1724
 04  9 16 15 59 15.0010000  0  6G 1G11G14G23G20G25
  -2251779.72149  -1747678.28148  21143200.7474   21143196.0524
       -46.2034
   2092620.88449   1631585.80447  21954054.7004   21954049.1264
     -1747.7194
  11541925.28249   8969455.87347  23545925.3564   23545920.4624
     -3540.6724
  -2535308.36349  -1970115.68647  23902120.5604   23902113.6694
      1862.8754
  -7447124.16349  -5791376.15947  22595963.5444   22595957.8494
      1822.1414
  -1206613.39749   -932018.14748  21036687.7944   21036682.2514
      -780.9064
 04  9 16 15 59 30.0010000  0  6G 1G11G14G23G20G25
  -2251049.57349  -1747109.33848  21143339.7004   21143334.8024
       -51.7664
   2118903.13849   1652065.46748  21959056.0284   21959050.0404
     -1757.2194
  11595045.25149   9010848.02447  23556033.5134   23556028.6774
     -3542.5474
  -2563231.26549  -1991873.75947  23896806.6694   23896800.0524
      1859.5314
  -7474433.40749  -5812656.08847  22590767.0914   22590761.2204
      1818.5634
  -1194831.89049   -922837.75048  21038929.5444   21038924.5364
      -790.5944
 04  9 16 15 59 45.0010000  0  6G 1G11G14G23G20G25
  -2250230.92749  -1746471.42948  21143495.4974   21143490.6614
       -57.6564
   2145332.67249   1672659.90347  21964085.5214   21964079.7714
     -1767.0624
  11648196.52149   9052264.59347  23566148.0994   23566143.0834
     -3544.5944
  -2591100.26949  -2013589.86747  23891503.5834   23891496.6344
      1856.0004
  -7501684.89749  -5833890.99947  22585581.1224   22585575.4544
      1814.6414
  -1182900.98749   -913540.93448  21041200.3964   21041194.3254
      -800.5004
 04  9 16 16  0  0.0010000  0  6G 1G11G14G23G20G25
  -2249326.95849  -1745767.03548  21143667.6064   21143662.6854
       -63.0164
   2171906.22849   1693366.56348  21969142.2634   21969136.6184
     -1776.2974
  11701375.98249   9093703.10847  23576267.4114   23576262.4074
     -3546.1414
  -2618918.51249  -2035266.40547  23886211.2164   23886202.6694
      1852.9384
  -7528881.55449  -5855083.20647  22580405.6774   22580399.5794
      1811.3594
  -1170823.95449   -904130.25548  21043498.1304   21043492.9314
      -809.9534
 04  9 16 16  0 15.0010000  0  6G 1G11G14G23G20G25
  -2248338.30349  -1744996.63448  21143855.4274   21143850.9624
       -68.6254
   2198623.08449   1714184.87748  21974226.4354   21974220.8414
     -1785.7504
  11754582.94649   9135163.05347  23586392.3644   23586387.9464
     -3547.9374
  -2646686.60949  -2056903.88347  23880926.8024   23880918.9584
      1849.6884
  -7556023.75549  -5876232.97247  22575240.4814   22575234.8964
      1807.8284
  -1158601.49549   -894606.25048  21045824.3024   21045818.5604
      -819.5004
 04  9 16 16  0 30.0010000  0  6G 1G11G14G23G20G25
  -2247264.36749  -1744159.81848  21144059.7864   21144055.0954
       -74.3914
   2225483.78149   1735115.27247  21979337.6064   21979332.2044
     -1795.4844
  11807817.96149   9176644.86247  23596522.5214   23596517.9934
     -3549.8754
  -2674403.86549  -2078501.71047  23875650.9194   23875644.8844
      1846.1884
  -7583110.55849  -5897339.56447  22570086.0834   22570080.8214
      1803.9534
  -1146232.99749   -884968.45448  21048178.0284   21048172.3924
      -829.3914
 04  9 16 16  0 45.0010000  0  6G 1G11G14G23G20G25
  -2246105.90749  -1743257.10948  21144280.4664   21144275.3414
       -79.7664
   2252487.30249   1756156.97447  21984476.1774   21984470.1424
     -1804.7814
  11861080.09849   9218147.82747  23606657.9424   23606653.6064
     -3551.3914
  -2702071.00549  -2100060.48547  23870386.2784   23870379.8964
      1843.0944
  -7610142.45449  -5918403.35947  22564942.4354   22564937.0014
      1800.5004
  -1133719.18249   -875217.42748  21050558.9894   21050553.6814
      -838.8444
 04  9 16 16  1  0.0010000  0  6G 1G11G14G23G20G25
  -2244860.38749  -1742286.57748  21144517.5604   21144512.6534
       -86.2034
   2279636.23149   1777311.96547  21989642.9114   21989636.5214
     -1815.0164
  11914372.02049   9259673.95847  23616799.7634   23616794.9664
     -3554.1094
  -2729685.20349  -2121578.03447  23865131.9584   23865125.4034
      1838.8754
  -7637116.66349  -5939422.22547  22559809.1304   22559803.9854
      1796.0784
  -1121057.59849   -865351.25648  21052968.5214   21052963.0954
      -849.3284
 04  9 16 16  1 15.0010000  0  6G 1G11G14G23G20G25
  -2243530.33649  -1741250.16848  21144770.1534   21144766.1854
       -91.4064
   2306928.03449   1798578.30848  21994835.9424   21994830.5634
     -1824.1724
  11967691.08949   9301221.26447  23626946.0214   23626941.1614
     -3555.4694
  -2757249.09949  -2143056.39047  23859887.2474   23859879.6924
      1836.0004
  -7664035.36149  -5960397.81847  22554686.5754   22554681.5954
      1792.7974
  -1108250.73649   -855371.87348  21055405.2714   21055399.5444
      -858.4844
 04  9 16 16  1 30.0010000  0  6G 1G11G14G23G20G25
  -2242115.21149  -1740147.45748  21145039.6534   21145035.5014
       -97.2034
   2334362.93249   1819956.12748  22000056.8804   22000051.2164
     -1833.8284
  12021037.71849   9342790.05747  23637097.2164   23637092.3534
     -3557.4064
  -2784761.93249  -2164494.94147  23854651.2394   23854644.2284
      1832.5004
  -7690897.82849  -5981329.61147  22549574.9354   22549569.7124
      1788.9384
  -1095298.01549   -845278.84748  21057870.2244   21057864.9624
      -868.4224
 04  9 16 16  1 45.0010000  0  6G 1G11G14G23G20G25
  -2240615.81249  -1738979.10348  21145325.1384   21145320.6574
      -102.8754
   2361940.25049   1841444.93848  22005304.3174   22005298.9744
     -1843.3444
  12074411.21649   9384379.77447  23647254.1694   23647249.0014
     -3559.2814
  -2812224.31849  -2185894.21547  23849425.6854   23849417.9974
      1829.0634
  -7717704.52449  -6002217.94147  22544473.6614   22544468.2554
      1785.0944
  -1082200.28149   -835072.83448  21060363.0364   21060357.5054
      -878.1564
 04  9 16 16  2  0.0020000  0  6G 1G11G14G23G20G25
  -2239030.34049  -1737743.66648  21145627.1354   21145622.3144
      -108.3444
   2389663.39449   1863047.37547  22010580.2364   22010575.0454
     -1852.7664
  12127816.73449   9425994.43947  23657416.9714   23657411.6934
     -3560.8754
  -2839636.36249  -2207254.20847  23844208.5254   23844201.6664
      1825.7344
  -7744455.26049  -6023062.66647  22539383.5494   22539378.1314
      1781.5004
  -1068954.97449   -824751.80048  21062883.1744   21062878.1434
      -887.7664
 04  9 16 16  2 15.0020000  0  6G 1G11G14G23G20G25
  -2237358.04549  -1736440.57448  21145944.6504   21145940.1934
      -114.2504
   2417529.37749   1884761.12348  22015882.8384   22015877.4394
     -1862.4224
  12181248.02249   9467629.18147  23667584.2524   23667579.4594
     -3562.9844
  -2866993.32849  -2228571.27547  23839003.6274   23838996.0574
      1822.0784
  -7771145.30049  -6043860.09547  22534304.4474   22534298.9084
      1777.5314
  -1055562.92949   -814316.43148  21065431.8224   21065426.7324
      -897.6254
 04  9 16 16  2 30.0020000  0  6G 1G11G14G23G20G25
  -2235602.31549  -1735072.47248  21146279.1824   21146274.6074
      -119.7504
   2445536.41749   1906584.78147  22021212.3614   22021206.8694
     -1871.7344
  12234705.11249   9509284.04347  23677757.6194   23677751.9204
     -3564.5004
  -2894300.38749  -2249849.46847  23833806.1744   23833799.9084
      1818.8284
  -7797779.61249  -6064614.10147  22529236.1504   22529230.5454
      1773.8754
  -1042026.72749   -803768.74648  21068007.3694   21068001.7364
      -907.1414
 04  9 16 16  2 45.0020000  0  6G 1G11G14G23G20G25
  -2233759.61749  -1733636.58948  21146629.8464   21146625.3574
      -125.6724
   2473688.11549   1928521.15447  22026569.6744   22026564.0844
     -1881.5784
  12288191.48149   9550961.67847  23687935.2684   23687930.4434
     -3566.6094
  -2921553.87549  -2271085.93047  23828620.8694   23828613.2214
      1815.1884
  -7824354.35649  -6085321.68647  22524178.6664   22524173.6704
      1769.7664
  -1028342.90749   -793106.01048  21070611.4004   21070606.0024
      -917.0314
 04  9 16 16  3  0.0020000  0  6G 1G11G14G23G20G25
  -2231832.45749  -1732134.92848  21146996.3304   21146991.9204
      -131.4064
   2501981.81049   1950568.17147  22031953.5884   22031947.9164
     -1891.1254
  12341704.50949   9592660.12947  23698118.2524   23698113.3734
     -3568.5624
  -2948756.35349  -2292282.66947  23823444.2684   23823436.7914
      1811.7344
  -7850871.67649  -6105984.53547  22519132.8144   22519126.9284
      1765.8284
  -1014513.92649   -782330.19148  21073243.2834   21073237.3424
      -926.8754
 04  9 16 16  3 15.0020000  0  6G 1G11G14G23G20G25
  -2229821.97849  -1730568.30548  21147379.1114   21147374.3074
      -136.6724
   2530416.21049   1972724.84047  22037364.6044   22037359.1974
     -1900.2504
  12395243.04549   9634378.44547  23708306.9864   23708301.7324
     -3569.9534
  -2975908.84949  -2313440.45447  23818277.0964   23818269.4474
      1808.6564
  -7877332.46749  -6126603.32647  22514097.4084   22514091.9594
      1762.2974
  -1000541.02149   -771442.21748  21075902.0724   21075896.6274
      -936.2664
 04  9 16 16  3 30.0020000  0  6G 1G11G14G23G20G25
  -2227726.60549  -1728935.55348  21147778.1974   21147773.0254
      -142.6414
   2558992.77149   1994992.27847  22042802.6744   22042796.9714
     -1910.0314
  12448808.68949   9676117.86847  23718500.1664   23718494.7754
     -3572.0784
  -3003009.63949  -2334557.94847  23813119.6584   23813112.0144
      1804.8134
  -7903734.96249  -6147176.69447  22509073.8304   22509067.4084
      1758.1564
   -986422.51649   -760440.76548  21078588.4004   21078583.0724
      -946.1724
 04  9 16 16  3 45.0020000  0  6G 1G11G14G23G20G25
  -2225542.87149  -1727233.94348  21148193.3854   21148188.5064
      -148.5944
   2587714.88449   2017373.12447  22048267.9244   22048262.7174
     -1919.6874
  12502404.72649   9717880.99547  23728699.0184   23728693.4284
     -3574.1094
  -3030055.11749  -2355632.32547  23807973.7994   23807966.2404
      1801.1724
  -7930075.23849  -6167701.58347  22504061.4004   22504055.6504
      1753.9064
   -972155.03349   -749323.25348  21081303.9004   21081297.9594
      -956.1414
 04  9 16 16  4  0.0020000  0  6G 1G11G14G23G20G25
  -2223271.53549  -1725464.06348  21148625.5724   21148620.8574
      -154.2034
   2616581.79549   2039866.81647  22053761.1894   22053755.2644
     -1929.1564
  12556030.61949   9759667.38946  23738903.2134   23738898.1194
     -3575.8914
  -3057045.93049  -2376664.09847  23802837.2604   23802829.7134
      1797.5634
  -7956353.86649  -6188178.42847  22499060.6354   22499054.8544
      1749.9844
   -957739.39049   -738090.28648  21084046.7994   21084041.0104
      -965.8914
 04  9 16 16  4 15.0020000  0  6G 1G11G14G23G20G25
  -2220916.81649  -1723629.21948  21149073.6354   21149068.7714
      -159.6874
   2645588.94649   2062469.78447  22059281.0414   22059275.1234
     -1938.4534
  12609681.98049   9801473.64247  23749112.6974   23749108.1004
     -3577.5784
  -3083986.14349  -2397656.44047  23797710.5884   23797703.2094
      1794.3914
  -7982574.81749  -6208610.33947  22494070.6114   22494065.1114
      1746.2034
   -943179.76949   -726745.12548  21086817.4554   21086811.7564
      -975.3914
 04  9 16 16  4 30.0020000  0  6G 1G11G14G23G20G25
  -2218475.65649  -1721727.01148  21149538.5334   21149533.8574
      -165.7034
   2674739.42349   2085184.42047  22064828.4944   22064822.2324
     -1948.1874
  12663361.86849   9843302.08547  23759327.7914   23759322.4984
     -3579.7034
  -3110872.66849  -2418606.98447  23792595.1274   23792587.2684
      1790.5474
  -8008734.62849  -6228994.58647  22489092.5024   22489086.7484
      1741.8914
   -928473.05849   -715285.35848  21089616.0254   21089610.2994
      -985.4224
 04  9 16 16  4 45.0020000  0  6G 1G11G14G23G20G25
  -2215945.08049  -1719755.13048  21150019.7834   21150014.8424
      -171.4844
   2704036.07649   2108012.97047  22070403.4084   22070397.1154
     -1957.7814
  12717073.13249   9885154.98246  23769548.9004   23769543.5724
     -3581.5944
  -3137702.47949  -2439513.29547  23787487.6114   23787481.7564
      1787.0004
  -8034830.09049  -6249328.71147  22484126.4244   22484120.6394
      1737.7504
   -913616.38249   -703708.72648  21092443.2604   21092437.5644
      -995.2814
 04  9 16 16  5  0.0020000  0  6G 1G11G14G23G20G25
  -2213328.22849  -1717716.04147  21150517.7214   21150512.1894
      -177.4694
   2733475.88249   2130953.05247  22076005.7604   22075999.3854
     -1967.5944
  12770812.55649   9927029.81047  23779774.9794   23779769.9164
     -3583.7344
  -3164478.47549  -2460377.70847  23782393.5494   23782385.9864
      1783.1414
  -8060864.07749  -6269614.94847  22479172.9084   22479166.7834
      1733.3914
   -898612.88649   -692017.68948  21095298.0574   21095292.2564
     -1005.2504
 04  9 16 16  5 15.0020000  0  6G 1G11G14G23G20G25
  -2210627.48349  -1715611.55347  21151031.5494   21151026.1394
      -182.9534
   2763056.07449   2154002.55547  22081634.4084   22081628.2954
     -1976.7814
  12824577.75149   9968924.76646  23790006.2994   23790000.6504
     -3585.3124
  -3191203.03349  -2481201.98747  23777308.1974   23777300.5684
      1779.9064
  -8086838.61649  -6289854.83747  22474230.2914   22474224.1974
      1729.5634
   -883465.06149   -680214.19448  21098180.6664   21098174.8964
     -1014.6874
 04  9 16 16  5 30.0020000  0  6G 1G11G14G23G20G25
  -2207840.44249  -1713439.82248  21151561.6824   21151556.7134
      -188.6874
   2792778.98849   2177163.25747  22087290.3384   22087284.5574
     -1986.2974
  12878371.15649  10010841.68346  23800242.6584   23800237.8074
     -3587.0944
  -3217873.62049  -2501984.27147  23772232.4004   23772225.3544
      1776.1564
  -8112750.94549  -6310046.25847  22469299.0884   22469292.7914
      1725.4534
   -868170.47349   -668296.33648  21101091.2214   21101085.1624
     -1024.5624
 04  9 16 16  5 45.0020000  0  6G 1G11G14G23G20G25
  -2204970.54349  -1711203.54748  21152108.2054   21152102.9084
      -194.2344
   2822641.06949   2200432.39747  22092973.0334   22092966.6504
     -1995.5314
  12932189.36249  10052777.90946  23810484.3304   23810478.7834
     -3588.8444
  -3244493.63549  -2522727.11047  23767166.5024   23767159.2874
      1772.7814
  -8138604.30549  -6330191.72047  22464379.2134   22464372.8894
      1721.4224
   -852732.63649   -656266.84547  21104028.9554   21104023.0294
     -1034.0784
 04  9 16 16  6  0.0020000  0  6G 1G11G14G23G20G25
  -2202015.22349  -1708900.70048  21152670.6274   21152665.2914
      -199.5004
   2852644.91449   2223812.00547  22098682.8614   22098676.6234
     -2004.6414
  12986034.89049  10094735.46346  23820730.5724   23820725.2644
     -3590.2344
  -3271060.17449  -2543428.30947  23762111.3384   23762104.4594
      1769.6564
  -8164395.80049  -6350288.98947  22459471.3934   22459464.8734
      1717.6724
   -837148.93749   -644123.70147  21106994.1824   21106988.5534
     -1043.4844
 04  9 16 16  6 15.0020000  0  6G 1G11G14G23G20G25
  -2198976.02649  -1706532.47948  21153248.8934   21153243.8304
      -205.2194
   2882788.78249   2247300.72647  22104418.9944   22104412.9164
     -2014.0944
  13039906.19449  10136713.09647  23830981.9714   23830977.1504
     -3592.1254
  -3297574.83549  -2564089.04847  23757066.0804   23757058.1624
      1766.1414
  -8190126.69149  -6370339.03747  22454574.4004   22454568.4984
      1713.5474
   -821420.92149   -631868.11147  21109987.6504   21109981.7604
     -1053.1874
 04  9 16 16  6 30.0020000  0  6G 1G11G14G23G20G25
  -2195852.80549  -1704098.80648  21153843.1434   21153838.3774
      -210.9844
   2913072.58249   2270898.47847  22110181.8144   22110175.5184
     -2023.5624
  13093803.29749  10178710.77147  23841238.1974   23841233.1864
     -3594.0164
  -3324037.39849  -2584709.22147  23752029.5414   23752022.7994
      1762.4064
  -8215796.55849  -6390341.51547  22449689.9554   22449684.1934
      1709.3444
   -805548.49649   -619499.99548  21113007.7364   21113002.1154
     -1062.9694
 04  9 16 16  6 45.0020000  0  6G 1G11G14G23G20G25
  -2192647.79849  -1701601.39848  21154453.0414   21154447.3074
      -216.0784
   2943494.06149   2294603.50647  22115970.8074   22115964.8304
     -2032.3594
  13147723.91949  10220726.83046  23851499.1744   23851494.0574
     -3595.0944
  -3350450.05849  -2605290.47847  23747003.5574   23746997.2444
      1759.5164
  -8241407.28949  -6410297.92347  22444816.4634   22444810.5144
      1705.7194
   -789533.87749   -607021.06548  21116055.2684   21116049.4944
     -1072.0474
 04  9 16 16  7  0.0020000  0  6G 1G11G14G23G20G25
  -2189362.99749  -1699041.80748  21155078.4324   21155073.0334
      -221.4694
   2974051.07749   2318414.17247  22121785.1274   22121778.7404
     -2041.4694
  13201665.99449  10262759.62046  23861764.2054   23861759.1504
     -3596.6564
  -3376814.53049  -2625834.20147  23741987.4004   23741979.8264
      1756.1414
  -8266960.68149  -6430209.65447  22439953.9164   22439947.7214
      1701.9534
   -773379.23449   -594433.02747  21119129.6584   21119123.4434
     -1081.4224
 04  9 16 16  7 15.0020000  0  6G 1G11G14G23G20G25
  -2185998.02449  -1696419.75548  21155718.3544   21155712.9634
      -227.0624
   3004743.85049   2342330.59547  22127626.1974   22127619.7094
     -2050.8124
  13255629.81049  10304809.31746  23872032.4394   23872027.5454
     -3598.4694
  -3403130.39249  -2646340.07947  23736979.3074   23736971.9554
      1752.6564
  -8292456.01249  -6450076.14847  22435102.2054   22435096.0574
      1697.7034
   -757084.09849   -581735.52647  21122230.4084   21122224.4904
     -1091.1254
 04  9 16 16  7 30.0020000  0  6G 1G11G14G23G20G25
  -2182551.44149  -1693734.10948  21156374.4794   21156368.7404
      -232.3914
   3035573.82049   2366353.94147  22133493.0964   22133486.6154
     -2059.8754
  13309616.79049  10346877.06846  23882305.9864   23882301.1004
     -3599.8594
  -3429396.18749  -2666806.90347  23731980.0964   23731973.8224
      1749.4534
  -8317891.53849  -6469896.02447  22430261.6894   22430255.4594
      1693.7504
   -740647.08349   -568927.47048  21125358.2364   21125352.4984
     -1100.5164
 04  9 16 16  7 45.0020000  0  6G 1G11G14G23G20G25
  -2179024.34149  -1690985.72548  21157045.6274   21157040.1544
      -237.9844
   3066539.68949   2390483.17347  22139385.4794   22139379.3504
     -2069.1094
  13363625.93749  10388962.08747  23892584.3464   23892578.9944
     -3601.4844
  -3455612.83149  -2687235.43747  23726992.4004   23726984.5644
      1746.0004
  -8343268.10249  -6489669.98747  22425432.8304   22425426.3504
      1689.6724
   -724069.34149   -556009.75948  21128513.1194   21128506.6274
     -1110.0314
 04  9 16 16  8  0.0020000  0  6G 1G11G14G23G20G25
  -2175416.61149  -1688174.50148  21157732.4004   21157727.3504
      -243.2034
   3097641.49749   2414718.34247  22145304.1584   22145297.8344
     -2078.0164
  13417657.36149  10431064.44347  23902865.8614   23902860.6704
     -3602.7814
  -3481780.19149  -2707625.55647  23722012.9474   23722004.9794
      1742.8914
  -8368585.11349  -6509397.52047  22420615.1194   22420609.1504
      1685.7974
   -707350.82349   -542982.32748  21131694.2214   21131688.0724
     -1119.2664
 04  9 16 16  8 15.0020000  0  6G 1G11G14G23G20G25
  -2171729.75049  -1685301.62848  21158433.6114   21158428.4434
      -248.2974
   3128877.50549   2439058.07247  22151248.2054   22151242.3384
     -2086.7344
  13471709.49049  10473182.98346  23913151.5964   23913146.4594
     -3604.0624
  -3507899.50749  -2727978.23247  23717042.3224   23717034.4794
      1739.8284
  -8393843.91749  -6529079.69647  22415808.4394   22415802.8734
      1682.0944
   -690493.13249   -529846.47147  21134902.2524   21134895.8504
     -1128.3284
 04  9 16 16  8 30.0020000  0  6G 1G11G14G23G20G25
  -2167965.95649  -1682368.79648  21159150.2364   21159144.9244
      -253.6564
   3160245.43049   2463500.59847  22157217.2134   22157211.2014
     -2095.7504
  13525779.98449  10515315.81746  23923440.6354   23923436.1704
     -3605.4374
  -3533972.88749  -2748295.15547  23712081.1434   23712073.1584
      1736.4844
  -8419046.51049  -6548718.08147  22411012.9244   22411007.0534
      1678.1884
   -673498.34649   -516603.78347  21138136.3144   21138130.1314
     -1137.7194
 04  9 16 16  8 45.0020000  0  6G 1G11G14G23G20G25
  -2164120.29949  -1679372.16748  21159881.8144   21159876.6894
      -259.2034
   3191749.99849   2488049.61247  22163212.3934   22163205.7794
     -2104.9534
  13579873.77749  10557466.79646  23933734.4634   23933729.8774
     -3607.0784
  -3559995.41849  -2768572.43547  23707129.1114   23707121.1784
      1733.1564
  -8444187.67349  -6568308.58347  22406228.4714   22406222.8574
      1673.9534
   -656361.59949   -503250.47747  21141397.1664   21141391.5414
     -1147.2504
 04  9 16 16  9  0.0020000  0  6G 1G11G14G23G20G25
  -2160195.84749  -1676314.15948  21160628.6664   21160623.0294
      -263.9534
   3223388.14449   2512702.68947  22169232.3854   22169226.4754
     -2113.3444
  13633987.83149  10599633.54646  23944031.7834   23944027.1664
     -3607.9844
  -3585970.08649  -2788812.42847  23702185.2834   23702178.0534
      1730.3914
  -8469270.07549  -6587853.31047  22401455.2834   22401449.2684
      1670.5474
   -639086.10149   -489789.05048  21144684.3224   21144678.9284
     -1156.0314
 04  9 16 16  9 15.0020000  0  6G 1G11G14G23G20G25
  -2156195.41649  -1673196.93048  21161389.9004   21161384.3144
      -269.0624
   3255156.88449   2537457.54947  22175278.2364   22175272.2914
     -2122.1564
  13688119.31249  10641813.88746  23954333.5104   23954327.4714
     -3609.1414
  -3611899.56549  -2809017.17447  23697251.5884   23697244.8774
      1727.3134
  -8494296.10549  -6607354.09747  22396693.3304   22396686.8814
      1666.7034
   -621674.68349   -476221.71448  21147997.6744   21147992.0724
     -1165.1724
 04  9 16 16  9 30.0020000  0  6G 1G11G14G23G20G25
  -2152121.39049  -1670022.38248  21162165.2294   21162159.7254
      -274.1414
   3287053.72949   2562312.22047  22181348.1824   22181341.9714
     -2130.8754
  13742265.76249  10684005.94046  23964636.3144   23964631.9044
     -3610.4064
  -3637786.10649  -2829188.50147  23692325.9634   23692318.0254
      1724.3284
  -8519267.89649  -6626812.64847  22391941.2754   22391934.9474
      1662.8914
   -604129.70949   -462550.32448  21151336.5334   21151330.5024
     -1174.2504
 04  9 16 16  9 45.0020000  0  6G 1G11G14G23G20G25
  -2147971.22349  -1666788.48348  21162954.9244   21162949.1664
      -279.2194
   3319081.00249   2587268.52647  22187442.1194   22187436.5644
     -2139.5784
  13796429.72749  10726211.62546  23974943.6974   23974938.5214
     -3611.5314
  -3663627.02749  -2849324.24147  23687408.0644   23687400.4944
      1721.1094
  -8544182.59549  -6646226.69747  22387200.2214   22387193.7404
      1659.0164
   -586448.68849   -448772.89748  21154701.2914   21154695.0334
     -1183.3284
 04  9 16 16 10  0.0020000  0  6G 1G11G14G23G20G25
  -2143743.39549  -1663494.05848  21163759.4164   21163754.1314
      -284.4694
   3351240.10949   2612327.56247  22193562.1434   22193556.3504
     -2148.3124
  13850612.59349  10768431.95946  23985254.8854   23985249.1704
     -3612.7814
  -3689420.77349  -2869423.25747  23682500.3544   23682492.1544
      1717.9534
  -8569038.46349  -6665594.89047  22382470.2524   22382464.4714
      1655.0944
   -568630.15649   -434888.33548  21158091.8544   21158086.2524
     -1192.5314
 04  9 16 16 10 15.0020000  0  6G 1G11G14G23G20G25
  -2139438.15549  -1660139.32448  21164578.3384   21164573.0724
      -289.6414
   3383530.81249   2637489.12447  22199706.8144   22199701.2014
     -2157.0784
  13904814.24649  10810667.01346  23995568.6044   23995563.3614
     -3614.0944
  -3715167.35649  -2889485.53247  23677600.8694   23677592.6784
      1714.9534
  -8593835.43849  -6684917.20447  22377751.5804   22377745.7054
      1651.2034
   -550674.27349   -420896.74548  21161508.8384   21161502.6864
     -1201.6724
 04  9 16 16 10 30.0020000  0  6G 1G11G14G23G20G25
  -2135057.08249  -1656725.51848  21165412.3304   21165407.3894
      -294.3444
   3415951.32049   2662751.83247  22205876.2444   22205870.2564
     -2165.3914
  13959033.06849  10852915.40846  24005887.2834   24005881.3504
     -3614.8914
  -3740868.32349  -2909512.24547  23672709.5574   23672701.8464
      1712.2034
  -8618574.73849  -6704194.59347  22373043.6584   22373037.4284
      1647.6254
   -532582.76749   -406799.47948  21164951.7364   21164945.3544
     -1210.2664
 04  9 16 16 10 45.0020000  0  6G 1G11G14G23G20G25
  -2130600.08549  -1653252.52748  21166260.6044   21166255.6004
      -299.8914
   3448501.52749   2688115.62747  22212070.9474   22212064.5254
     -2174.5164
  14013269.00449  10895177.16946  24016207.3694   24016202.2994
     -3616.5164
  -3766523.57449  -2929503.34947  23667827.7054   23667819.5064
      1708.6254
  -8643256.07649  -6723426.78047  22368347.1434   22368340.8144
      1643.2814
   -514355.67349   -392596.54448  21168420.0644   21168414.3734
     -1219.8444
 04  9 16 16 11  0.0020000  0  6G 1G11G14G23G20G25
  -2126066.94649  -1649720.20748  21167123.2524   21167117.9124
      -304.3914
   3481181.42649   2713580.47647  22218289.7364   22218283.3504
     -2182.7034
  14067522.14249  10937452.31847  24026531.5884   24026525.8224
     -3617.1414
  -3792132.73549  -2949458.51747  23662954.5644   23662946.7684
      1706.0474
  -8667878.91549  -6742613.40947  22363661.7294   22363655.1974
      1639.8914
   -495992.88149   -378287.88348  21171914.5334   21171908.4284
     -1228.3754
 04  9 16 16 11 15.0020000  0  6G 1G11G14G23G20G25
  -2121460.94449  -1646131.11248  21167999.7914   21167994.5144
      -309.5784
   3513987.73149   2739143.81547  22224532.1974   22224526.4284
     -2191.4374
  14121789.34949  10979738.36846  24036858.4794   24036852.5104
     -3618.3594
  -3817698.95049  -2969380.21047  23658089.0254   23658081.4754
      1702.9224
  -8692446.18549  -6761756.74547  22358986.7134   22358980.0144
      1635.8284
   -477497.60349   -363875.97648  21175433.7754   21175427.4674
     -1237.5314
 04  9 16 16 11 30.0020000  0  6G 1G11G14G23G20G25
  -2116781.79249  -1642485.03148  21168890.1824   21168884.1274
      -314.3594
   3546920.62149   2764805.77847  22230799.1744   22230793.3854
     -2199.7034
  14176070.96049  11022035.73546  24047187.5724   24047181.8774
     -3619.2814
  -3843221.76449  -2989268.11247  23653231.4394   23653224.6234
      1700.0634
  -8716957.30549  -6780856.30947  22354322.0724   22354315.8184
      1632.1884
   -458869.52849   -349360.59548  21178978.7754   21178972.7834
     -1246.3444
 04  9 16 16 11 45.0020000  0  6G 1G11G14G23G20G25
  -2112026.40349  -1638779.52648  21169794.8384   21169789.3264
      -319.3914
   3579982.84349   2790568.55247  22237090.9164   22237084.8034
     -2208.2974
  14230370.00949  11064346.65046  24057519.1584   24057514.6664
     -3620.3444
  -3868698.06649  -3009119.75047  23648384.2834   23648376.7014
      1697.0634
  -8741408.84149  -6799909.44847  22349669.5574   22349662.9674
      1628.2664
   -440105.66449   -334739.42248  21182549.2054   21182544.1234
     -1255.2974
 04  9 16 16 12  0.0020000  0  6G 1G11G14G23G20G25
  -2107196.67649  -1635016.10448  21170713.8144   21170708.4284
      -324.4374
   3613172.54849   2816430.64047  22243406.2914   22243400.5254
     -2216.9224
  14284684.60149  11106669.69946  24067855.8614   24067851.0644
     -3621.4694
  -3894129.59949  -3028936.51247  23643544.5254   23643537.4164
      1693.8914
  -8765802.37449  -6818917.40247  22345027.3384   22345021.0334
      1624.2344
   -421208.03249   -320013.98348  21186145.7604   21186139.9754
     -1264.3444
 04  9 16 16 12 15.0020000  0  6G 1G11G14G23G20G25
  -2102295.86049  -1631197.29148  21171646.4394   21171641.6274
      -328.9374
   3646486.21349   2842389.31747  22249745.7134   22249739.6154
     -2224.7814
  14339011.28449  11149002.15346  24078194.0884   24078188.6274
     -3621.9694
  -3919519.67049  -3048720.96747  23638713.2604   23638705.7794
      1691.5164
  -8790141.04249  -6837882.58647  22340395.5574   22340389.6544
      1621.0004
   -402179.93449   -305186.90148  21189766.5644   21189760.4004
     -1272.6414
 04  9 16 16 12 30.0020000  0  6G 1G11G14G23G20G25
  -2097325.02249  -1627323.90048  21172592.5104   21172587.4944
      -333.7344
   3679922.78349   2868443.78647  22256108.4634   22256102.8854
     -2233.1724
  14393349.10649  11191343.25046  24088533.8614   24088528.6354
     -3622.8594
  -3944869.13949  -3068473.77947  23633889.7834   23633882.0614
      1688.6884
  -8814425.41449  -6856805.46147  22335774.3854   22335768.4634
      1617.2034
   -383022.42249   -290258.96948  21193412.3384   21193405.6434
     -1281.4374
 04  9 16 16 12 45.0020000  0  6G 1G11G14G23G20G25
  -2092285.52149  -1623397.01248  21173551.5574   21173546.4364
      -338.4374
   3713480.67549   2894592.78647  22262494.1274   22262488.4824
     -2241.4694
  14447696.84349  11233692.14746  24098875.8144   24098871.2404
     -3623.6874
  -3970179.27649  -3088195.95247  23629073.5334   23629065.1044
      1685.8754
  -8838656.46549  -6875686.80247  22331163.7214   22331157.1394
      1613.2974
   -363737.07849   -275231.44048  21197081.9474   21197075.6504
     -1290.2194
 04  9 16 16 13  0.0020000  0  6G 1G11G14G23G20G25
  -2087172.23949  -1619412.64148  21174524.6194   21174519.1004
      -343.3444
   3747164.96049   2920840.26947  22268904.3144   22268898.2644
     -2249.7664
  14502059.32849  11276052.47446  24109220.6504   24109215.7874
     -3624.5784
  -3995444.92149  -3107883.45547  23624265.5334   23624257.2794
      1682.9384
  -8862828.96549  -6894522.50847  22326563.3074   22326557.6864
      1609.5944
   -344318.78749   -260100.30648  21200776.8774   21200771.1114
     -1298.9374
 04  9 16 16 13 15.0020000  0  6G 1G11G14G23G20G25
  -2081985.11749  -1615370.72948  21175511.2994   21175505.8694
      -348.1094
   3780975.49049   2947186.12447  22275338.6744   22275332.2214
     -2258.1094
  14556436.73949  11318424.46646  24119568.9004   24119563.7684
     -3625.5624
  -4020665.72949  -3127536.01647  23619466.1044   23619457.8614
      1680.0784
  -8886942.45549  -6913312.23347  22321974.9164   22321969.0534
      1605.7814
   -324767.42449   -244865.47848  21204497.4714   21204491.9794
     -1307.6564
 04  9 16 16 13 30.0020000  0  6G 1G11G14G23G20G25
  -2076725.89149  -1611272.63148  21176512.3224   21176507.2054
      -352.7664
   3814910.25049   2973628.79447  22281796.0574   22281789.6394
     -2266.2194
  14610827.20849  11360806.60046  24129919.4084   24129914.0764
     -3626.2664
  -4045843.48349  -3147155.00547  23614674.6584   23614666.1584
      1677.3754
  -8910998.40949  -6932057.11947  22317397.3304   22317391.5184
      1602.0004
   -305084.69249   -229528.28148  21208243.0884   21208237.2294
     -1316.3444
 04  9 16 16 13 45.0020000  0  6G 1G11G14G23G20G25
  -2071395.67349  -1607119.21748  21177526.6044   21177520.7994
      -357.8284
   3848968.07849   3000167.34647  22288277.2994   22288270.7874
     -2274.6874
  14665229.64849  11403198.09746  24140272.0254   24140266.6744
     -3627.2974
  -4070979.13649  -3166741.21147  23609891.1664   23609883.4044
      1674.2664
  -8934997.63149  -6950757.82447  22312830.4794   22312824.4164
      1597.9384
   -285271.95149   -214089.78448  21212013.3854   21212007.1704
     -1325.3124
 04  9 16 16 14  0.0020000  0  6G 1G11G14G23G20G25
  -2065992.74549  -1602909.14748  21178554.6504   21178549.7014
      -362.7814
   3883150.52549   3026803.00047  22294781.6434   22294775.2214
     -2283.1254
  14719645.80049  11445600.25846  24150626.2134   24150621.1154
     -3628.3284
  -4096070.78749  -3186293.15547  23605117.0104   23605109.0254
      1671.1414
  -8958938.06949  -6969412.72447  22308274.8304   22308268.4794
      1593.9224
   -265327.61049   -198548.74548  21215808.4864   21215802.4794
     -1334.1254
 04  9 16 16 14 15.0020000  0  6G 1G11G14G23G20G25
  -2060517.35449  -1598642.59848  21179596.4164   21179591.1114
      -367.4694
   3917457.22349   3053535.47247  22301310.0964   22301304.0214
     -2291.2664
  14774075.39449  11488012.87946  24160984.2134   24160978.9284
     -3629.1874
  -4121118.75149  -3205811.03547  23600350.5644   23600342.4754
      1668.4064
  -8982819.63149  -6988021.71547  22303730.4004   22303723.6114
      1590.1254
   -245251.71649   -182905.21048  21219628.8774   21219623.3114
     -1342.8444
 04  9 16 16 14 30.0020000  0  6G 1G11G14G23G20G25
  -2054970.50449  -1594320.38747  21180652.2834   21180646.8614
      -371.6874
   3951887.03049   3080363.89047  22307861.9324   22307856.3774
     -2298.9844
  14828517.37649  11530435.17346  24171344.1664   24171338.5924
     -3629.3914
  -4146123.92049  -3225295.54647  23595591.8854   23595584.1004
      1666.0784
  -9006643.00349  -7006585.38147  22299197.0644   22299190.2914
      1586.7814
   -225045.36749   -167160.00048  21223474.0334   21223468.1004
     -1350.9844
 04  9 16 16 14 45.0020000  0  6G 1G11G14G23G20G25
  -2049351.44249  -1589941.89547  21181721.3074   21181715.9904
      -377.0944
   3986440.50649   3107288.66347  22314436.9004   22314431.1504
     -2307.7504
  14882972.48749  11572867.72946  24181706.5414   24181701.1934
     -3630.9064
  -4171085.26349  -3244745.93747  23590842.2294   23590834.2444
      1662.5164
  -9030407.20349  -7025102.92047  22294674.7134   22294668.6074
      1582.2034
   -204708.07049   -151312.75048  21227343.8304   21227337.9044
     -1360.2504
 04  9 16 16 15  0.0020000  0  6G 1G11G14G23G20G25
  -2043656.90549  -1585504.58648  21182805.1504   21182799.1464
      -382.0474
   4021120.74049   3134312.20347  22321036.6434   22321030.3344
     -2316.0784
  14937443.93749  11615312.99746  24192072.1744   24192066.6584
     -3631.8444
  -4195999.46149  -3264159.57547  23586100.7994   23586093.4124
      1659.5474
  -9054108.55849  -7043571.50847  22290164.4554   22290158.5844
      1578.0164
   -184236.63149   -135360.99747  21231239.5964   21231233.4864
     -1369.1094
 04  9 16 16 15 15.0020000  0  6G 1G11G14G23G20G25
  -2037890.85649  -1581011.55948  21183902.3144   21183896.8184
      -386.3444
   4055923.58849   3161431.28747  22327659.2754   22327653.1864
     -2323.8754
  14991927.78049  11657767.91346  24202440.1434   24202435.2254
     -3632.2974
  -4220870.49149  -3283539.57547  23581367.8074   23581359.6004
      1657.0944
  -9077750.82049  -7061994.04447  22285665.4394   22285659.2604
      1574.5314
   -163635.00149   -119307.76647  21235160.0884   21235154.0294
     -1377.2814
 04  9 16 16 15 30.0020000  0  6G 1G11G14G23G20G25
  -2032055.22249  -1576464.31948  21185012.9864   21185007.7644
      -391.4064
   4090847.02949   3188644.34647  22334304.9394   22334298.9124
     -2332.3594
  15046422.05549  11700230.94646  24212810.1744   24212804.6934
     -3633.2974
  -4245700.10849  -3302887.31747  23576643.2834   23576635.5684
      1653.7974
  -9101335.56149  -7080371.77747  22281177.5574   22281171.3074
      1570.3444
   -142905.15949   -103154.65947  21239104.6664   21239099.1894
     -1386.2664
 04  9 16 16 15 45.0020000  0  6G 1G11G14G23G20G25
  -2026148.97149  -1571862.04548  21186136.7214   21186131.2134
      -396.1414
   4125891.98149   3215952.09447  22340973.8854   22340967.8894
     -2340.4224
  15100927.85949  11742702.97446  24223181.8694   24223176.9364
     -3634.1564
  -4270487.17549  -3322201.90847  23571926.1894   23571918.7324
      1651.0004
  -9124861.39849  -7098703.59047  22276700.2994   22276694.1894
      1566.2974
   -122046.17549    -86900.90247  21243073.9394   21243068.3304
     -1394.9694
 04  9 16 16 16  0.0020000  0  6G 1G11G14G23G20G25
  -2020169.23949  -1567202.50748  21187274.6274   21187269.0494
      -401.1414
   4161061.04649   3243356.54947  22347666.4164   22347660.0454
     -2348.7974
  15155448.01149  11785186.19046  24233556.9864   24233551.8694
     -3635.2504
  -4295228.80349  -3341481.09647  23567218.6194   23567210.2134
      1647.9384
  -9148325.29749  -7116987.14047  22272235.5884   22272229.2754
      1562.1884
   -101055.21849    -70544.32247  21247068.5184   21247062.6234
     -1403.8594
 04  9 16 16 16 15.0020000  0  6G 1G11G14G23G20G25
  -2014116.20349  -1562485.87148  21188426.8854   21188420.7054
      -405.7504
   4196353.84949   3270857.42647  22354382.4794   22354376.1354
     -2356.8124
  15209982.18349  11827680.31846  24243934.2294   24243929.3074
     -3635.7504
  -4319924.98749  -3360724.85947  23562518.1744   23562510.6274
      1645.1254
  -9171727.02049  -7135222.24147  22267782.5884   22267776.0144
      1558.2344
    -79932.62449    -54085.17147  21251088.0104   21251081.8654
     -1412.2664
 04  9 16 16 16 30.0020000  0  6G 1G11G14G23G20G25
  -2007994.86449  -1557715.98448  21189591.0334   21189586.1824
      -410.4694
   4231765.46849   3298450.88347  22361120.6664   22361114.6194
     -2364.7814
  15264525.56549  11870181.62246  24254313.8694   24254308.9794
     -3636.5944
  -4344580.51349  -3379936.92147  23557826.5574   23557819.2834
      1642.3284
  -9195071.16049  -7153412.48947  22263340.0644   22263334.0534
      1554.2664
    -58683.25549    -37527.21548  21255131.4324   21255125.1234
     -1420.9224
 04  9 16 16 16 45.0020000  0  6G 1G11G14G23G20G25
  -2001804.68349  -1552892.46548  21190769.2994   21190764.7254
      -415.2504
   4267296.06749   3326137.04747  22367882.2294   22367875.9594
     -2372.9064
  15319078.57449  11912690.45446  24264694.3224   24264689.8574
     -3637.4694
  -4369194.93649  -3399116.95147  23553142.1824   23553135.2954
      1639.3444
  -9218357.01849  -7171557.30447  22258909.0724   22258903.2094
      1550.2034
    -37306.87249    -20870.29048  21259199.4714   21259193.3574
     -1429.5164
 04  9 16 16 17  0.0020000  0  6G 1G11G14G23G20G25
  -1995539.47549  -1548010.49248  21191961.5024   21191956.1434
      -419.9534
   4302951.70649   3353920.64647  22374667.0724   22374661.1004
     -2381.0004
  15373647.38949  11955211.54846  24275079.0254   24275073.6114
     -3638.3284
  -4393761.96549  -3418260.10647  23548467.7364   23548460.0614
      1636.4534
  -9241578.08149  -7189651.64447  22254490.3464   22254484.4084
      1546.1884
    -15797.27149     -4109.57248  21263292.4004   21263286.4714
     -1438.1414
 04  9 16 16 17 15.0020000  0  6G 1G11G14G23G20G25
  -1989200.86249  -1543071.30448  21193167.5334   21193162.2914
      -424.8444
   4338730.57249   3381800.27047  22381476.1194   22381469.6114
     -2389.1874
  15428230.36349  11997743.71946  24285465.8614   24285460.7254
     -3639.1254
  -4418283.05549  -3437367.43547  23543801.7444   23543793.8774
      1633.3594
  -9264735.59449  -7207696.44347  22250083.2214   22250077.3894
      1541.8914
      5843.88749     12753.66647  21267410.7604   21267404.5764
     -1446.9224
 04  9 16 16 17 30.0020000  0  6G 1G11G14G23G20G25
  -1982787.02149  -1538073.51148  21194388.2604   21194382.8184
      -429.7664
   4374634.37349   3409777.24947  22388307.9864   22388301.7564
     -2397.3914
  15482829.33749  12040288.33846  24295855.8144   24295850.4474
     -3640.1724
  -4442756.29649  -3456437.46347  23539144.3544   23539136.9554
      1630.2504
  -9287827.33249  -7225689.99247  22245688.8934   22245682.8144
      1537.5314
     27618.35549     29720.78948  21271554.1354   21271548.1074
     -1455.7974
 04  9 16 16 17 45.0020000  0  6G 1G11G14G23G20G25
  -1976300.94749  -1533019.42948  21195622.7054   21195616.7644
      -434.7034
   4410659.76449   3437848.96247  22395163.7604   22395157.7014
     -2405.6414
  15537441.16349  12082843.03446  24306248.2994   24306243.1004
     -3641.0314
  -4467184.58749  -3475472.48147  23534496.2604   23534488.1354
      1627.2194
  -9310856.21549  -7243634.58147  22241306.8774   22241300.8304
      1533.2974
     49522.89649     46789.24248  21275722.7994   21275716.2564
     -1464.4224
 04  9 16 16 18  0.0020000  0  6G 1G11G14G23G20G25
  -1969744.32849  -1527910.37448  21196870.3304   21196864.8424
      -439.5004
   4446805.03649   3466014.10147  22402041.6664   22402035.5454
     -2413.7194
  15592064.32549  12125406.45646  24316641.7364   24316637.6394
     -3641.9374
  -4491569.47649  -3494473.68247  23529855.4554   23529848.1394
      1624.1884
  -9333823.43849  -7261531.10847  22236936.5644   22236930.0614
      1529.0164
     71555.77849     63957.72748  21279915.2364   21279908.8654
     -1473.1724
 04  9 16 16 18 15.0020000  0  6G 1G11G14G23G20G25
  -1963114.78749  -1522744.49448  21198131.5644   21198126.3424
      -444.6724
   4483072.46249   3494274.42147  22408943.4394   22408937.3344
     -2422.2344
  15646701.15549  12167980.62146  24327039.6664   24327034.7254
     -3643.1414
  -4515908.38649  -3513439.04947  23525224.5964   23525216.3424
      1620.8284
  -9356726.41549  -7279377.58647  22232578.1194   22232572.3184
      1524.4694
     93719.49449     81228.15248  21284132.7604   21284127.2874
     -1482.2194
 04  9 16 16 18 30.0020000  0  6G 1G11G14G23G20G25
  -1956414.70349  -1517523.64848  21199406.8074   21199401.3504
      -449.1874
   4519459.49549   3522627.93647  22415866.7834   22415861.5684
     -2429.9374
  15701349.17949  12210563.42446  24337438.5184   24337433.9244
     -3643.7974
  -4540203.84349  -3532370.55947  23520601.0964   23520592.6584
      1618.0474
  -9379567.17349  -7297175.57347  22228231.5884   22228225.6004
      1520.5314
    116011.49649     98598.54447  21288375.0334   21288369.0414
     -1490.5164
 04  9 16 16 18 45.0020000  0  6G 1G11G14G23G20G25
  -1949643.38649  -1512247.30048  21200695.5104   21200689.9754
      -454.0784
   4555966.55549   3551074.98747  22422814.2524   22422808.4434
     -2438.1414
  15756009.21749  12253155.62246  24347839.8774   24347835.2054
     -3644.6414
  -4564455.04049  -3551267.58347  23515986.1824   23515977.8774
      1614.9534
  -9402344.64849  -7314924.24147  22223897.2684   22223891.3854
      1516.0784
    138432.39949    116069.37947  21292641.3224   21292635.8114
     -1499.3444
 04  9 16 16 19  0.0020000  0  6G 1G11G14G23G20G25
  -1942801.08349  -1506915.64348  21201997.0804   21201991.9474
      -458.6414
   4592593.35549   3579615.33147  22429784.2604   22429778.2094
     -2445.9374
  15810680.99849  12295756.99746  24358243.3224   24358239.0214
     -3645.2814
  -4588661.88849  -3570130.04747  23511379.6664   23511371.6744
      1612.1414
  -9425058.81349  -7332623.59647  22219575.2914   22219569.0844
      1512.0474
    160981.98049    133640.46747  21296932.5574   21296926.3344
     -1507.7504
 04  9 16 16 19 15.0020000  0  6G 1G11G14G23G20G25
  -1935884.49449  -1501526.08948  21203313.5494   21203308.5374
      -463.5784
   4629342.94549   3608251.36247  22436777.9864   22436771.7014
     -2454.0944
  15865367.78149  12338370.06846  24368650.5184   24368645.6354
     -3646.3914
  -4612820.95349  -3588955.27347  23506782.2214   23506774.1824
      1609.0314
  -9447705.98749  -7350270.74047  22215265.2524   22215259.1044
      1507.5164
    183663.36749    151314.27548  21301248.5964   21301242.9004
     -1516.4694
 04  9 16 16 19 30.0020000  0  6G 1G11G14G23G20G25
  -1928900.21449  -1496083.78047  21204642.5884   21204637.3774
      -468.1724
   4666208.61849   3636977.85747  22443793.4324   22443786.3074
     -2461.8914
  15920062.91149  12380989.65346  24379058.3694   24379053.8304
     -3646.8444
  -4636938.93349  -3607748.49847  23502193.0104   23502184.4984
      1606.1884
  -9470292.48549  -7367870.60747  22210967.2214   22210961.2054
      1503.4694
    206469.95049    169085.64948  21305588.8224   21305582.8184
     -1524.8914
 04  9 16 16 19 45.0020000  0  6G 1G11G14G23G20G25
  -1921847.06949  -1490587.82748  21205984.6274   21205979.6074
      -472.5164
   4703191.21849   3665795.45747  22450830.1894   22450824.3814
     -2469.2814
  15974767.56449  12423616.60046  24389469.1584   24389463.9514
     -3647.3124
  -4661014.59449  -3626508.71947  23497611.3694   23497603.6114
      1603.6564
  -9492816.84449  -7385422.05547  22206680.8224   22206674.5884
      1499.6254
    229402.74749    186955.35647  21309952.5254   21309946.7404
     -1532.9534
 04  9 16 16 20  0.0020000  0  6G 1G11G14G23G20G25
  -1914724.16449  -1485037.50548  21207339.9944   21207334.5454
      -477.0944
   4740291.55549   3694704.80047  22457890.5644   22457884.6074
     -2477.1564
  16029482.72549  12466251.75646  24399880.2754   24399875.7134
     -3647.9694
  -4685046.79749  -3645235.09447  23493037.8614   23493029.9164
      1600.7814
  -9515277.87549  -7402924.15847  22202406.5494   22202400.7914
      1495.4064
    252462.49549    204923.98648  21314340.8224   21314334.6194
     -1541.4064
 04  9 16 16 20 15.0020000  0  6G 1G11G14G23G20G25
  -1907529.72749  -1479431.46248  21208709.3854   21208703.6434
      -482.2344
   4777511.18749   3723707.09447  22464972.8694   22464966.7684
     -2485.4534
  16084209.94349  12508896.31646  24410294.7994   24410290.5454
     -3649.1564
  -4709033.81649  -3663926.27247  23488472.9864   23488465.3034
      1597.4844
  -9537673.52549  -7420375.30747  22198144.8934   22198138.5804
      1490.6094
    275650.89649    222992.86848  21318753.3224   21318747.6044
     -1550.4064
 04  9 16 16 20 30.0020000  0  6G 1G11G14G23G20G25
  -1900259.85949  -1473766.61948  21210092.7214   21210087.3654
      -486.8914
   4814853.84749   3752805.26047  22472078.9084   22472073.2404
     -2493.2664
  16138953.15349  12551553.35546  24420712.6504   24420707.4084
     -3649.8444
  -4732971.65149  -3682579.10047  23483918.4084   23483910.1704
      1594.5634
  -9559999.61049  -7437772.24947  22193896.4864   22193889.9434
      1486.3754
    298971.81849    241165.01248  21323191.2604   21323185.2604
     -1558.8594
 04  9 16 16 20 45.0020000  0  6G 1G11G14G23G20G25
  -1892922.89549  -1468049.50948  21211488.7524   21211483.0144
      -491.5944
   4852311.05649   3781992.68447  22479207.5254   22479201.0494
     -2501.0784
  16193704.17849  12594216.42346  24431131.0804   24431125.6154
     -3650.5314
  -4756868.46849  -3701199.99847  23479371.3774   23479362.6784
      1591.6094
  -9582264.09049  -7455121.19647  22189659.5724   22189653.1744
      1482.1254
    322416.74949    259433.78147  21327652.8384   21327646.9754
     -1567.2814
 04  9 16 16 21  0.0020000  0  6G 1G11G14G23G20G25
  -1885513.08249  -1462275.62248  21212899.0414   21212893.1114
      -496.2974
   4889888.40349   3811273.71547  22486358.2214   22486351.7994
     -2509.0784
  16248468.74749  12636890.09446  24441552.4244   24441547.4044
     -3651.3124
  -4780718.29849  -3719784.25747  23474832.5254   23474824.4714
      1588.5004
  -9604460.84249  -7472417.36247  22185435.7994   22185429.2914
      1477.6094
    345991.40749    277803.65747  21332138.7524   21332132.9864
     -1575.8444
 04  9 16 16 21 15.0020000  0  6G 1G11G14G23G20G25
  -1878032.76449  -1456446.80248  21214322.2684   21214316.9124
      -501.0784
   4927583.26449   3840646.33647  22493530.9244   22493524.6314
     -2517.0314
  16303244.44449  12679572.45946  24451976.2604   24451970.9594
     -3652.1254
  -4804523.44249  -3738333.70147  23470302.1584   23470294.1394
      1585.4534
  -9626591.82749  -7489662.27547  22181224.7444   22181218.1504
      1473.1724
    369693.38349    296272.72947  21336648.9864   21336642.9244
     -1584.4064
 04  9 16 16 21 30.0020000  0  6G 1G11G14G23G20G25
  -1870484.60149  -1450565.12347  21215758.7754   21215752.9364
      -505.5164
   4965392.95749   3870108.41347  22500726.4164   22500719.7134
     -2524.5784
  16358028.55449  12722261.34146  24462400.8544   24462395.8424
     -3652.6564
  -4828286.51849  -3756850.36847  23465779.8544   23465772.5254
      1582.8284
  -9648659.46949  -7506857.85147  22177025.0494   22177019.1114
      1469.0784
    393519.88849    314838.82748  21341183.0104   21341176.9004
     -1592.6094
 04  9 16 16 21 45.0020000  0  6G 1G11G14G23G20G25
  -1862867.07549  -1444629.38648  21217208.2524   21217202.6624
      -509.9844
   5003318.72849   3899660.97047  22507943.0334   22507936.3264
     -2532.0624
  16412822.63349  12764958.03646  24472827.8934   24472822.6154
     -3653.1724
  -4852005.83049  -3775332.94647  23461266.0644   23461259.0644
      1579.9844
  -9670661.95549  -7524002.63647  22172838.0334   22172831.6464
      1464.7974
    417472.40249    333503.13047  21345741.1274   21345735.0884
     -1600.8914
 04  9 16 16 22  0.0020000  0  6G 1G11G14G23G20G25
  -1855182.68649  -1438641.55748  21218670.5184   21218665.2684
      -514.6414
   5041357.84549   3929301.80547  22515181.4394   22515175.6274
     -2539.7814
  16467624.15549  12807660.47146  24483255.9084   24483251.1394
     -3653.6564
  -4875683.85749  -3793783.33047  23456761.0804   23456753.1154
      1577.0634
  -9692601.48349  -7541098.35847  22168662.9554   22168656.5964
      1460.5164
    441548.22249    352263.50747  21350322.6664   21350316.6434
     -1609.2344
 04  9 16 16 22 15.0020000  0  6G 1G11G14G23G20G25
  -1847426.98849  -1432598.14548  21220146.3384   21220141.0414
      -519.3284
   5079514.66349   3959034.38647  22522442.3934   22522436.4674
     -2547.5944
  16522437.57349  12850372.17146  24493686.7754   24493682.6664
     -3654.5624
  -4899316.03749  -3812197.99347  23452263.7134   23452255.7954
      1574.1414
  -9714473.24949  -7558141.29647  22164500.9324   22164495.0334
      1456.0164
    465751.66149    371123.33548  21354928.4554   21354922.3814
     -1617.6724
 04  9 16 16 22 30.0020000  0  6G 1G11G14G23G20G25
  -1839597.32549  -1426497.11348  21221636.2834   21221630.6274
      -524.3124
   5117791.58149   3988860.55347  22529726.5334   22529720.3344
     -2555.6724
  16577265.51749  12893095.18646  24504121.2914   24504116.0144
     -3655.5624
  -4922899.59849  -3830574.76947  23447776.0884   23447767.6744
      1570.7194
  -9736274.30949  -7575129.12247  22160352.5644   22160346.5064
      1451.1564
    490085.38449    390084.66548  21359558.6114   21359552.6894
     -1626.4694
 04  9 16 16 22 45.0020000  0  6G 1G11G14G23G20G25
  -1831696.59649  -1420340.70648  21223140.0644   21223134.4124
      -529.2504
   5156185.47549   4018777.85847  22537032.4084   22537026.1864
     -2563.7194
  16632105.21549  12935827.48846  24514556.2294   24514551.3264
     -3656.6414
  -4946437.31549  -3848915.84647  23443297.3774   23443288.3074
      1567.4384
  -9758007.22549  -7592063.86747  22156217.1194   22156210.2794
      1446.3284
    514546.37049    409145.16947  21364213.9244   21364207.5184
     -1635.2194
 04  9 16 16 23  0.0020000  0  6G 1G11G14G23G20G25
  -1823725.17749  -1414129.21348  21224656.7054   21224651.0884
      -534.1414
   5194695.92749   4048785.99247  22544360.7754   22544354.6154
     -2571.5944
  16686956.16149  12978568.44846  24524994.0574   24524988.9944
     -3657.4534
  -4969929.49149  -3867221.42347  23438826.9794   23438818.3734
      1564.2504
  -9779672.07149  -7608945.55747  22152094.2524   22152087.7324
      1441.6884
    539134.27649    428304.58348  21368892.4944   21368886.3144
     -1643.7194
 04  9 16 16 23 15.0020000  0  6G 1G11G14G23G20G25
  -1815686.10749  -1407865.00048  21226186.3544   21226181.3814
      -538.1414
   5233319.68549   4078882.42447  22551710.9474   22551704.7914
     -2578.6564
  16741815.45449  13021315.88846  24535433.1824   24535428.4714
     -3657.4694
  -4993379.01849  -3885493.75647  23434364.1664   23434355.8854
      1561.8754
  -9801271.46249  -7625776.24847  22147983.8614   22147977.8344
      1437.8134
    563845.90949    447560.40148  21373595.0024   21373588.7754
     -1651.5314
 04  9 16 16 23 30.0020000  0  6G 1G11G14G23G20G25
  -1807576.35649  -1401545.71048  21227729.7754   21227724.4824
      -542.9844
   5272059.45849   4109069.23547  22559082.6434   22559076.6194
     -2586.4694
  16796686.03649  13064072.16646  24545875.5334   24545869.9754
     -3658.4064
  -5016782.79949  -3903730.47147  23429910.9244   23429902.0024
      1558.6884
  -9822802.17049  -7642553.42047  22143886.6114   22143880.3894
      1433.1094
    588684.06449    466914.80548  21378322.0254   21378315.4284
     -1660.0474
 04  9 16 16 23 45.0020000  0  6G 1G11G14G23G20G25
  -1799397.84749  -1395172.85348  21229286.2754   21229280.5414
      -546.7814
   5310913.21849   4139344.88447  22566476.3074   22566469.9284
     -2593.3284
  16851565.99849  13106835.78646  24556317.5254   24556313.0214
     -3658.3124
  -5040142.68349  -3921932.95047  23425465.2754   23425457.2134
      1556.4844
  -9844265.75249  -7659278.28447  22139802.4164   22139796.3264
      1429.3284
    613646.75349    486366.25948  21383071.5884   21383065.4084
     -1667.6414
 04  9 16 16 24  0.0020000  0  6G 1G11G14G23G20G25
  -1791152.99549  -1388748.31048  21230855.2444   21230849.6114
      -552.3594
   5349878.30049   4169707.26147  22573891.1354   22573884.7644
     -2601.8284
  16906452.75349  13149604.60746  24566763.0104   24566758.1624
     -3659.7194
  -5063461.11249  -3940103.13047  23421027.7994   23421019.6434
      1552.6884
  -9865664.43749  -7675952.58947  22135730.3224   22135724.1154
      1423.8754
    638731.62749    505912.90647  21387845.2754   21387839.2754
     -1676.9064
 04  9 16 16 24 15.0020000  0  6G 1G11G14G23G20G25
  -1782839.37949  -1382270.15548  21232437.3304   21232432.0764
      -555.9374
   5388956.90049   4200158.10447  22581327.4084   22581321.1664
     -2608.4534
  16961348.88449  13192380.82446  24577208.4714   24577204.2564
     -3659.5004
  -5086735.38049  -3958238.91647  23416599.2684   23416590.9124
      1550.6564
  -9886995.37649  -7692574.09147  22131671.2054   22131664.6274
      1420.3284
    663940.84949    525556.47148  21392642.3774   21392636.0644
     -1684.2194
 04  9 16 16 24 30.0020000  0  6G 1G11G14G23G20G25
  -1774460.67549  -1375741.30047  21234031.5104   21234026.0804
      -560.8594
   5428145.21349   4230694.43747  22588784.6434   22588778.7134
     -2616.3444
  17016250.61449  13235161.28046  24587656.3304   24587651.8544
     -3660.3914
  -5109969.14949  -3976343.12947  23412177.7524   23412169.3384
      1547.4384
  -9908261.94049  -7709145.43847  22127624.3144   22127618.0924
      1415.4694
    689270.57249    545293.91748  21397462.9324   21397456.3464
     -1692.7664
 04  9 16 16 24 45.0020000  0  6G 1G11G14G23G20G25
  -1766011.72949  -1369157.70948  21235639.3774   21235633.2794
      -565.7974
   5467448.26549   4261320.17547  22596263.6274   22596258.0064
     -2624.2814
  17071163.16349  13277950.30246  24598105.9084   24598101.3224
     -3661.3594
  -5133157.16249  -3994411.68947  23407765.1894   23407757.3694
      1544.1094
  -9929458.58649  -7725662.30047  22123590.9004   22123584.4824
      1410.5474
    714725.88249    565129.21848  21402306.4164   21402300.1894
     -1701.4064
 04  9 16 16 25  0.0020000  0  6G 1G11G14G23G20G25
  -1757489.14749  -1362516.74048  21237261.0184   21237255.3424
      -570.5314
   5506869.02149   4292037.62747  22603765.5964   22603759.3964
     -2631.8284
  17126089.82249  13320750.23346  24608557.9944   24608553.3114
     -3662.1254
  -5156295.96949  -4012441.91847  23403361.7214   23403354.1274
      1541.1724
  -9950581.69549  -7742121.86347  22119571.1664   22119565.3464
      1405.8594
    740310.16249    585065.01747  21407175.0254   21407169.1154
     -1709.7814
 04  9 16 16 25 15.0020000  0  6G 1G11G14G23G20G25
  -1748898.73249  -1355822.90148  21238895.5804   21238890.3224
      -574.7344
   5546401.74549   4322842.35047  22611288.3614   22611282.5764
     -2639.0164
  17181024.99949  13363556.87946  24619012.6044   24619006.9904
     -3662.4534
  -5179391.16649  -4030438.15847  23398967.5494   23398959.4944
      1538.4694
  -9971636.66549  -7758528.32947  22115564.5414   22115558.0884
      1401.6414
    766017.51349    605096.72647  21412066.8774   21412061.5064
     -1717.7034
 04  9 16 16 25 30.0020000  0  6G 1G11G14G23G20G25
  -1740239.34149  -1349075.34048  21240543.3384   21240538.1194
      -579.2504
   5586047.37849   4353735.03747  22618832.8614   22618826.6354
     -2646.4694
  17235969.69749  13406370.92546  24629467.6044   24629462.7364
     -3662.9694
  -5202441.48549  -4048399.42847  23394581.1194   23394572.7324
      1535.5784
  -9992622.06249  -7774880.58147  22111571.3464   22111564.4674
      1397.0474
    791849.09049    625225.22348  21416982.6744   21416976.4984
     -1725.9064
 04  9 16 16 25 45.0020000  0  6G 1G11G14G23G20G25
  -1731509.84049  -1342273.13148  21242204.5964   21242199.3774
      -584.2344
   5625806.70649   4384716.30647  22626398.7914   22626392.5614
     -2654.4064
  17290925.10749  13449193.26346  24639925.5964   24639920.6894
     -3664.0164
  -5225445.90049  -4066324.94947  23390203.3774   23390195.2604
      1532.1564
 -10013536.29949  -7791177.40647  22107591.1974   22107584.6704
      1391.9064
    817805.76449    645451.19448  21421922.1504   21421916.0454
     -1734.6094
 04  9 16 16 26  0.0020000  0  6G 1G11G14G23G20G25
  -1722708.74949  -1335415.15048  21243879.7604   21243873.8264
      -589.5004
   5665680.99149   4415787.16547  22633986.5494   22633980.3504
     -2662.5474
  17345892.72349  13492025.13446  24650386.3304   24650380.4864
     -3665.2344
  -5248402.67249  -4084213.33047  23385834.4324   23385826.7994
      1528.5004
 -10034377.70949  -7807417.45947  22103625.4864   22103618.8074
      1386.5784
    843889.01449    665775.80047  21426885.6194   21426879.3424
     -1743.5164
 04  9 16 16 26 15.0020000  0  6G 1G11G14G23G20G25
  -1713834.83649  -1328500.39148  21245568.3144   21245562.9944
      -594.0944
   5705671.34649   4446948.47347  22641596.4794   22641590.6894
     -2670.0164
  17400873.87449  13534867.60346  24660847.9164   24660843.1434
     -3665.7344
  -5271310.42249  -4102063.49547  23381475.3694   23381467.6784
      1525.5004
 -10055144.76449  -7823599.56547  22099673.5024   22099667.5024
      1381.9384
    870099.81849    686199.82148  21431873.1274   21431867.7014
     -1751.6724
 04  9 16 16 26 30.0020000  0  6G 1G11G14G23G20G25
  -1704892.93549  -1321532.68048  21247269.8304   21247264.3614
      -598.2034
   5745772.76449   4478196.30747  22649227.3774   22649221.3964
     -2676.9064
  17455863.53149  13577716.57746  24671311.9714   24671307.7054
     -3666.0624
  -5294173.97749  -4119879.24647  23377124.5644   23377116.1894
      1522.9694
 -10075841.92449  -7839727.22647  22095735.0724   22095728.6434
      1377.6724
    896433.21049    706719.34248  21436884.5104   21436878.4634
     -1759.3754
 04  9 16 16 26 45.0020000  0  6G 1G11G14G23G20G25
  -1695886.73049  -1314514.86148  21248983.6894   21248978.8814
      -602.4374
   5785981.41649   4509527.70847  22656879.0964   22656873.2094
     -2684.0164
  17510858.16449  13620569.53446  24681777.2604   24681772.6934
     -3666.3594
  -5316996.81849  -4137663.25847  23372781.8774   23372773.7914
      1520.3754
 -10096472.55149  -7855803.01947  22091808.9554   22091803.1974
      1373.3754
    922885.40449    727331.44848  21441917.9944   21441912.1434
     -1767.2664
 04  9 16 16 27  0.0020000  0  6G 1G11G14G23G20G25
  -1686814.04249  -1307445.24148  21250709.9794   21250704.6354
      -606.7664
   5826299.39549   4540944.29947  22664550.9714   22664545.7054
     -2691.2194
  17565859.81949  13663427.93346  24692244.2214   24692238.9824
     -3666.6414
  -5339776.77249  -4155413.88047  23368446.7834   23368438.9284
      1517.5004
 -10117034.13249  -7871825.03047  22087895.9794   22087890.2714
      1368.7814
    949458.59749    748037.82348  21446974.8144   21446968.4944
     -1775.2974
 04  9 16 16 27 15.0020000  0  6G 1G11G14G23G20G25
  -1677673.09649  -1300322.41648  21252449.5574   21252444.7294
      -611.9534
   5866727.96649   4572447.06747  22672244.8144   22672238.4284
     -2699.2344
  17620870.25049  13706293.22946  24702712.2444   24702707.3964
     -3668.0314
  -5362511.98549  -4173129.60047  23364120.1434   23364112.1864
      1513.8914
 -10137524.61449  -7887791.63547  22083997.1274   22083991.1434
      1363.3284
    976154.34849    768839.70748  21452054.6894   21452048.3384
     -1784.0624
 04  9 16 16 27 30.0020000  0  6G 1G11G14G23G20G25
  -1668463.57849  -1293146.17348  21254202.1504   21254196.7874
      -616.0474
   5907267.21049   4604036.08047  22679959.2604   22679953.0454
     -2706.1874
  17675889.75149  13749165.47246  24713181.9714   24713177.0254
     -3668.0474
  -5385202.03349  -4190810.15347  23359802.5804   23359794.4514
      1511.3594
 -10157943.33249  -7903702.32748  22080111.7054   22080105.6234
      1359.0314
   1002972.89349    789737.27548  21457158.3934   21457152.6114
     -1791.8124
 04  9 16 16 27 45.0020000  0  6G 1G11G14G23G20G25
  -1659187.15249  -1285917.78848  21255967.2294   21255962.5724
      -620.6414
   5947915.23149   4635709.83447  22687693.4864   22687688.4434
     -2713.4844
  17730916.73649  13792043.64146  24723653.5804   24723649.8184
     -3668.7814
  -5407848.49749  -4208456.74647  23355492.8854   23355485.6434
      1508.3444
 -10178291.69049  -7919558.18548  22076239.1974   22076233.5924
      1354.2664
   1029912.52849    810729.19748  21462284.5964   21462279.2294
     -1799.9694
 04  9 16 16 28  0.0020000  0  6G 1G11G14G23G20G25
  -1649837.59449  -1278632.42648  21257746.5884   21257741.7914
      -625.6564
   5988678.25649   4667473.22047  22695450.2364   22695445.1194
     -2721.2344
  17785957.54049  13834932.54346  24734127.0964   24734123.3654
     -3669.6874
  -5430444.98349  -4226064.39047  23351192.6664   23351185.6274
      1504.8134
 -10198563.03849  -7935354.04248  22072381.7054   22072375.8384
      1348.9384
   1056979.31849    831820.20648  21467435.4244   21467429.8894
     -1808.5624
 04  9 16 16 28 15.0020000  0  6G 1G11G14G23G20G25
  -1640418.88349  -1271293.17548  21259538.6434   21259533.9824
      -630.2344
   6029552.01149   4699322.88347  22703228.9394   22703222.7364
     -2728.6254
  17841008.17049  13877829.11246  24744602.8144   24744599.2404
     -3670.4844
  -5452995.46649  -4243636.17447  23346901.7444   23346894.1154
      1501.7344
 -10218761.14949  -7951092.83048  22068538.0574   22068532.5724
      1344.0164
   1084169.14149    853007.06948  21472609.2604   21472603.5724
     -1816.8284
 04  9 16 16 28 30.0020000  0  6G 1G11G14G23G20G25
  -1630925.39749  -1263895.65048  21261345.2754   21261340.1624
      -635.1874
   6070542.09049   4731263.19747  22711029.3614   22711023.4674
     -2736.4064
  17896074.05249  13920737.54946  24755082.0804   24755077.9864
     -3671.4224
  -5475494.09849  -4261167.56247  23342620.5884   23342612.7444
      1498.3134
 -10238880.02949  -7966769.87948  22064709.8464   22064703.9904
      1338.7344
   1111487.57249    874294.16548  21477807.7444   21477801.9434
     -1825.3284
 04  9 16 16 28 45.0020000  0  6G 1G11G14G23G20G25
  -1621365.14949  -1256446.11048  21263164.7134   21263160.1314
      -639.2664
   6111640.06149   4763287.56447  22718849.9244   22718843.9204
     -2743.1254
  17951147.34149  13963651.80546  24765562.0644   24765558.2484
     -3671.3914
  -5497948.87949  -4278664.78247  23338347.2444   23338339.8074
      1495.8914
 -10258927.37149  -7982391.16948  22060895.0104   22060888.7214
      1334.4224
   1138926.39149    895675.05948  21483029.0884   21483023.5024
     -1832.9224
 04  9 16 16 29  0.0020000  0  6G 1G11G14G23G20G25
  -1611741.07149  -1248946.83148  21264996.0494   21264991.5374
      -644.4844
   6152842.76749   4795393.57047  22726690.6664   22726684.9084
     -2751.0624
  18006225.10249  14006569.51746  24776043.2914   24776039.3264
     -3672.6724
  -5520362.60949  -4296129.99847  23334081.9554   23334074.9514
      1492.1884
 -10278905.69949  -7997958.70348  22057093.0494   22057087.4824
      1328.9064
   1166482.56649    917147.40548  21488272.6744   21488267.4984
     -1841.6724
 04  9 16 16 29 15.0020000  0  6G 1G11G14G23G20G25
  -1602042.27649  -1241389.32448  21266841.7994   21266836.9004
      -648.8124
   6194160.91549   4827589.50947  22734553.3544   22734547.7404
     -2758.0624
  18061318.21249  14049499.14146  24786527.1824   24786522.9164
     -3673.0004
  -5542724.24649  -4313554.64347  23329827.4394   23329819.8184
      1489.3134
 -10298803.86549  -8013463.76548  22053306.3614   22053300.7484
      1324.0784
   1194166.91249    938719.61448  21493541.2214   21493535.5064
     -1849.5314
 04  9 16 16 29 30.0020000  0  6G 1G11G14G23G20G25
  -1592277.97249  -1233780.77648  21268699.6894   21268695.2054
      -653.3284
   6235585.25849   4859868.20047  22742435.4164   22742430.7444
     -2765.3124
  18116417.52949  14092433.66846  24797012.1354   24797008.1664
     -3673.7664
  -5565042.92149  -4330945.79847  23325580.0804   23325572.2524
      1486.2664
 -10318630.81849  -8028913.32948  22049533.9244   22049527.9474
      1319.2344
   1221970.05049    960384.39348  21498831.8384   21498825.9474
     -1857.6874
 04  9 16 16 29 45.0020000  0  6G 1G11G14G23G20G25
  -1582444.55949  -1226118.38448  21270571.1434   21270565.9044
      -657.8284
   6277119.03549   4892232.17147  22750339.4324   22750334.1824
     -2772.5314
  18171526.55649  14135375.72046  24807499.6894   24807495.0764
     -3674.1874
  -5587315.03249  -4348300.69147  23321341.8384   23321333.9594
      1483.2504
 -10338382.51449  -8044304.27048  22045775.0884   22045769.5064
      1314.2504
   1249895.44349    982144.43648  21504146.1354   21504140.1464
     -1865.7344
 04  9 16 16 30  0.0020000  0  6G 1G11G14G23G20G25
  -1572544.85249  -1218404.31848  21272454.9164   21272449.6314
      -662.2664
   6318759.22949   4924679.05747  22758263.4794   22758257.7174
     -2779.6564
  18226642.56149  14178323.22446  24817987.9084   24817983.6074
     -3674.7194
  -5609543.32449  -4365621.41547  23317111.6114   23317104.0964
      1480.3594
 -10358061.50549  -8059638.53948  22042030.2994   22042024.6394
      1309.4694
   1277940.08249   1003997.40648  21509482.6584   21509477.0414
     -1873.6724
 04  9 16 16 30 15.0020000  0  6G 1G11G14G23G20G25
  -1562572.19949  -1210633.42348  21274352.5254   21274348.0684
      -667.4374
   6360512.36049   4957213.95447  22766208.9864   22766203.3574
     -2787.4374
  18281772.16849  14221281.29846  24828477.3304   24828474.4124
     -3675.9844
  -5631720.97649  -4382902.69647  23312891.6974   23312883.8854
      1476.6564
 -10377660.74349  -8074910.68148  22038300.7294   22038295.1544
      1303.7974
   1306110.62349   1025948.47848  21514843.2444   21514838.1314
     -1882.3594
 04  9 16 16 30 30.0020000  0  6G 1G11G14G23G20G25
  -1552529.38949  -1202807.86248  21276263.7834   21276259.0184
      -671.6874
   6402375.21749   4989834.34147  22774174.9474   22774169.9124
     -2794.3914
  18336912.47649  14264247.82646  24838970.8224   24838967.5024
     -3676.0944
  -5653850.69449  -4400146.61947  23308680.0574   23308672.3034
      1473.8754
 -10397182.84149  -8090122.70348  22034585.9714   22034579.5454
      1299.0474
   1334404.07249   1047995.31148  21520227.4864   21520221.6784
     -1890.1414
 04  9 16 16 30 45.0020000  0  6G 1G11G14G23G20G25
  -1542419.35249  -1194929.90048  21278187.5334   21278182.9244
      -676.4694
   6444344.63849   5022537.77247  22782161.6744   22782155.5844
     -2801.7034
  18392060.65349  14307220.37246  24849465.8074   24849461.2444
     -3677.1094
  -5675935.30249  -4417355.39247  23304477.7754   23304470.2134
      1470.5944
 -10416630.39249  -8105276.62448  22030884.9634   22030879.2564
      1293.8284
   1362817.31349   1070135.50348  21525634.5104   21525628.5534
     -1898.4534
 04  9 16 16 31  0.0020000  0  6G 1G11G14G23G20G25
  -1532237.76949  -1186996.19848  21280124.6194   21280120.2444
      -681.1724
   6486425.15549   5055327.77247  22790169.1194   22790163.8854
     -2808.9844
  18447221.10649  14350202.40946  24859961.7214   24859957.9364
     -3677.9534
  -5697970.41649  -4434525.59447  23300284.6194   23300277.3144
      1467.3914
 -10435998.62849  -8120368.75348  22027199.3144   22027193.5844
      1288.5634
   1391354.59949   1092372.35048  21531064.7444   21531059.3344
     -1906.6094
 04  9 16 16 31 15.0020000  0  6G 1G11G14G23G20G25
  -1521988.28949  -1179009.60748  21282075.5184   21282070.3774
      -685.7034
   6528612.63249   5088201.11747  22798196.9864   22798191.2914
     -2816.2664
  18502390.26749  14393191.37046  24870460.5104   24870456.0724
     -3678.3914
  -5719959.57749  -4451659.99747  23296100.0494   23296092.5574
      1464.1884
 -10455290.84749  -8135401.64648  22023528.2294   22023522.3074
      1283.4534
   1420012.31849   1114703.03048  21536518.0024   21536512.4004
     -1914.6874
 04  9 16 16 31 30.0030000  0  6G 1G11G14G23G20G25
  -1511665.96849  -1170966.24048  21284039.5304   21284034.7334
      -690.3594
   6570913.75549   5121163.02847  22806246.5694   22806241.2844
     -2823.3914
  18557575.86449  14436193.14346  24880961.7414   24880957.5224
     -3678.8914
  -5741899.95149  -4468756.37547  23291925.1244   23291917.6364
      1461.0784
 -10474503.89049  -8150372.83848  22019871.8744   22019866.2144
      1278.3284
   1448796.32349   1137132.12448  21541995.6164   21541990.2454
     -1922.7194
 04  9 16 16 31 45.0030000  0  6G 1G11G14G23G20G25
  -1501273.31149  -1162868.06448  21286017.3584   21286012.6204
      -695.2194
   6613321.63649   5154208.11347  22814316.5154   22814311.1984
     -2830.8284
  18612769.56749  14479201.21646  24891465.4994   24891460.4094
     -3679.9374
  -5763789.52149  -4485813.16447  23287760.4294   23287752.3154
      1457.6414
 -10493635.85749  -8165280.86848  22016231.3974   22016225.6284
      1272.8134
   1477701.65249   1159655.75448  21547496.0384   21547490.4914
     -1931.1414
 04  9 16 16 32  0.0030000  0  6G 1G11G14G23G20G25
  -1490815.05249  -1154718.77048  21288007.4764   21288002.6634
      -699.3444
   6655833.60849   5187334.30647  22822406.2574   22822400.8194
     -2837.5624
  18667969.68249  14522214.29646  24901969.2884   24901965.5694
     -3680.1254
  -5785634.98849  -4502835.58347  23283602.6324   23283594.6754
      1454.9064
 -10512693.21749  -8180130.74148  22012604.7654   22012599.1904
      1268.0784
   1506724.60949   1182271.05248  21553018.9994   21553013.6044
     -1938.7194
 04  9 16 16 32 15.0030000  0  6G 1G11G14G23G20G25
  -1480292.35249  -1146519.26048  21290010.1014   21290005.0774
      -703.7814
   6698448.14949   5220540.42547  22830516.0774   22830510.3514
     -2844.4844
  18723174.89849  14565231.25346  24912474.2184   24912470.2294
     -3680.5784
  -5807437.54949  -4519824.57247  23279453.9444   23279446.2694
      1451.9694
 -10531676.87149  -8194923.20747  22008992.2414   22008986.4214
      1263.0004
   1535863.79649   1204976.90948  21558563.7804   21558558.5304
     -1946.5164
 04  9 16 16 32 30.0030000  0  6G 1G11G14G23G20G25
  -1469697.97349  -1138263.92748  21292025.7414   21292020.5194
      -708.8284
   6741172.31449   5253831.95447  22838645.7964   22838639.9684
     -2852.0474
  18778392.49549  14608257.93846  24922982.4994   24922978.2024
     -3681.7034
  -5829189.90049  -4536774.47147  23275314.0304   23275306.2694
      1448.3284
 -10550579.22649  -8209652.33047  22005395.3354   22005389.0694
      1257.3444
   1565126.44749   1227778.95048  21564132.4604   21564126.2574
     -1955.0474
 04  9 16 16 32 45.0030000  0  6G 1G11G14G23G20G25
  -1459031.73749  -1129952.56947  21294055.8744   21294050.4134
      -713.3284
   6784006.01649   5287208.83747  22846797.2884   22846791.0584
     -2858.9694
  18833622.52049  14651294.30746  24933492.3584   24933487.7264
     -3682.2664
  -5850891.71149  -4553684.95647  23271184.7024   23271176.4174
      1445.2974
 -10569399.72949  -8224317.65147  22001813.8904   22001807.8514
      1252.1414
   1594512.56549   1250677.22348  21569724.4914   21569718.4764
     -1962.9694
 04  9 16 16 33  0.0030000  0  6G 1G11G14G23G20G25
  -1448297.10949  -1121587.92548  21296098.2884   21296093.1944
      -717.8284
   6826945.64349   5320668.27647  22854967.7184   22854962.2064
     -2866.0784
  18888861.78149  14694337.86046  24944002.9374   24943999.1284
     -3682.9534
  -5872546.32349  -4570558.66247  23267063.7724   23267056.0544
      1442.1564
 -10588141.51049  -8238921.63347  21998247.6874   21998241.5304
      1246.9534
   1624018.51549   1273668.86948  21575339.0154   21575333.3584
     -1970.9534
 04  9 16 16 33 15.0030000  0  6G 1G11G14G23G20G25
  -1437497.26649  -1113172.47348  21298153.6944   21298147.8904
      -721.9374
   6869987.65049   5354207.48947  22863158.8274   22863152.8044
     -2872.6254
  18944106.88649  14737385.87946  24954515.9374   24954512.0384
     -3682.8914
  -5894156.99649  -4587398.13047  23262951.8354   23262943.5304
      1439.4384
 -10606807.47349  -8253466.54447  21994695.6084   21994688.9404
      1242.0944
   1653641.13049   1296751.42048  21580975.6554   21580970.2294
     -1978.5314
 04  9 16 16 33 30.0030000  0  6G 1G11G14G23G20G25
  -1426634.27649  -1104707.80748  21300220.8514   21300215.2374
      -726.9534
   6913129.96149   5387824.85647  22871368.1554   22871362.5344
     -2880.1254
  18999355.90449  14780437.03546  24965030.3124   24965025.3664
     -3684.0474
  -5915725.53249  -4604204.78347  23258846.8744   23258839.0114
      1435.8284
 -10625399.23249  -8267953.63247  21991157.6714   21991151.1324
      1236.3284
   1683378.22949   1319923.18248  21586634.9764   21586628.7964
     -1986.9694
 04  9 16 16 33 45.0030000  0  6G 1G11G14G23G20G25
  -1415700.57949  -1096188.03648  21302301.3974   21302295.7414
      -731.4694
   6956379.66149   5421525.89947  22879598.2414   22879592.6164
     -2887.1254
  19054616.36949  14823497.11046  24975547.1324   24975541.6364
     -3684.5474
  -5937244.30149  -4620972.64447  23254752.1634   23254744.0114
      1432.7034
 -10643909.07749  -8282376.88847  21987635.2884   21987628.9644
      1231.0164
   1713236.95549   1343189.71548  21592317.1794   21592310.7024
     -1994.8284
 04  9 16 16 34  0.0030000  0  6G 1G11G14G23G20G25
  -1404696.22949  -1087613.22848  21304395.2964   21304389.8864
      -735.6254
   6999736.58949   5455310.50247  22887849.0544   22887842.6984
     -2893.6724
  19109888.33949  14866566.16846  24986064.3664   24986059.3824
     -3684.7814
  -5958713.40749  -4637701.80447  23250667.1324   23250658.4994
      1429.9384
 -10662336.60649  -8296735.99947  21984129.0694   21984122.3154
      1226.0944
   1743217.12349   1366550.88248  21598021.9994   21598016.0344
     -2002.3754
 04  9 16 16 34 15.0030000  0  6G 1G11G14G23G20G25
  -1393625.39649  -1078986.59748  21306502.1474   21306496.7024
      -740.6094
   7043196.46249   5489175.32847  22896118.7184   22896112.9724
     -2901.1094
  19165167.63249  14909640.95246  24996582.2884   24996578.2574
     -3685.9844
  -5980136.78049  -4654395.32747  23246589.7414   23246581.8974
      1426.3284
 -10680685.69749  -8311033.98547  21980636.8124   21980630.4054
      1220.2974
   1773314.53249   1390003.40548  21603749.4994   21603743.6244
     -2010.7664
 04  9 16 16 34 30.0030000  0  6G 1G11G14G23G20G25
  -1382481.88549  -1070303.35147  21308622.7024   21308617.1444
      -745.4534
   7086765.05949   5523124.87047  22904409.8194   22904404.1084
     -2908.3284
  19220460.38649  14952726.12146  25007104.7184   25007100.0424
     -3686.6874
  -6001508.16049  -4671048.35347  23242523.0544   23242515.0304
      1422.8914
 -10698950.01549  -8325265.92147  21977161.3434   21977155.1444
      1214.6724
   1803535.27949   1413552.03848  21609500.2184   21609494.1474
     -2018.9374
 04  9 16 16 34 45.0030000  0  6G 1G11G14G23G20G25
  -1371269.38149  -1061566.33047  21310756.3044   21310750.3394
      -749.8914
   7130438.62349   5557156.19947  22912721.3824   22912714.9094
     -2915.1414
  19275762.98849  14995819.08346  25017628.8974   25017623.7764
     -3687.1724
  -6022831.06049  -4687663.57547  23238465.0304   23238457.5654
      1419.7974
 -10717132.71849  -8339434.25947  21973701.5854   21973694.9994
      1209.3754
   1833875.68649   1437193.91048  21615273.8974   21615267.8974
     -2026.7034
 04  9 16 16 35  0.0030000  0  5G 1G11G23G20G25
  -1359988.87449  -1052776.32648  21312902.8664   21312897.4374
      -754.2504
   7174215.84049   5591268.29147  22921051.8974   22921045.2844
     -2921.9064
  -6044106.50349  -4704241.82647  23234416.9214   23234408.8784
      1416.8594
 -10735234.60949  -8353539.63347  21970256.6794   21970250.4134
      1204.1724
   1864334.49149   1460928.03948  21621069.8124   21621063.9174
     -2034.4224
 04  9 16 16 35 15.0030000  0  5G 1G11G23G20G25
  -1348639.02749  -1043932.30148  21315062.5384   21315057.2224
      -759.0784
   7218097.72549   5625461.96547  22929402.1474   22929395.9524
     -2929.0004
  -6065333.06149  -4720781.98147  23230378.2024   23230369.8194
      1413.3754
 -10753253.93649  -8367580.66447  21966827.4444   21966821.2264
      1198.4224
   1894912.84449   1484755.31748  21626888.8744   21626882.4794
     -2042.6564
 04  9 16 16 35 30.0030000  0  5G 1G11G23G20G25
  -1337222.87449  -1035036.59848  21317235.2264   21317230.1714
      -763.7034
   7262081.27649   5659734.84247  22937771.8194   22937765.7454
     -2936.0164
  -6086513.54249  -4737286.22547  23226347.2264   23226339.0114
      1410.0314
 -10771193.35649  -8381559.43747  21963413.7334   21963407.8084
      1192.9224
   1925607.66049   1508673.36248  21632729.8904   21632723.7924
     -2050.5944
 04  9 16 16 35 45.0030000  0  5G 1G11G23G20G25
  -1325742.26049  -1026090.65948  21319419.8274   21319414.2264
      -767.4224
   7306164.15449   5694085.11647  22946160.6404   22946154.8704
     -2942.0784
  -6107649.78849  -4753756.02747  23222324.8194   23222316.9174
      1407.6724
 -10789054.42349  -8395477.14147  21960014.8664   21960008.7574
      1188.2344
   1956416.92149   1532680.57948  21638592.2104   21638586.5154
     -2057.6564
 04  9 16 16 36  0.0030000  0  5G 1G11G23G20G25
  -1314199.92049  -1017096.64048  21321616.4214   21321611.0974
      -771.9224
   7350343.53249   5728510.58647  22954567.0384   22954561.1244
     -2948.8444
  -6128744.42949  -4770193.38947  23218310.7264   23218302.5114
      1404.5474
 -10806839.55049  -8409335.68247  21956630.5074   21956624.4174
      1182.7664
   1987337.74349   1556774.71248  21644476.8974   21644470.8544
     -2065.5004
 04  9 16 16 36 15.0030000  0  5G 1G11G23G20G25
  -1302588.44049  -1008048.73148  21323826.0694   21323820.0814
      -776.7344
   7394626.55849   5763016.84247  22962994.6944   22962988.3584
     -2955.9694
  -6149789.93549  -4786592.49247  23214306.3974   23214297.5264
      1401.0314
 -10824541.00949  -8423129.02647  21953262.1324   21953256.2064
      1176.9534
   2018377.41749   1580961.46948  21650383.3124   21650377.5774
     -2073.6254
 04  9 16 16 36 30.0030000  0  5G 1G11G23G20G25
  -1290905.58349   -998945.20548  21326048.8274   21326043.0814
      -781.1724
   7439015.20749   5797605.37347  22971440.8274   22971434.9794
     -2962.6564
  -6170783.97549  -4802951.46247  23210311.0464   23210302.9054
      1398.0004
 -10842156.24549  -8436855.18147  21949909.9294   21949903.8824
      1171.5164
   2049537.93949   1605242.39848  21656312.9834   21656306.8394
     -2081.2814
 04  9 16 16 36 45.0030000  0  5G 1G11G23G20G25
  -1279151.40749   -989786.11348  21328285.9134   21328280.2264
      -786.1414
   7483509.25949   5832276.04147  22979908.7264   22979902.0894
     -2969.8444
  -6191726.54949  -4819270.33847  23206325.8974   23206317.8434
      1394.3444
 -10859684.92449  -8450513.89647  21946574.4834   21946568.0584
      1165.5784
   2080819.17149   1629617.37248  21662265.5774   21662259.4404
     -2089.5474
 04  9 16 16 37  0.0030000  0  5G 1G11G23G20G25
  -1267334.27549   -980577.95648  21330534.5854   21330528.8274
      -790.0314
   7528100.03849   5867022.09647  22988392.9214   22988387.2064
     -2976.0944
  -6212625.89349  -4835555.52747  23202348.8434   23202340.4174
      1391.6884
 -10877135.12249  -8464111.45147  21943253.7964   21943247.5814
      1160.5784
   2112212.72849   1654079.88448  21668239.1944   21668233.7494
     -2096.7974
 04  9 16 16 37 15.0030000  0  5G 1G11G23G20G25
  -1255448.32749   -971316.18048  21332796.2804   21332790.5894
      -794.8124
   7572793.12449   5901847.85447  22996898.2804   22996892.3154
     -2983.0624
  -6233476.03449  -4851802.37747  23198380.9914   23198372.1364
      1388.2974
 -10894500.71349  -8477643.07947  21939949.1474   21939942.7414
      1154.7664
   2143724.24649   1678634.30348  21674235.9994   21674230.3944
     -2104.7814
 04  9 16 16 37 30.0030000  0  5G 1G11G23G20G25
  -1243494.70949   -962001.66348  21335071.0224   21335065.8354
      -799.1874
   7617587.03949   5936752.20047  23005422.3354   23005416.9054
     -2989.6564
  -6254278.08249  -4868011.74047  23194422.5934   23194415.0464
      1385.1254
 -10911782.54849  -8491109.43048  21936660.5624   21936654.4334
      1149.2664
   2175352.30349   1703279.56248  21680254.7184   21680249.3624
     -2112.4224
 04  9 16 16 37 45.0030000  0  5G 1G11G23G20G25
  -1231473.16249   -952634.22048  21337358.8584   21337353.9134
      -803.8444
   7662481.97549   5971735.24247  23013965.3824   23013960.2374
     -2996.5944
  -6275031.64649  -4884183.34347  23190472.9914   23190465.3624
      1381.7814
 -10928979.88949  -8504509.96147  21933387.8974   21933381.9334
      1143.5164
   2207097.01049   1728015.68948  21686295.5694   21686289.9834
     -2120.4534
 04  9 16 16 38  0.0030000  0  5G 1G11G23G20G25
  -1219380.03249   -943210.99748  21339660.1944   21339654.4914
      -808.3754
   7707481.28949   6006799.63447  23022528.8274   23022523.3124
     -3003.1414
  -6295732.97849  -4900314.23447  23186533.8744   23186526.0154
      1378.5944
 -10946088.90349  -8517841.65248  21930132.2024   21930126.4334
      1137.9534
   2238961.88449   1752845.45648  21692359.1794   21692353.3584
     -2128.0624
 04  9 16 16 38 15.0030000  0  5G 1G11G23G20G25
  -1207217.79349   -933733.94948  21341974.0384   21341968.7724
      -813.3914
   7752582.28949   6041943.24547  23031110.1794   23031105.3394
     -3010.3594
  -6316384.44749  -4916406.29047  23182603.9444   23182596.0694
      1374.8134
 -10963111.73249  -8531106.21447  21926893.0934   21926886.9404
      1131.6414
   2270944.49449   1777766.94948  21698445.6084   21698439.2294
     -2136.3594
 04  9 16 16 38 30.0030000  0  5G 1G11G23G20G25
  -1194988.62249   -924204.72748  21344301.2494   21344296.1014
      -817.3124
   7797782.55949   6077164.21447  23039712.3434   23039706.5814
     -3016.4694
  -6336988.25249  -4932461.19747  23178683.6324   23178674.5694
      1372.1254
 -10980050.17749  -8544304.98747  21923669.8124   21923663.3084
      1126.5784
   2303042.36049   1802778.27548  21704553.4834   21704547.4214
     -2143.4694
 04  9 16 16 38 45.0030000  0  5G 1G11G23G20G25
  -1182697.23549   -914627.02748  21346640.3664   21346634.7494
      -821.7504
   7843077.12449   6112458.65647  23048331.8664   23048325.8154
     -3023.0314
  -6357548.97449  -4948482.53947  23174770.7184   23174762.5584
      1369.0314
 -10996908.60749  -8557441.43547  21920461.5154   21920455.5734
      1120.9064
   2335250.56649   1827875.57648  21710682.3744   21710676.0034
     -2151.1564
 04  9 16 16 39  0.0030000  0  5G 1G11G23G20G25
  -1170340.64849   -904998.51748  21348991.4444   21348985.9764
      -826.1874
   7888468.84149   6147828.81147  23056969.1244   23056963.6984
     -3029.5784
  -6378063.42449  -4964467.81047  23170867.4054   23170858.9134
      1365.8284
 -11013683.78849  -8570512.99947  21917269.6474   21917262.5154
      1115.3594
   2367572.07249   1853061.16048  21716833.1324   21716826.9874
     -2158.7504
 04  9 16 16 39 15.0030000  0  5G 1G11G23G20G25
  -1157914.11549   -895315.50747  21351356.3274   21351351.3434
      -830.9844
   7933962.09149   6183278.08747  23065626.6474   23065620.9484
     -3036.5004
  -6398526.79249  -4980413.28047  23166972.9684   23166964.5154
      1362.2974
 -11030370.54449  -8583515.65847  21914094.1794   21914087.7884
      1109.2814
   2400011.41549   1878338.56348  21723005.9684   21722999.7964
     -2166.7814
 04  9 16 16 39 30.0030000  0  6G 1G11G16G23G20G25
  -1145419.43949   -885579.39248  21353734.1244   21353728.3234
      -835.5474
   7979554.78949   6218804.84547  23074302.8974   23074296.0894
     -3043.1724
    -93092.45059    -66206.40056  24941340.0154   24941335.6634
      2169.4694
  -6418940.83549  -4996320.31947  23163088.0224   23163079.6874
      1358.9384
 -11046970.43349  -8596450.62948  21910935.0624   21910928.6014
      1103.4694
   2432566.54749   1903706.19348  21729200.8434   21729194.6634
     -2174.5944
 04  9 16 16 39 45.0030000  0  6G 1G11G16G23G20G25
  -1132856.60649   -875790.17748  21356124.8044   21356119.3124
      -839.9064
   8025246.69549   6254408.89847  23082997.3354   23082991.7724
     -3049.5624
   -125627.44549    -91558.41346  24935148.6554   24935144.1594
      2168.1094
  -6439305.40249  -5012188.81347  23159213.1404   23159204.9054
      1355.8284
 -11063483.03749  -8609317.61747  21907792.8744   21907786.6164
      1097.7974
   2465237.38549   1929163.98348  21735417.9214   21735411.7964
     -2182.0624
 04  9 16 16 40  0.0030000  0  6G 1G11G16G23G20G25
  -1120228.07549   -865949.76848  21358528.0224   21358522.5694
      -844.3444
   8071035.20849   6290088.25147  23091710.9134   23091704.8274
     -3056.0314
   -158142.15049   -116894.47746  24928961.9764   24928956.7264
      2166.7194
  -6459622.80349  -5028020.53247  23155346.5934   23155338.7264
      1352.6414
 -11079910.52149  -8622118.24548  21904667.0384   21904660.5074
      1092.0944
   2498021.38749   1954709.95948  21741656.7724   21741651.0814
     -2189.6414
 04  9 16 16 40 15.0030000  0  6G 1G11G16G23G20G25
  -1107532.45849   -856057.07248  21360943.7104   21360938.5194
      -848.7974
   8116921.37249   6325843.68647  23100442.6634   23100436.6244
     -3062.5164
   -190634.60749   -142213.24646  24922778.2574   24922773.8944
      2165.3914
  -6479891.68649  -5043814.45547  23151489.6634   23151481.4214
      1349.5004
 -11096251.30049  -8634851.32447  21901557.5154   21901550.9874
      1086.3594
   2530919.70149   1980345.00248  21747917.0384   21747911.0654
     -2197.2034
 04  9 16 16 40 30.0030000  0  6G 1G11G16G23G20G25
  -1094772.94449   -846114.59848  21363371.8904   21363366.3704
      -853.0474
   8162901.85649   6361672.61547  23109192.9914   23109186.7264
     -3068.8124
   -223107.58949   -167516.87346  24916598.8584   24916594.2414
      2164.0474
  -6500115.16849  -5059572.99647  23147641.2104   23147632.9764
      1346.3754
 -11112508.18749  -8647519.01847  21898463.8514   21898457.3314
      1080.6414
   2563929.02449   2006066.54248  21754198.4604   21754192.6084
     -2204.6414
 04  9 16 16 40 45.0030000  0  6G 1G11G16G23G20G25
  -1081947.36849   -836120.65048  21365812.3904   21365806.1714
      -857.2344
   8208978.46049   6397576.45047  23117960.5774   23117954.7494
     -3075.0004
   -255558.41749   -192803.19246  24910423.9994   24910419.2144
      2162.5474
  -6520290.97049  -5075294.40647  23143801.7334   23143793.5264
      1343.4534
 -11128678.64849  -8660119.37547  21895386.5934   21895380.2064
      1075.0634
   2597051.37249   2031876.15948  21760501.6324   21760495.4054
     -2211.9844
 04  9 16 16 41  0.0030000  0  6G 1G11G16G23G20G25
  -1069058.73449   -826077.55348  21368265.3044   21368259.1244
      -861.2034
   8255147.97649   6433552.67247  23126746.2804   23126740.5974
     -3080.9374
   -287989.80149   -218074.35446  24904251.6474   24904247.6594
      2161.6094
  -6540421.91149  -5090980.84747  23139970.9214   23139962.5264
      1340.6724
 -11144765.34049  -8672654.44847  21892325.3124   21892319.2144
      1069.7664
   2630283.55249   2057771.36148  21766825.6714   21766819.3044
     -2219.0624
 04  9 16 16 41 15.0030000  0  6G 1G11G16G23G20G25
  -1056105.75049   -815984.32748  21370729.7804   21370724.3084
      -865.3444
   8301411.43749   6469602.10547  23135549.3194   23135544.3044
     -3087.0164
   -320399.87849   -243328.94546  24898085.1084   24898080.0034
      2160.3284
  -6560506.65549  -5106631.27447  23136149.0224   23136140.8584
      1337.7194
 -11160766.66749  -8685123.01947  21889280.3584   21889273.9564
      1064.2034
   2663626.68249   2083753.01848  21773170.3824   21773164.0424
     -2226.2034
 04  9 16 16 41 30.0030000  0  6G 1G11G16G23G20G25
  -1043086.38549   -805839.36348  21373207.5854   21373202.0734
      -870.1254
   8347770.69249   6505726.17147  23144372.0154   23144366.0154
     -3093.7344
   -352786.16149   -268564.97846  24891922.4604   24891917.0734
      2158.4224
  -6580543.10049  -5122244.08447  23132336.3434   23132327.4444
      1334.1884
 -11176680.33949  -8697523.29047  21886252.2964   21886245.7804
      1058.0164
   2697082.60549   2109822.55748  21779536.5464   21779530.5934
     -2234.1564
 04  9 16 16 41 45.0030000  0  6G 1G11G16G23G20G25
  -1029998.44649   -795640.97548  21375698.2804   21375692.3194
      -874.7344
   8394227.61949   6541926.34447  23153212.2494   23153206.4214
     -3100.2814
   -385146.08349   -293780.43546  24885763.4764   24885758.6044
      2156.5474
  -6600528.92749  -5137817.44747  23128532.7964   23128524.9794
      1330.7814
 -11192503.77749  -8709853.23847  21883241.1244   21883234.7804
      1051.9384
   2730653.32449   2135981.55648  21785924.9604   21785919.4874
     -2241.7504
 04  9 16 16 42  0.0030000  0  6G 1G11G16G23G20G25
  -1016844.14749   -785390.87248  21378201.2574   21378195.4764
      -878.9534
   8440779.64049   6578200.63947  23162070.6084   23162065.0584
     -3106.4374
   -417481.42349   -318976.84246  24879610.8124   24879605.7574
      2155.0164
  -6620466.29449  -5153353.04547  23124739.0464   23124730.8474
      1327.7664
 -11208238.90549  -8722114.37447  21880246.9994   21880240.4524
      1046.2814
   2764336.63349   2162228.27648  21792334.8974   21792328.6284
     -2249.0944
 04  9 16 16 42 15.0030000  0  6G 1G11G16G23G20G25
  -1003622.81449   -775088.53347  21380717.2104   21380711.3744
      -884.1414
   8487427.29549   6614549.43847  23170948.4134   23170941.7144
     -3113.4844
   -449791.02449   -344153.10346  24873462.6324   24873457.6204
      2152.5314
  -6640354.44649  -5168850.29247  23120954.3434   23120946.2294
      1323.7034
 -11223884.69849  -8734305.90147  21877269.6474   21877263.0264
      1039.5944
   2798132.96949   2188563.08848  21798766.0774   21798760.2964
     -2257.3444
 04  9 16 16 42 30.0030000  0  6G 1G11G16G23G20G25
   -990334.52449   -764734.02448  21383245.9604   21383240.6244
      -887.8284
   8534170.33249   6650972.56147  23179842.9054   23179836.5624
     -3119.1094
   -482074.53949   -369309.01546  24867319.2264   24867313.8944
      2151.7034
  -6660193.34649  -5184309.17247  23117179.2654   23117171.0694
      1321.2664
 -11239440.96349  -8746427.67847  21874309.4444   21874302.5694
      1034.4534
   2832042.08049   2214985.76648  21805218.5934   21805212.7724
     -2264.0474
 04  9 16 16 42 45.0030000  0  6G 1G11G16G23G20G25
   -976980.67249   -754328.42948  21385786.9604   21385781.3474
      -892.3124
   8581006.91049   6687468.58047  23188755.4764   23188749.4374
     -3125.4534
   -514332.95649   -394445.39646  24861180.2184   24861175.7724
      2149.8594
  -6679984.39549  -5199730.74547  23113412.7724   23113404.9214
      1317.9534
 -11254908.74749  -8758480.49147  21871365.9914   21871359.1904
      1028.3444
   2866062.39649   2241495.09948  21811692.5464   21811686.6044
     -2271.5784
 04  9 16 16 43  0.0030000  0  6G 1G11G16G23G20G25
   -963561.20749   -743871.69848  21388340.8664   21388335.1514
      -896.7664
   8627936.98549   6724037.44147  23197685.9134   23197680.5584
     -3131.6874
   -546565.76149   -419561.83946  24855046.5854   24855042.2694
      2148.0634
  -6699727.41949  -5215114.92147  23109656.1554   23109647.6204
      1314.7194
 -11270287.69849  -8770464.08647  21868439.1944   21868432.7064
      1022.3444
   2900193.76949   2268090.96048  21818187.4374   21818181.4334
     -2279.1094
 04  9 16 16 43 15.0030000  0  6G 1G11G16G23G20G25
   -950076.65249   -733364.26048  21390906.7724   21390900.7654
      -900.8914
   8674959.48749   6760678.33347  23206633.5854   23206628.6554
     -3137.5784
   -578772.88749   -444658.29546  24848917.6944   24848913.4644
      2146.5314
  -6719422.71749  -5230461.89247  23105908.2334   23105899.9134
      1311.7194
 -11285578.09849  -8782378.68748  21865529.5304   21865523.1364
      1016.6564
   2934435.59149   2294772.90248  21824703.4524   21824697.3514
     -2286.1724
 04  9 16 16 43 30.0030000  0  6G 1G11G16G23G20G25
   -936528.10749   -722806.95948  21393484.7494   21393479.4794
      -905.2504
   8722073.25049   6797390.34047  23215599.4764   23215593.9954
     -3143.7194
   -610955.18649   -469735.34746  24842793.6944   24842789.1834
      2144.8754
  -6739071.49249  -5245772.60747  23102169.4994   23102161.0464
      1308.6414
 -11300780.57149  -8794224.77248  21862636.8434   21862630.2614
      1010.7664
   2968786.48149   2321539.82748  21831240.4054   21831234.7924
     -2293.5004
 04  9 16 16 43 45.0030000  0  6G 1G11G16G23G20G25
   -922914.37149   -712198.85048  21396075.3194   21396069.7804
      -909.5004
   8769279.27049   6834174.21747  23224582.3514   23224576.8744
     -3149.8444
   -643110.89049   -494791.67546  24836674.2024   24836669.7724
      2143.1884
  -6758672.31549  -5261045.97147  23098439.2724   23098431.0114
      1305.3594
 -11315893.70549  -8806001.23147  21859760.8584   21859754.4254
      1004.8594
   3003247.56549   2348392.61048  21837797.8744   21837791.7764
     -2300.8124
 04  9 16 16 44  0.0030000  0  6G 1G11G16G23G20G25
   -909238.27449   -701542.14048  21398677.7804   21398673.2614
      -914.3284
   8816574.51049   6871027.63747  23233582.7264   23233577.3394
     -3156.5004
   -675242.47849   -519829.23446  24830559.6554   24830556.0504
      2140.7974
  -6778227.85549  -5276284.03347  23094717.8664   23094709.9334
      1301.6564
 -11330919.91849  -8817709.95648  21856901.2574   21856895.4794
       998.3914
   3037815.83349   2375328.93348  21844376.1084   21844370.1634
     -2308.6414
 04  9 16 16 44 15.0030000  0  6G 1G11G16G23G20G25
   -895496.63949   -690834.37048  21401292.8194   21401287.9374
      -917.9534
   8863962.08249   6907953.00547  23242600.8124   23242594.8974
     -3161.8914
   -707346.21649   -544845.08346  24824450.7804   24824446.8784
      2139.5784
  -6797734.90149  -5291484.33147  23091005.5544   23090997.5694
      1299.2504
 -11345855.62649  -8829348.16748  21854058.9834   21854053.5774
       993.0634
   3072494.41449   2402351.19548  21850975.2264   21850969.5074
     -2315.2194
 04  9 16 16 44 30.0030000  0  6G 1G11G16G23G20G25
   -881693.35849   -680078.58648  21403919.6474   21403914.1514
      -922.3914
   8911437.69349   6944946.95347  23251634.8664   23251628.9794
     -3168.0944
   -739425.66749   -569842.04046  24818346.2804   24818341.7064
      2137.7814
  -6817197.21249  -5306649.76447  23087302.1714   23087293.9764
      1295.8914
 -11360704.52749  -8840918.76048  21851233.5464   21851227.6874
       986.9534
   3107279.15949   2429456.17448  21857594.5854   21857588.8474
     -2322.5474
 04  9 16 16 44 45.0030000  0  6G 1G11G16G23G20G25
   -867825.42649   -669272.40548  21406558.3584   21406553.2724
      -926.9064
   8959003.88149   6982011.49347  23260685.4604   23260680.9724
     -3174.3284
   -771477.39549   -594817.31346  24812246.3744   24812242.7764
      2135.5784
  -6836611.74449  -5321777.95447  23083607.7414   23083599.8624
      1292.4384
 -11375463.25649  -8852419.05748  21848425.0694   21848419.4374
       980.6564
   3142172.87449   2456646.08248  21864234.3514   21864228.6554
     -2330.1414
 04  9 16 16 45  0.0030000  0  6G 1G11G16G23G20G25
   -853889.20849   -658413.03448  21409210.5854   21409205.1364
      -931.5164
   9006664.09249   7019149.29347  23269755.4684   23269749.5934
     -3180.6254
   -803497.29349   -619767.92146  24806153.4994   24806149.2574
      2133.5164
  -6855974.82449  -5336866.05947  23079923.2024   23079914.9524
      1289.0004
 -11390127.93349  -8863846.09047  21845634.5934   21845628.2144
       974.3754
   3177179.05749   2483923.61248  21870895.9994   21870890.1244
     -2337.6414
 04  9 16 16 45 15.0030000  0  6G 1G11G16G23G20G25
   -839886.47749   -647501.79648  21411875.3044   21411869.4684
      -935.7664
   9054416.19749   7056358.71647  23278842.7414   23278836.1284
     -3186.5164
   -835486.53949   -644694.54346  24800066.7264   24800061.5384
      2131.6094
  -6875288.08949  -5351915.34847  23076247.5694   23076239.9564
      1285.8284
 -11404699.92949  -8875200.86848  21842861.6404   21842855.0264
       968.2974
   3212295.74949   2511287.28248  21877578.3664   21877572.4644
     -2344.7974
 04  9 16 16 45 30.0030000  0  6G 1G11G16G23G20G25
   -825816.69549   -636538.32448  21414552.5934   21414546.9764
      -940.0944
   9102260.51049   7093639.97047  23287946.7724   23287940.7654
     -3192.5164
   -867444.37249   -669596.69747  24793985.1164   24793980.8044
      2129.6094
  -6894551.08649  -5366925.45347  23072582.4294   23072574.4604
      1282.7034
 -11419178.46249  -8886482.84248  21840106.5464   21840100.2334
       962.2504
   3247523.10449   2538737.17048  21884282.2654   21884276.0894
     -2352.0004
 04  9 16 16 45 45.0030000  0  6G 1G11G16G23G20G25
   -811675.64549   -625519.33148  21417243.6634   21417237.6754
      -945.2504
   9150201.05949   7130996.22547  23297070.2104   23297063.6014
     -3199.4374
   -899366.02649   -694470.69046  24787911.2024   24787906.5504
      2126.7034
  -6913759.33249  -5381892.91247  23068927.0694   23068919.0694
      1278.5634
 -11433559.02649  -8897688.47248  21837369.9834   21837363.3864
       955.2664
   3282865.34149   2566276.57248  21891007.5074   21891001.3514
     -2360.1094
 04  9 16 16 46  0.0030000  0  6G 1G11G16G23G20G25
   -797468.50849   -614448.84748  21419947.1324   21419941.0734
      -949.0314
   9198232.26649   7168423.10247  23306209.9524   23306203.6944
     -3204.7974
   -931256.30849   -719320.20246  24781842.3904   24781837.6714
      2125.2034
  -6932917.95749  -5396821.71247  23065281.1714   23065273.3744
      1275.8754
 -11447846.45649  -8908821.54548  21834650.7574   21834644.0114
       949.6414
   3318317.05749   2593901.27848  21897753.8974   21897747.7924
     -2366.7664
 04  9 16 16 46 15.0030000  0  6G 1G11G16G23G20G25
   -783200.76849   -603331.13048  21422662.1474   21422655.9174
      -953.4224
   9246348.51549   7205916.25547  23315365.5774   23315359.6444
     -3210.7974
   -963120.17549   -744149.18447  24775778.7184   24775774.0694
      2123.1254
  -6952032.35549  -5411716.02847  23061643.7184   23061635.9374
      1272.5474
 -11462045.94049  -8919886.07848  21831948.9914   21831942.5224
       943.4534
   3353872.57249   2621606.85648  21904519.8194   21904513.6474
     -2374.0624
 04  9 16 16 46 30.0030000  0  6G 1G11G16G23G20G25
   -768865.67549   -592160.92448  21425389.7654   21425384.3194
      -957.8594
   9294556.33249   7243480.76347  23324539.7654   23324534.1554
     -3216.8914
   -994950.49149   -768951.95947  24769721.8124   24769716.8394
      2120.9384
  -6971095.67149  -5426570.56547  23058016.1474   23058008.3824
      1269.2664
 -11476150.31149  -8930876.49548  21829264.7804   21829257.9404
       937.2034
   3389538.50649   2649398.49148  21911306.9524   21911300.6754
     -2381.4064
 04  9 16 16 46 45.0030000  0  6G 1G11G16G23G20G25
   -754465.64849   -580940.13248  21428130.2804   21428124.4524
      -962.4224
   9342852.89849   7281114.40947  23333730.3664   23333724.8314
     -3223.0474
  -1026749.21049   -793730.19847  24763669.8514   24763665.9094
      2118.5784
  -6990110.28649  -5441387.13347  23054398.1474   23054389.5154
      1265.7504
 -11490161.68549  -8941794.44748  21826598.5624   21826592.1554
       930.7664
   3425312.27249   2677274.15048  21918114.2884   21918108.0504
     -2388.7814
 04  9 16 16 47  0.0030000  0  6G 1G11G16G23G20G25
   -739999.65549   -569667.92248  21430882.9914   21430877.0304
      -966.8594
   9391239.06649   7318817.91047  23342938.0224   23342931.7414
     -3229.0004
  -1058514.94049   -818482.62846  24757625.2334   24757620.9724
      2116.4064
  -7009075.16149  -5456164.94747  23050788.7574   23050780.7804
      1262.4384
 -11504078.70149  -8952638.87048  21823950.2024   21823943.4764
       924.4534
   3461194.65949   2705234.46048  21924942.3194   21924936.3944
     -2395.9694
 04  9 16 16 47 15.0030000  0  6G 1G11G16G23G20G25
   -725464.93749   -558342.18548  21433648.8664   21433642.9054
      -970.7974
   9439717.26449   7356593.09347  23352163.1554   23352156.8784
     -3234.4694
  -1090244.32149   -843206.80646  24751587.4684   24751582.7064
      2114.4534
  -7027987.19949  -5470901.61047  23047190.4524   23047182.3154
      1259.5474
 -11517898.31649  -8963407.41148  21821320.3434   21821313.8084
       918.5004
   3497188.37349   2733281.49048  21931791.8664   21931785.9564
     -2402.8284
 04  9 16 16 47 30.0030000  0  6G 1G11G16G23G20G25
   -710867.90049   -546967.87648  21436426.7184   21436421.0544
      -975.8594
   9488280.87649   7394434.83947  23361404.5154   23361398.3784
     -3241.0784
  -1121943.36249   -867907.34446  24745555.5854   24745550.3784
      2111.5634
  -7046852.74349  -5485602.02547  23043600.3194   23043592.0654
      1255.5164
 -11531626.54549  -8974104.72748  21818708.0854   21818701.6904
       911.4844
   3533286.90249   2761410.19448  21938661.1874   21938655.3124
     -2410.6874
 04  9 16 16 47 45.0030000  0  6G 1G11G16G23G20G25
   -696206.27249   -535543.24348  21439216.5224   21439211.1904
      -979.3914
   9536931.80549   7432344.62447  23370661.8824   23370656.6124
     -3246.0474
  -1153609.53749   -892582.27946  24739529.7884   24739524.2844
      2110.2504
  -7065669.56149  -5500264.49547  23040019.5934   23040011.5154
      1252.9534
 -11545260.98949  -8984728.98448  21816113.7184   21816107.4874
       906.1254
   3569492.20549   2789622.09848  21945550.9444   21945544.8194
     -2416.9844
 04  9 16 16 48  0.0030000  0  6G 1G11G16G23G20G25
   -681478.12349   -524066.76248  21442019.2574   21442013.8084
      -984.3444
   9585671.92549   7470323.91547  23379937.1794   23379931.5694
     -3252.5164
  -1185240.24749   -917229.52846  24733510.6944   24733505.5774
      2107.3134
  -7084435.65049  -5514887.40847  23036448.2264   23036440.6594
      1249.1724
 -11558799.27949  -8995278.30148  21813537.5544   21813531.3274
       899.1414
   3605806.18849   2817918.70348  21952460.9374   21952455.2844
     -2424.7814
 04  9 16 16 48 15.0030000  0  6G 1G11G16G23G20G25
   -666682.80249   -512537.93348  21444834.8194   21444829.6124
      -988.4694
   9634501.34549   7508372.81047  23389228.5154   23389223.6044
     -3258.1564
  -1216834.40449   -941848.29947  24727498.0384   24727493.3824
      2105.2504
  -7103150.23749  -5529470.19347  23032886.8584   23032879.3314
      1246.0634
 -11572240.49449  -9005751.96548  21810979.6324   21810973.7534
       893.0004
   3642229.08749   2846300.18548  21959392.3904   21959386.3974
     -2431.6254
 04  9 16 16 48 30.0030000  0  6G 1G11G16G23G20G25
   -651822.20349   -500958.25648  21447662.4524   21447657.2414
      -992.9224
   9683418.10749   7546489.72147  23398537.7184   23398532.5074
     -3264.1094
  -1248393.50549   -966439.80647  24721493.2884   24721488.1554
      2102.6414
  -7121815.08849  -5544014.22047  23029335.1794   23029327.4724
      1242.6564
 -11585586.18049  -9016151.20248  21808439.9994   21808433.8624
       886.5164
   3678758.92449   2874764.97648  21966343.7804   21966337.7574
     -2438.9064
 04  9 16 16 48 45.0030000  0  6G 1G11G16G23G20G25
   -636900.53549   -489330.97948  21450501.8434   21450496.8744
      -997.0944
   9732417.63749   7584671.16347  23407861.9374   23407856.6244
     -3269.7974
  -1279921.31049   -991006.85746  24715493.1874   24715488.6244
      2100.5314
  -7140434.28849  -5558522.68847  23025792.0624   23025784.0344
      1239.4064
 -11598840.19849  -9026479.01248  21805918.1244   21805911.7024
       880.2504
   3715391.45649   2903309.80248  21973314.5384   21973308.7494
     -2445.9064
 04  9 16 16 49  0.0030000  0  6G 1G11G16G23G20G25
   -621914.79349   -477653.76948  21453353.5074   21453348.6444
     -1000.9374
   9781502.65949   7622919.22147  23417202.8354   23417197.7884
     -3274.9374
  -1311414.42149  -1015546.95746  24709500.1554   24709495.3004
      2098.5784
  -7159004.86049  -5572993.24747  23022258.9374   23022250.8084
      1236.6414
 -11611999.32649  -9036732.85648  21803413.9524   21803408.3124
       874.3444
   3752129.39049   2931936.76848  21980305.4604   21980300.3154
     -2452.5314
 04  9 16 16 49 15.0030000  0  6G 1G11G16G23G20G25
   -606865.64849   -465927.17948  21456217.4444   21456212.1984
     -1005.5314
   9830672.21549   7661233.12547  23426559.4684   23426553.6944
     -3280.9534
  -1342873.06849  -1040060.15546  24703513.8974   24703509.3354
      2095.8914
  -7177527.36949  -5587426.38947  23018733.6944   23018725.6444
      1233.0944
 -11625063.88249  -9046913.04148  21800927.5854   21800921.5974
       867.7034
   3788971.88849   2960645.18048  21987316.6244   21987310.7884
     -2459.7504
 04  9 16 16 49 30.0030000  0  6G 1G11G16G23G20G25
   -591749.34149   -454148.24248  21459094.1474   21459089.4294
     -1009.9694
   9879929.89149   7699615.70747  23435933.1324   23435927.5194
     -3286.7034
  -1374293.01349  -1064543.18746  24697534.8354   24697530.6164
      2093.3134
  -7195997.95849  -5601819.03247  23015219.0544   23015210.6634
      1229.5784
 -11638029.65749  -9057016.24048  21798460.1164   21798454.0424
       861.0634
   3825922.51349   2989437.87548  21994348.0224   21994342.1794
     -2466.9844
 04  9 16 16 49 45.0030000  0  6G 1G11G16G23G20G25
   -576570.45749   -442320.52848  21461982.5384   21461977.4684
     -1014.2814
   9929270.71749   7738063.09647  23445322.6874   23445316.5344
     -3292.3754
  -1405678.41449  -1088999.31846  24691562.1084   24691558.3704
      2090.9224
  -7214421.11949  -5616174.72447  23011712.7884   23011705.1474
      1226.3284
 -11650901.08749  -9067045.92948  21796011.0624   21796004.7924
       854.6564
   3862976.44049   3018311.05748  22001399.3904   22001393.1244
     -2473.9374
 04  9 16 16 50  0.0030000  0  6G 1G11G16G23G20G25
   -561326.19649   -430441.89248  21464883.5694   21464878.3004
     -1018.3124
   9978697.22449   7776577.22447  23454726.8664   23454722.3354
     -3297.8594
  -1437025.92649  -1113425.93346  24685596.1084   24685591.7964
      2088.7814
  -7232793.91149  -5630491.18047  23008216.7494   23008208.5304
      1223.3444
 -11663674.92349  -9076999.56648  21793580.1944   21793573.8904
       848.5004
   3900136.31149   3047266.78748  22008470.1404   22008464.1794
     -2480.7344
 04  9 16 16 50 15.0030000  0  6G 1G11G16G23G20G25
   -546015.32949   -418511.36248  21467797.0304   21467791.3624
     -1022.7974
  10028210.42249   7815158.87647  23464148.5304   23464144.2374
     -3303.7194
  -1468333.89649  -1137821.73946  24679639.2654   24679634.4334
      2085.9844
  -7251115.06749  -5644767.42147  23004730.3664   23004722.6244
      1219.7974
 -11676349.75449  -9086876.08148  21791168.1474   21791161.4724
       841.8284
   3937403.13349   3076305.84948  22015562.0544   22015556.4054
     -2487.8754
 04  9 16 16 50 30.0030000  0  6G 1G11G16G23G20G25
   -530636.93049   -406528.19948  21470723.5074   21470718.0934
     -1027.2974
  10077811.09249   7853808.74747  23473588.3044   23473582.6944
     -3309.4374
  -1499601.13849  -1162185.78946  24673689.0304   24673684.3084
      2083.3284
  -7269383.53849  -5659002.58547  23001253.9054   23001245.4914
      1216.2814
 -11688924.29549  -9096674.41947  21788775.3974   21788769.1164
       835.1414
   3974777.62449   3105428.81848  22022673.8744   22022668.3584
     -2495.0784
 04  9 16 16 50 45.0030000  0  6G 1G11G16G23G20G25
   -515196.94249   -394497.03348  21473661.5544   21473656.3584
     -1031.4844
  10127492.80949   7892521.76647  23483042.0224   23483037.0544
     -3314.9374
  -1530833.02849  -1186522.32346  24667746.3514   24667741.3194
      2080.8134
  -7287605.22649  -5673201.27947  22997786.1474   22997777.7454
      1213.1414
 -11701404.17549  -9106398.98448  21786400.4764   21786394.0224
       828.6564
   4012253.71549   3134630.96848  22029805.5224   22029799.5464
     -2501.9064
 04  9 16 16 51  0.0030000  0  6G 1G11G16G23G20G25
   -499691.45649   -382414.82548  21476611.9764   21476607.0854
     -1035.9844
  10177259.29449   7931300.82147  23492513.3904   23492507.2574
     -3320.6414
  -1562025.26849  -1210827.94947  24661810.7334   24661805.7844
      2078.0784
  -7305776.09749  -5687360.39947  22994328.9444   22994320.5974
      1209.5944
 -11713785.21049  -9116046.54448  21784044.3664   21784038.9014
       822.0474
   4049835.09249   3163915.15248  22036957.2104   22036951.6794
     -2508.9694
 04  9 16 16 51 15.0030000  0  6G 1G11G16G23G20G25
   -484125.34849   -370285.38848  21479574.2574   21479569.1904
     -1039.8914
  10227105.37649   7970141.90647  23501998.3044   23501992.8474
     -3325.8754
  -1593182.16249  -1235106.00646  24655881.0384   24655877.3084
      2075.8134
  -7323900.98549  -5701483.68047  22990879.7964   22990871.7104
      1206.6414
 -11726071.85149  -9125620.54448  21781706.6244   21781700.8354
       815.8134
   4087516.84849   3193277.55548  22044127.6324   22044122.0114
     -2515.6564
 04  9 16 16 51 30.0030000  0  6G 1G11G16G23G20G25
   -468494.65149   -358105.65048  21482548.8194   21482543.2884
     -1044.2974
  10277034.74449   8009047.86147  23511499.0624   23511493.8744
     -3331.5784
  -1624299.41149  -1259353.18746  24649959.6944   24649955.7924
      2072.9534
  -7341975.66549  -5715567.85547  22987439.5854   22987431.9604
      1203.0634
 -11738259.86449  -9135117.71748  21779387.4684   21779381.1554
       809.0474
   4125302.71249   3222721.05748  22051318.4604   22051312.4874
     -2522.6724
 04  9 16 16 51 45.0030000  0  6G 1G11G16G23G20G25
   -452799.56349   -345875.71448  21485535.3974   21485530.1594
     -1048.4374
  10327046.86849   8048018.33247  23521016.1794   23521010.7184
     -3336.8754
  -1655376.66849  -1283569.20246  24644045.6164   24644041.4954
      2070.5164
  -7360000.40049  -5729613.09247  22984010.0074   22984002.3044
      1200.0004
 -11750349.12349  -9144537.92248  21777086.7494   21777080.6474
       802.7034
   4163192.34149   3252245.43048  22058528.3974   22058522.3234
     -2529.3594
 04  9 16 16 52  0.0030000  0  6G 1G11G16G23G20G25
   -437037.63749   -333593.70448  21488534.7964   21488529.3004
     -1052.7344
  10377143.95849   8087055.00947  23530550.0854   23530544.4994
     -3342.3594
  -1686411.12249  -1307751.87746  24638139.8434   24638135.9014
      2067.8134
  -7377972.68749  -5743617.46747  22980590.1474   22980581.6554
      1196.6884
 -11762336.84849  -9153879.01448  21774805.5224   21774799.3394
       796.0784
   4201187.81049   3281852.28548  22065758.6404   22065752.5074
     -2536.2344
 04  9 16 16 52 15.0030000  0  6G 1G11G16G23G20G25
   -421213.84549   -321263.48448  21491545.7724   21491540.4214
     -1057.2194
  10427320.70049   8126153.72447  23540097.7334   23540092.3084
     -3348.0004
  -1717407.34049  -1331904.75147  24632241.9134   24632237.7804
      2064.9064
  -7395897.35649  -5757584.72947  22977179.0074   22977170.4564
      1193.1724
 -11774227.88849  -9163144.76148  21772542.6634   21772536.4014
       789.2974
   4239284.01749   3311537.63048  22073008.2494   22073002.1794
     -2543.3444
 04  9 16 16 52 30.0030000  0  6G 1G11G16G23G20G25
   -405324.09649   -308881.87648  21494569.3124   21494563.7614
     -1061.8124
  10477581.01449   8165317.58547  23549661.4294   23549656.7924
     -3353.8124
  -1748360.82849  -1356024.34546  24626351.5464   24626347.1794
      2061.8594
  -7413770.26349  -5771511.67547  22973778.0544   22973769.8624
      1189.5164
 -11786017.75849  -9172331.67648  21770299.0624   21770292.8044
       782.3284
   4277484.80549   3341304.45448  22080277.4214   22080271.7654
     -2550.5784
 04  9 16 16 52 45.0030000  0  6G 1G11G16G23G20G25
   -389367.82249   -296448.40748  21497606.0544   21497600.8434
     -1065.9224
  10527925.03749   8204546.67047  23559242.7414   23559237.4484
     -3358.9374
  -1779270.52549  -1380109.76347  24620470.0934   24620465.4214
      2059.2034
  -7431590.73249  -5785397.73547  22970386.3124   22970378.4564
      1186.3284
 -11797705.51549  -9181439.01148  21768075.1874   21768068.8824
       775.8444
   4315790.66449   3371153.18548  22087566.9134   22087561.1944
     -2557.0944
 04  9 16 16 53  0.0030000  0  6G 1G11G16G23G20G25
   -373348.82949   -283966.06648  21500654.4764   21500649.4794
     -1070.1414
  10578348.81049   8243837.89547  23568837.8354   23568832.6044
     -3364.3284
  -1810139.69149  -1404163.63247  24614595.6324   24614591.3664
      2056.5164
  -7449362.58949  -5799245.91647  22967005.0224   22966997.3744
      1183.0784
 -11809294.61449  -9190469.46748  21765869.8194   21765864.1594
       769.2194
   4354197.56249   3401080.62948  22094875.1474   22094870.1754
     -2563.9224
 04  9 16 16 53 15.0030000  0  6G 1G11G16G23G20G25
   -357263.85349   -271432.33948  21503715.3274   21503710.4094
     -1074.4374
  10628855.23949   8283193.53047  23578448.2804   23578443.6874
     -3369.7344
  -1840964.72549  -1428183.11647  24608729.6404   24608725.7224
      2053.5784
  -7467082.38849  -5813053.56347  22963632.8514   22963625.4334
      1179.6414
 -11820781.58949  -9199420.36348  21763683.8584   21763677.9644
       762.3914
   4392708.66749   3431089.27148  22102203.8434   22102198.6514
     -2570.8284
 04  9 16 16 53 30.0030000  0  6G 1G11G16G23G20G25
   -341116.22549   -258849.75848  21506787.8824   21506783.4834
     -1078.8444
  10679440.69549   8322610.74247  23588074.8434   23588069.7694
     -3375.2974
  -1871748.54549  -1452170.47047  24602871.5074   24602867.3434
      2050.6724
  -7484753.31649  -5826823.10247  22960270.2494   22960263.3944
      1176.1884
 -11832169.43149  -9208294.00248  21761516.6084   21761511.0074
       755.6094
   4431320.38649   3461176.31848  22109551.5154   22109545.8704
     -2577.7034
 04  9 16 16 53 45.0030000  0  6G 1G11G16G23G20G25
   -324904.81049   -246217.49048  21509872.9834   21509868.0154
     -1082.7974
  10730106.16349   8362090.29947  23597716.3044   23597711.5074
     -3380.2664
  -1902489.41249  -1476124.39747  24597021.6874   24597017.3944
      2047.9844
  -7502374.23849  -5840553.68547  22956917.4294   22956909.7454
      1173.1254
 -11843456.67749  -9217089.25148  21759368.9444   21759363.0584
       749.2664
   4470033.70549   3491342.52848  22116918.4214   22116913.0624
     -2584.1874
 04  9 16 16 54  0.0030000  0  6G 1G11G16G23G20G25
   -308632.14249   -233537.50848  21512969.7184   21512964.4334
     -1086.6874
  10780848.85149   8401630.02347  23607372.3584   23607366.9174
     -3385.2034
  -1933189.49049  -1500046.51647  24591180.4524   24591175.7804
      2045.4844
  -7519947.57349  -5854247.20447  22953572.8124   22953564.9764
      1170.1254
 -11854645.46549  -9225807.81448  21757239.4764   21757233.1014
       742.8134
   4508845.83749   3521585.73848  22124304.0224   22124298.0264
     -2590.5944
 04  9 16 16 54 15.0030000  0  6G 1G11G16G23G20G25
   -292297.13749   -220808.94848  21516078.1794   21516072.2764
     -1091.0164
  10831669.33349   8441230.38547  23617043.2024   23617037.3904
     -3390.5164
  -1963847.18949  -1523935.62447  24585346.0774   24585341.5224
      2042.4384
  -7537472.09749  -5867902.67247  22950238.3974   22950230.5264
      1166.7974
 -11865734.51049  -9234448.62348  21755129.7724   21755123.3084
       735.9844
   4547757.70149   3551906.65548  22131708.3824   22131702.9794
     -2597.3914
 04  9 16 16 54 30.0030000  0  6G 1G11G16G23G20G25
   -275894.85949   -208027.95448  21519199.1634   21519193.4134
     -1095.5164
  10882572.33749   8480895.01147  23626729.7804   23626724.6084
     -3396.0944
  -1994457.39049  -1547787.67046  24579520.8434   24579516.6364
      2039.3134
  -7554942.86849  -5881516.24847  22946913.7264   22946905.6944
      1163.1414
 -11876718.55749  -9243007.62348  21753039.5384   21753033.4214
       728.9844
   4586773.98249   3582308.93448  22139133.3974   22139127.5854
     -2604.3914
 04  9 16 16 54 45.0030000  0  6G 1G11G16G23G20G25
   -259432.15449   -195199.87648  21522331.8124   21522326.2374
     -1099.6564
  10933550.72849   8520618.41047  23636431.3354   23636425.2924
     -3401.1414
  -2025026.23349  -1571607.54346  24573703.8824   24573699.2654
      2036.4384
  -7572366.66349  -5895093.23147  22943598.3904   22943590.1124
      1159.8754
 -11887604.27349  -9251490.00748  21750967.8194   21750961.5264
       722.3134
   4625887.56349   3612787.04248  22146576.3584   22146570.2144
     -2610.8914
 04  9 16 16 55  0.0030000  0  6G 1G11G16G23G20G25
   -242906.98149   -182323.12148  21525476.7414   21525471.3474
     -1103.9694
  10984606.29249   8560401.93347  23646144.9374   23646140.7614
     -3406.5474
  -2055551.40249  -1595393.33647  24567895.3664   24567890.4954
      2033.3594
  -7589741.34049  -5908631.92647  22940291.9684   22940283.8784
      1156.4224
 -11898389.09949  -9259893.76548  21748915.5464   21748909.0194
       715.3444
   4665100.31449   3643342.42748  22154038.3434   22154032.4334
     -2617.7504
 04  9 16 16 55 15.0030000  0  6G 1G11G16G23G20G25
   -226318.20249   -169396.79548  21528633.4294   21528627.7964
     -1107.8124
  11035739.86049   8600246.26347  23655876.3434   23655870.7024
     -3411.3754
  -2086031.31449  -1619143.90947  24562095.2414   24562090.1444
      2030.6724
  -7607065.66349  -5922131.39347  22936995.1324   22936987.5424
      1153.4694
 -11909071.70149  -9268217.86948  21746882.7654   21746876.7804
       708.8914
   4704413.27749   3673975.89348  22161518.9994   22161513.3584
     -2623.9844
 04  9 16 16 55 30.0030000  0  6G 1G11G16G23G20G25
   -209666.49749   -156421.45848  21531802.3584   21531796.4724
     -1111.9694
  11086950.48349   8640150.63147  23665621.7804   23665616.3084
     -3416.3594
  -2116466.05649  -1642859.25147  24556303.0934   24556298.4484
      2027.7034
  -7624340.10549  -5935591.98547  22933707.9294   22933700.1874
      1150.2034
 -11919652.40749  -9276462.57648  21744869.3274   21744862.6124
       702.1884
   4743825.66049   3704686.82748  22169019.2414   22169013.5694
     -2630.5784
 04  9 16 16 55 45.0030000  0  6G 1G11G16G23G20G25
   -192948.79149   -143394.66848  21534983.2964   21534978.3474
     -1116.4844
  11138240.98549   8680117.20047  23675381.8354   23675376.4334
     -3421.7814
  -2146852.20649  -1666536.75347  24550521.0544   24550516.7694
      2024.3134
  -7641561.58749  -5949011.31547  22930431.0774   22930422.7414
      1146.5314
 -11930127.86249  -9284625.27448  21742875.8124   21742869.7764
       695.1094
   4783340.21349   3735477.38048  22176538.4444   22176532.9874
     -2637.4534
 04  9 16 16 56  0.0030000  0  6G 1G11G16G23G20G25
   -176168.81449   -130319.37048  21538176.4524   21538171.2964
     -1120.5474
  11189607.39849   8720142.95347  23685156.4914   23685151.6284
     -3426.8594
  -2177193.05249  -1690178.92347  24544747.5694   24544743.1244
      2021.3914
  -7658733.69549  -5962392.16847  22927163.0934   22927154.9564
      1143.3284
 -11940501.50949  -9292708.62548  21740901.8434   21740895.7264
       688.2974
   4822953.12349   3766344.57348  22184076.8274   22184071.0424
     -2643.9694
 04  9 16 16 56 15.0030000  0  6G 1G11G16G23G20G25
   -159325.74649   -117194.90948  21541381.7494   21541376.4134
     -1124.9844
  11241050.19549   8760228.22047  23694945.9834   23694940.8354
     -3432.0314
  -2207487.31349  -1713784.81047  24538982.4294   24538978.2534
      2018.0474
  -7675855.63149  -5975733.92147  22923904.9684   22923896.9724
      1139.8134
 -11950772.21349  -9300711.78348  21738947.1874   21738941.3274
       681.2504
   4862664.92449   3797288.82248  22191633.8124   22191627.4294
     -2650.7344
 04  9 16 16 56 30.0030000  0  6G 1G11G16G23G20G25
   -142422.89849   -104023.86248  21544598.0624   21544592.9874
     -1128.9064
  11292565.69749   8800370.15047  23704749.3514   23704743.7884
     -3436.8124
  -2237737.78949  -1737356.56647  24533225.9834   24533221.0384
      2015.2664
  -7692930.59749  -5989039.10747  22920655.5154   22920647.2184
      1136.7504
 -11960942.90549  -9308636.99348  21737011.8434   21737005.6754
       674.6564
   4902472.14749   3828307.43048  22199208.8354   22199202.2264
     -2657.0944
 04  9 16 16 56 45.0030000  0  6G 1G11G16G23G20G25
   -125455.53149    -90802.53548  21547827.1474   21547821.7264
     -1132.8754
  11344158.34449   8840572.19147  23714566.5154   23714561.3624
     -3441.6564
  -2267939.29149  -1760890.12947  24527478.7104   24527473.9334
      2012.2504
  -7709953.73849  -6002303.86647  22917416.2574   22917407.8904
      1133.6094
 -11971008.58949  -9316480.37448  21735096.1324   21735090.0464
       667.9694
   4942379.16549   3859403.80948  22206802.7884   22206797.2104
     -2663.3124
 04  9 16 16 57  0.0030000  0  6G 1G11G16G23G20G25
   -108427.41349    -77533.88048  21551067.3974   21551061.7574
     -1137.8124
  11395824.11249   8880831.21247  23724398.4294   23724393.0464
     -3447.3444
  -2298095.34149  -1784388.34647  24521740.9374   24521735.3044
      2008.2974
  -7726928.88049  -6015531.24647  22914185.6874   22914177.7574
      1129.5164
 -11980972.70649  -9324244.63648  21733200.3664   21733194.0074
       660.3284
   4982382.20049   3890574.99348  22214414.8434   22214409.2104
     -2670.6094
 04  9 16 16 57 15.0030000  0  6G 1G11G16G23G20G25
    -91337.93949    -64217.41248  21554319.4604   21554314.0814
     -1141.4534
  11447563.39749   8921147.50847  23734244.3904   23734238.5694
     -3451.8124
  -2328204.81849  -1807850.24446  24516011.2024   24516005.4954
      2005.6414
  -7743855.22449  -6028720.60347  22910964.9834   22910956.7844
      1126.7194
 -11990834.39149  -9331929.06248  21731323.5464   21731316.8944
       653.9534
   5022481.61449   3921821.27648  22222045.8744   22222039.7224
     -2676.5314
 04  9 16 16 57 30.0030000  0  6G 1G11G16G23G20G25
    -74182.73249    -50849.71548  21557583.7574   21557578.5194
     -1145.7974
  11499380.25049   8961524.26747  23744104.0934   23744098.9054
     -3456.9844
  -2358262.93749  -1831272.06947  24510290.6014   24510285.4524
      2002.1884
  -7760728.32649  -6041868.46947  22907754.3044   22907745.7574
      1123.1094
 -12000589.11049  -9339530.13648  21729467.4524   21729461.0974
       646.8284
   5062681.44549   3953145.81248  22229695.6474   22229689.8704
     -2683.2664
 04  9 16 16 57 45.0030000  0  6G 1G11G16G23G20G25
    -56968.40249    -37435.97048  21560859.9374   21560853.9214
     -1149.7344
  11551267.68849   9001956.01147  23753978.2574   23753973.1514
     -3461.6254
  -2388275.85849  -1854658.74447  24504579.7574   24504573.9724
      1999.1564
  -7777554.76249  -6054979.97747  22904552.2414   22904544.1554
      1120.0784
 -12010243.06149  -9347052.70548  21727630.6014   21727623.8004
       640.0784
   5102974.91549   3984543.31448  22237362.9524   22237357.2724
     -2689.4374
 04  9 16 16 58  0.0030000  0  6G 1G11G16G23G20G25
    -39690.10749    -23972.36448  21564147.7184   21564142.1474
     -1154.3284
  11603230.32249   9042446.35347  23763866.1474   23763861.3544
     -3467.0474
  -2418238.26049  -1878006.03346  24498877.9994   24498872.2534
      1995.5004
  -7794329.45349  -6068051.15847  22901360.3044   22901351.7494
      1116.2194
 -12019790.99949  -9354492.66148  21725813.3124   21725807.0544
       632.6414
   5143366.79249   4016017.49448  22245049.1404   22245043.5814
     -2696.4374
 04  9 16 16 58 15.0030000  0  6G 1G11G16G23G20G25
    -22344.77249    -10456.52748  21567448.2804   21567442.9564
     -1158.0314
  11655270.90749   9082997.44147  23773769.6634   23773764.3864
     -3471.4064
  -2448146.61849  -1901311.21947  24493185.9214   24493180.4684
      1992.5944
  -7811049.35849  -6081079.63747  22898178.2494   22898169.9724
      1113.3914
 -12029229.66349  -9361847.45648  21724017.4994   21724010.7964
       626.1564
   5183859.90649   4047570.56848  22252755.0224   22252749.4214
     -2702.3594
 04  9 16 16 58 30.0030000  0  6G 1G11G16G23G20G25
     -4936.97849      3107.99648  21570760.9764   21570755.7454
     -1162.2034
  11707384.51149   9123605.40947  23783686.2724   23783680.9954
     -3476.3594
  -2478005.09049  -1924577.51147  24487504.7024   24487499.0424
      1989.3134
  -7827718.92949  -6094068.90347  22895006.1014   22894998.5074
      1110.0004
 -12038563.31849  -9369120.43548  21722241.3044   21722235.3744
       619.0944
   5224449.51949   4079198.82748  22260478.9764   22260472.9254
     -2708.8124
 04  9 16 16 58 45.0030000  0  6G 1G11G16G23G20G25
     12534.80449     16722.35948  21574085.7264   21574080.3474
     -1166.9064
  11759572.27149   9164271.16947  23793618.1324   23793611.9724
     -3481.6564
  -2507811.65849  -1947803.34747  24481832.6554   24481826.6834
      1985.4064
  -7844336.69749  -6107017.81747  22891843.7804   22891835.5854
      1106.0784
 -12047790.24449  -9376310.24548  21720485.4684   21720479.4954
       611.5164
   5265136.87949   4110903.25448  22268221.4914   22268215.8824
     -2715.8124
 04  9 16 16 59  0.0030000  0  6G 1G11G16G23G20G25
     30071.52049     30387.32348  21577422.7184   21577417.0774
     -1171.0004
  11811835.16049   9204995.46147  23803561.5544   23803557.6944
     -3486.4844
  -2537564.90949  -1970987.63147  24476170.4374   24476165.3394
      1982.0004
  -7860901.46649  -6119925.42447  22888691.5934   22888683.4954
      1102.7974
 -12056909.08649  -9383415.84248  21718750.4294   21718743.8154
       604.5784
   5305922.68249   4142684.39348  22275982.8354   22275977.1284
     -2722.0944
 04  9 16 16 59 15.0030000  0  6G 1G11G16G23G20G25
     47670.83949     44101.07348  21580772.0154   21580766.1284
     -1175.6564
  11864170.38549   9245776.14147  23813521.4444   23813516.6794
     -3491.7034
  -2567266.88249  -1994132.00347  24470518.3584   24470512.9134
      1978.1094
  -7877415.57849  -6132793.55447  22885549.0304   22885541.1874
      1098.9694
 -12065921.79649  -9390438.74248  21717035.0934   21717029.0654
       597.0634
   5346804.45549   4174540.30648  22283762.5694   22283756.6124
     -2728.9374
 04  9 16 16 59 30.0030000  0  6G 1G11G16G23G20G25
     65335.14349     57865.46748  21584133.4054   21584127.9764
     -1179.6254
  11916580.14349   9286614.86147  23823494.7414   23823489.7724
     -3496.2664
  -2596914.67549  -2017234.13047  24464875.8744   24464870.8704
      1974.7974
  -7893876.54749  -6145620.28747  22882416.7884   22882408.8624
      1095.7344
 -12074825.79349  -9397376.91948  21715340.7884   21715334.8974
       590.0634
   5387784.40149   4206472.72648  22291560.5224   22291554.7534
     -2735.1724
 04  9 16 16 59 45.0040000  0  6G 1G11G16G23G20G25
     83062.24849     71678.78348  21587506.7154   21587500.8984
     -1183.7504
  11969064.06549   9327511.39147  23833482.5594   23833477.6844
     -3501.0314
  -2626513.24749  -2040297.90347  24459244.3944   24459239.1994
      1971.4384
  -7910288.75449  -6158409.01047  22879293.3324   22879285.3284
      1092.4534
 -12083624.73749  -9404233.24048  21713666.5984   21713660.0664
       583.0944
   5428861.60649   4238480.92548  22299377.3484   22299371.5354
     -2741.3754
 04  9 16 17  0  0.0040000  0  6G 1G11G16G23G20G25
    100850.76249     85539.97148  21590891.7074   21590886.3524
     -1188.0624
  12021615.77949   9368460.76147  23843482.7154   23843477.4224
     -3505.8754
  -2656057.28949  -2063319.16547  24453622.2774   24453617.2544
      1967.7344
  -7926648.89249  -6171157.15147  22876180.5594   22876172.3674
      1088.8594
 -12092316.11049  -9411005.73348  21712012.8794   21712006.8054
       575.7194
   5470031.41349   4270561.30648  22307211.5514   22307206.3364
     -2747.9534
 04  9 16 17  0 15.0040000  0  6G 1G11G16G23G20G25
    118707.62449     99454.40748  21594289.6134   21594284.6724
     -1192.7344
  12074244.27249   9409469.96247  23853497.8164   23853492.5944
     -3511.0474
  -2685542.50549  -2086294.61947  24448011.0594   24448006.3364
      1963.7504
  -7942952.29649  -6183861.10547  22873078.0514   22873069.9964
      1085.0784
 -12100894.56649  -9417690.25548  21710379.9494   21710374.1644
       568.2034
   5511302.01849   4302720.20748  22315065.0434   22315059.4224
     -2754.5944
 04  9 16 17  0 30.0040000  0  6G 1G11G16G23G20G25
    136626.50949    113417.15048  21597699.4884   21597693.5044
     -1196.7344
  12126942.98749   9450533.84247  23863526.3554   23863520.8364
     -3515.6724
  -2714974.68549  -2109228.75547  24442410.5124   24442405.3054
      1960.2664
  -7959205.19149  -6196525.70247  22869984.7624   22869977.2734
      1081.7974
 -12109366.02249  -9424291.39548  21708768.1444   21708762.0044
       561.1094
   5552667.08549   4334952.70648  22322936.7774   22322930.7694
     -2760.9224
 04  9 16 17  0 45.0040000  0  6G 1G11G16G23G20G25
    154613.32249    127432.84348  21601122.2464   21601116.7114
     -1201.3914
  12179717.62949   9491656.91047  23873568.9494   23873563.4654
     -3520.9224
  -2744347.56049  -2132116.64347  24436820.8244   24436815.9774
      1956.1254
  -7975401.55749  -6209146.24847  22866903.2854   22866894.7194
      1077.8284
 -12117724.36349  -9430804.37948  21707177.7774   21707170.9374
       553.4694
   5594132.22849   4367263.20148  22330827.1054   22330821.5744
     -2767.7034
 04  9 16 17  1  0.0040000  0  6G 1G11G16G23G20G25
    172662.34249    141497.01048  21604556.9184   21604551.5554
     -1205.0944
  12232562.12949   9532834.44647  23883625.5664   23883619.4494
     -3524.9844
  -2773666.42249  -2154962.47647  24431241.5824   24431236.7934
      1953.0164
  -7991547.04349  -6221727.14347  22863830.4884   22863822.1724
      1074.9224
 -12125975.01649  -9437233.46948  21705607.4804   21705600.9964
       546.6564
   5635691.54349   4399647.07148  22338735.7074   22338729.9774
     -2773.5624
 04  9 16 17  1 15.0040000  0  6G 1G11G16G23G20G25
    190773.18349    155609.35848  21608003.3794   21607997.7774
     -1209.1254
  12285475.73649   9574065.78147  23893693.8714   23893688.1994
     -3529.5624
  -2802931.15349  -2177766.12147  24425672.8094   24425668.0944
      1949.4694
  -8007641.92349  -6234268.59347  22860767.9264   22860759.2774
      1071.6414
 -12134117.99149  -9443578.63648  21704057.9344   21704051.9144
       539.5784
   5677344.45649   4432103.87748  22346662.1994   22346656.3204
     -2779.6564
 04  9 16 17  1 30.0040000  0  6G 1G11G16G23G20G25
    208945.90449    169769.90648  21611461.4574   21611455.9184
     -1213.5624
  12338458.34249   9615350.89747  23903775.6764   23903770.7114
     -3534.4694
  -2832141.34249  -2200527.25147  24420114.0904   24420109.2664
      1945.5004
  -8023686.04749  -6246770.50547  22857714.7234   22857706.9844
      1067.9224
 -12142152.93049  -9449839.63448  21702528.7304   21702522.6994
       532.0634
   5719090.71649   4464633.42648  22354606.2774   22354600.4774
     -2786.2194
 04  9 16 17  1 45.0040000  0  6G 1G11G16G23G20G25
    227184.58049    183981.85948  21614932.4184   21614926.3364
     -1218.5004
  12391513.66749   9656692.68847  23913872.5194   23913867.1484
     -3539.8594
  -2861292.46349  -2223242.34747  24414567.1294   24414562.1724
      1940.9534
  -8039675.29749  -6259229.64947  22854672.3244   22854663.8364
      1063.6254
 -12150075.51049  -9456013.07448  21701021.3164   21701015.0274
       524.0784
   5760934.29749   4497238.80648  22362568.5664   22362562.6484
     -2793.2344
 04  9 16 17  2  0.0040000  0  6G 1G11G16G23G20G25
    245492.04649    198247.41248  21618416.3014   21618410.9534
     -1222.6874
  12444644.16449   9698093.01147  23923981.8244   23923978.2194
     -3544.4694
  -2890381.26449  -2245908.93247  24409031.6294   24409026.0664
      1937.2504
  -8055606.77749  -6271643.78547  22851640.6764   22851632.2624
      1060.2664
 -12157882.73149  -9462096.63348  21699535.5744   21699529.3164
       516.7344
   5802877.60649   4529921.89048  22370550.2464   22370544.5194
     -2799.4844
 04  9 16 17  2 15.0040000  0  6G 1G11G16G23G20G25
    263864.92549    212563.94548  21621912.3324   21621907.2344
     -1226.9374
  12497846.16649   9739549.09547  23934106.1214   23934101.7114
     -3549.1724
  -2919410.82949  -2268529.29447  24403507.6524   24403502.1294
      1933.4064
  -8071483.85549  -6284015.52647  22848619.1524   22848610.7584
      1056.7814
 -12165577.61649  -9468092.64448  21698071.4104   21698065.3164
       509.3134
   5844917.10249   4562679.93548  22378550.3014   22378544.5124
     -2805.7974
 04  9 16 17  2 30.0040000  0  6G 1G11G16G23G20G25
    282302.70549    226931.02248  21625421.0514   21625415.5234
     -1231.2814
  12551118.84349   9781060.23847  23944244.2384   23944239.2274
     -3553.7664
  -2948381.08249  -2291103.49847  24397994.3014   24397989.4774
      1929.4224
  -8087306.86649  -6296345.14747  22845608.2774   22845599.9494
      1053.1414
 -12173160.29649  -9474001.22948  21696628.7074   21696622.5124
       501.8594
   5887052.10349   4595512.38948  22386568.3014   22386562.1134
     -2812.0784
 04  9 16 17  2 45.0040000  0  6G 1G11G16G23G20G25
    300805.43349    241348.73448  21628941.9804   21628936.6374
     -1235.6094
  12604462.13349   9822626.42347  23954394.8554   23954389.7734
     -3558.4534
  -2977291.46349  -2313631.02247  24392492.6444   24392487.7464
      1925.4384
  -8103075.67149  -6308632.52447  22842607.4264   22842598.9654
      1049.5164
 -12180630.37349  -9479822.06748  21695206.8324   21695200.4264
       494.3444
   5929282.64249   4628419.30248  22394604.2774   22394598.6254
     -2818.4224
 04  9 16 17  3  0.0040000  0  6G 1G11G16G23G20G25
    319376.51149    255819.68948  21632475.6604   21632470.0084
     -1240.2194
  12657879.01549   9864249.91147  23964560.1524   23964554.1724
     -3563.3754
  -3006138.23649  -2336108.96347  24387003.3874   24386998.3874
      1921.0944
  -8118786.77349  -6320874.93947  22839617.5904   22839609.6414
      1045.6094
 -12187984.25849  -9485552.37848  21693807.5594   21693801.5474
       486.5474
   5971611.85949   4661403.09348  22402659.3014   22402653.5434
     -2825.0314
 04  9 16 17  3 15.0040000  0  6G 1G11G16G23G20G25
    338010.72649    270339.86448  21636022.0514   21636016.6874
     -1244.6564
  12711363.99949   9905926.46447  23974737.7464   23974732.4224
     -3568.2034
  -3034926.10149  -2358541.04447  24381525.0514   24381519.8484
      1916.8754
  -8134445.31649  -6333076.39847  22836637.8794   22836629.6484
      1041.8914
 -12195226.84249  -9491195.95648  21692429.4024   21692423.1174
       478.8754
   6014034.19249   4694459.44348  22410732.3554   22410726.1804
     -2831.5164
 04  9 16 17  3 30.0040000  0  6G 1G11G16G23G20G25
    356709.37149    284910.24148  21639580.2694   21639574.6024
     -1248.5314
  12764917.98649   9947656.84147  23984929.3014   23984923.3674
     -3572.4694
  -3063653.34349  -2380925.86147  24376058.8874   24376053.2694
      1913.2344
  -8150049.88749  -6345235.79847  22833668.6374   22833660.1994
      1038.6414
 -12202356.56649  -9496751.58648  21691072.8404   21691066.0554
       471.6884
   6056550.89349   4727589.32948  22418822.6914   22418816.7034
     -2837.4224
 04  9 16 17  3 45.0040000  0  6G 1G11G16G23G20G25
    375471.66049    299530.19348  21643150.5194   21643144.8404
     -1252.8914
  12818539.82749   9989440.08147  23995132.4024   23995127.9024
     -3577.0004
  -3092320.37249  -2403263.78147  24370603.1214   24370598.3164
      1909.2344
  -8165601.22749  -6357353.72847  22830709.3094   22830700.8444
      1034.9694
 -12209373.93749  -9502219.66248  21689737.3484   21689730.7934
       464.1884
   6099160.96449   4760791.97848  22426931.2304   22426925.0664
     -2843.7194
 04  9 16 17  4  0.0040000  0  6G 1G11G16G23G20G25
    394294.95749    314197.69248  21646732.2774   21646726.7194
     -1257.4374
  12872226.72349  10031274.00347  24005348.9264   24005343.5514
     -3581.8124
  -3120929.35849  -2425556.45047  24365159.0274   24365154.4264
      1904.7504
  -8181101.91749  -6369432.17347  22827759.4964   22827751.4804
      1031.1414
 -12216281.25349  -9507601.98648  21688422.7934   21688416.5234
       456.2194
   6141861.51049   4794065.12848  22435056.9654   22435051.2034
     -2850.3284
 04  9 16 17  4 15.0040000  0  6G 1G11G16G23G20G25
    413182.98149    328915.64148  21650326.6604   21650321.2034
     -1261.6094
  12925982.11549  10073161.32247  24015578.4734   24015573.3444
     -3586.2194
  -3149476.16449  -2447800.67847  24359726.9024   24359721.7504
      1900.8594
  -8196548.18049  -6381468.22647  22824820.2544   22824811.8834
      1027.7194
 -12223074.59649  -9512895.49748  21687130.5274   21687124.1954
       448.8134
   6184655.89549   4827411.39148  22443200.3244   22443194.5004
     -2856.3594
 04  9 16 17  4 30.0040000  0  6G 1G11G16G23G20G25
    432140.43149    343687.66148  21653933.9104   21653928.3914
     -1265.9534
  12979810.40249  10115105.37247  24025821.5514   24025816.1214
     -3590.8754
  -3177955.59949  -2469992.41547  24354307.4264   24354302.4064
      1896.5474
  -8211935.18949  -6393458.09647  22821892.3714   22821883.7774
      1023.9694
 -12229748.96049  -9518096.31148  21685860.0514   21685853.4964
       441.1414
   6227548.78049   4860834.40348  22451362.5664   22451356.8524
     -2862.5944
 04  9 16 17  4 45.0040000  0  6G 1G11G16G23G20G25
    451164.17649    358511.36048  21657554.2774   21657548.3324
     -1270.2194
  13033707.92049  10157103.40147  24036079.2544   24036072.6214
     -3595.2344
  -3206370.45749  -2492133.83347  24348899.6844   24348894.9144
      1892.3444
  -8227265.96449  -6405404.14647  22818974.8944   22818966.8404
      1020.4064
 -12236307.12349  -9523206.57048  21684612.3484   21684605.8094
       433.5634
   6270536.71249   4894331.48848  22459543.1844   22459537.3944
     -2868.8594
 04  9 16 17  5  0.0040000  0  6G 1G11G16G23G20G25
    470247.95749    373381.84048  21661185.7624   21661180.1094
     -1274.3594
  13087668.17549  10199150.35747  24046346.0044   24046341.5354
     -3599.6414
  -3234726.56249  -2514229.44047  24343504.2074   24343499.3484
      1888.2664
  -8242546.80849  -6417311.28447  22816067.0124   22816058.6994
      1016.8754
 -12242755.06549  -9528230.93348  21683385.3484   21683378.7154
       426.0784
   6313613.21549   4927897.57548  22467740.2544   22467734.2774
     -2874.8124
 04  9 16 17  5 15.0040000  0  6G 1G11G16G23G20G25
    489398.03649    388303.96648  21664830.0124   21664824.2234
     -1279.0624
  13141697.18549  10241250.83247  24056627.4964   24056622.9734
     -3604.3124
  -3263017.07649  -2536273.97847  24338120.7854   24338115.8634
      1883.7194
  -8257771.31349  -6429174.53947  22813169.9654   22813161.2154
      1013.0164
 -12249086.36449  -9533164.43048  21682180.3874   21682174.4344
       418.0944
   6356784.34249   4961537.41348  22475955.2384   22475949.6954
     -2881.3284
 04  9 16 17  5 30.0040000  0  6G 1G11G16G23G20G25
    508613.81149    403277.30048  21668486.4654   21668480.6604
     -1283.5944
  13195794.19849  10283404.32047  24066922.3554   24066916.9844
     -3609.1564
  -3291242.25549  -2558267.58547  24332749.6214   24332745.0314
      1879.0944
  -8272939.93449  -6440994.22847  22810283.5514   22810274.9414
      1009.0314
 -12255301.26049  -9538007.19148  21680997.7774   21680991.6024
       410.0634
   6400049.27949   4995250.34348  22484188.0594   22484182.8754
     -2887.8444
 04  9 16 17  5 45.0040000  0  6G 1G11G16G23G20G25
    527897.34449    418303.41948  21672156.2234   21672150.9144
     -1287.2814
  13249960.84649  10325612.05847  24077230.1214   24077224.9224
     -3612.8914
  -3319399.66449  -2580208.39047  24327391.3714   24327386.6724
      1875.4224
  -8288050.58949  -6452768.76047  22807408.0824   22807399.6604
      1005.9694
 -12261397.44849  -9542757.47448  21679837.5044   21679831.3404
       403.0004
   6443409.87149   5029037.80848  22492439.6524   22492434.0044
     -2893.3284
 04  9 16 17  6  0.0040000  0  6G 1G11G16G23G20G25
    547242.97849    433377.93848  21675837.2234   21675831.9414
     -1292.2194
  13304191.13149  10367869.38247  24087549.9804   24087544.0314
     -3617.8594
  -3347494.57649  -2602100.50847  24322044.9654   24322039.6094
      1870.4844
  -8303108.82949  -6464502.44747  22804542.0274   22804534.1994
      1001.6724
 -12267380.26849  -9547419.41648  21678699.1604   21678693.2464
       394.6884
   6486860.25549   5062895.24848  22500708.0044   22500702.1134
     -2900.0784
 04  9 16 17  6 15.0040000  0  6G 1G11G16G23G20G25
    566655.99049    448504.95048  21679531.8014   21679526.0824
     -1295.9694
  13358490.02149  10410180.19247  24097882.4264   24097876.7934
     -3621.7034
  -3375521.15949  -2623939.36947  24316712.0194   24316707.0474
      1866.5944
  -8318109.30449  -6476191.11947  22801687.5664   22801679.8594
       998.5164
 -12273244.07849  -9551988.61748  21677583.1294   21677577.3364
       387.3754
   6530405.60449   5096826.67048  22508994.5664   22508988.7034
     -2905.7504
 04  9 16 17  6 30.0040000  0  6G 1G11G16G23G20G25
    586123.88649    463674.74448  21683236.1214   21683230.4184
     -1299.9534
  13412844.83749  10452534.57147  24108225.4654   24108220.2734
     -3625.7974
  -3403491.50749  -2645734.41147  24311388.6994   24311384.1994
      1862.4694
  -8333064.46649  -6487844.48647  22798841.7154   22798833.9024
       995.1724
 -12279001.21549  -9556474.69748  21676487.5124   21676481.3984
       379.9534
   6574033.10949   5130822.11948  22517296.4654   22517290.7154
     -2911.5314
 04  9 16 17  6 45.0040000  0  6G 1G11G16G23G20G25
    605652.31149    478891.69148  21686952.1684   21686947.1564
     -1304.0624
  13467260.77349  10494936.55547  24118580.5984   24118575.3164
     -3629.9534
  -3431399.62549  -2667480.96747  24306078.4024   24306073.1024
      1858.3284
  -8347968.53649  -6499458.04047  22796005.8014   22795997.8124
       991.7814
 -12284645.75349  -9560873.04448  21675413.6374   21675407.1444
       372.4064
   6617748.23049   5164885.83348  22525615.3944   22525609.2814
     -2917.4064
 04  9 16 17  7  0.0040000  0  6G 1G11G16G23G20G25
    625241.04849    494155.62648  21690680.1214   21690674.5864
     -1308.0474
  13521737.28849  10537385.76747  24128945.9654   24128941.6094
     -3633.9534
  -3459245.24049  -2689178.82547  24300778.9964   24300774.3754
      1854.0784
  -8362821.73249  -6511031.95147  22793178.9964   22793170.9924
       988.4064
 -12290177.68049  -9565183.65148  21674360.9804   21674354.7504
       364.8754
   6661550.40349   5199017.39148  22533950.4734   22533944.6644
     -2923.1094
 04  9 16 17  7 15.0040000  0  6G 1G11G16G23G20G25
    644894.58349    509470.07548  21694420.0124   21694414.5554
     -1312.5314
  13576278.60249  10579885.45847  24139325.7624   24139320.7464
     -3638.4224
  -3487023.33949  -2710824.07847  24295494.0354   24295488.5474
      1849.5004
  -8377619.39949  -6522562.60447  22790363.4734   22790355.3834
       984.5314
 -12295592.08249  -9569402.66148  21673330.5664   21673324.2344
       356.8914
   6705443.94349   5233220.15148  22542303.1054   22542297.1914
     -2929.4694
 04  9 16 17  7 30.0040000  0  6G 1G11G16G23G20G25
    664615.20949    524836.78648  21698172.8794   21698167.2584
     -1316.6254
  13630886.73149  10622437.22647  24149717.5744   24149712.4734
     -3642.4534
  -3514731.29549  -2732414.68247  24290221.1604   24290216.2114
      1845.1564
  -8392359.22549  -6534048.16947  22787558.4884   22787550.3594
       981.0314
 -12300886.48849  -9573528.15748  21672322.9344   21672316.6644
       349.2814
   6749431.04549   5267495.80448  22550673.7154   22550667.9184
     -2935.2034
 04  9 16 17  7 45.0040000  0  6G 1G11G16G23G20G25
    684397.93649    540251.89248  21701937.1134   21701931.5744
     -1320.9064
  13685556.25649  10665036.82447  24160119.2464   24160115.2974
     -3646.7664
  -3542373.67049  -2753954.18747  24284960.7074   24284955.0704
      1840.5784
  -8407046.03649  -6545492.44247  22784763.5044   22784755.3124
       977.2664
 -12306065.72249  -9577563.93448  21671337.5044   21671330.8794
       341.3594
   6793506.47649   5301840.28248  22559060.7464   22559054.4884
     -2941.3124
 04  9 16 17  8  0.0040000  0  6G 1G11G16G23G20G25
    704246.43149    555718.24548  21705714.2624   21705708.8754
     -1325.6094
  13740290.59049  10707686.90147  24170535.7074   24170531.3794
     -3651.3124
  -3569946.41649  -2775439.44247  24279713.4804   24279708.4304
      1835.6414
  -8421676.15249  -6556892.53947  22781979.8634   22781971.4264
       973.2034
 -12311125.74949  -9581506.82048  21670374.7304   21670368.1684
       333.1414
   6837673.56649   5336256.18348  22567465.5514   22567459.9374
     -2947.8124
 04  9 16 17  8 15.0040000  0  6G 1G11G16G23G20G25
    724157.77149    571233.57948  21709503.3094   21709497.9884
     -1329.7194
  13795086.39649  10750384.91447  24180963.2384   24180958.6604
     -3655.3594
  -3597451.96549  -2796872.29347  24274479.0124   24274474.2114
      1831.3444
  -8436252.51849  -6568250.72647  22779206.0274   22779197.8984
       969.7664
 -12316069.14749  -9585358.81448  21669433.5664   21669427.4224
       325.5164
   6881929.35349   5370741.20148  22575887.1524   22575881.6684
     -2953.5624
 04  9 16 17  8 30.0040000  0  6G 1G11G16G23G20G25
    744137.34449    586802.07248  21713305.3484   21713299.8834
     -1334.3914
  13849948.91149  10793134.89447  24191404.0354   24191399.2274
     -3659.8754
  -3624884.50849  -2818248.27247  24269259.4964   24269254.4264
      1826.3284
  -8450769.52849  -6579562.67447  22776443.3634   22776435.6684
       965.7504
 -12320890.30249  -9589115.56848  21668516.5194   21668510.0554
       317.1724
   6926278.89549   5405299.27448  22584326.5984   22584320.8284
     -2959.8914
 04  9 16 17  8 45.0040000  0  6G 1G11G16G23G20G25
    764179.10149    602419.01448  21717118.9344   21717113.8094
     -1338.0944
  13904871.69149  10835931.83547  24201855.6294   24201850.6684
     -3663.4064
  -3652249.69649  -2839571.78847  24264052.0124   24264046.9104
      1822.2194
  -8465233.24449  -6590833.08747  22773691.0514   22773683.0434
       962.5474
 -12325594.99249  -9592781.54948  21667621.1054   21667614.6024
       309.8444
   6970715.94749   5439925.53948  22592782.8014   22592776.9654
     -2965.2814
 04  9 16 17  9  0.0040000  0  6G 1G11G16G23G20G25
    784284.77749    618085.77748  21720945.1684   21720939.2194
     -1342.6724
  13959856.23449  10878776.87847  24212319.3244   24212314.0944
     -3667.8914
  -3679545.44849  -2860841.18347  24258857.7854   24258852.2344
      1817.1724
  -8479641.75749  -6602060.49747  22770948.5904   22770940.6874
       958.5314
 -12330181.26649  -9596355.27148  21666748.3944   21666742.0624
       301.6094
   7015241.84549   5474621.04548  22601255.8554   22601250.0744
     -2971.5624
 04  9 16 17  9 15.0040000  0  6G 1G11G16G23G20G25
    804460.77549    633807.32148  21724784.1374   21724778.7814
     -1347.0944
  14014908.46549  10921674.69547  24222793.9184   24222789.7344
     -3672.0784
  -3706764.84649  -2882051.08147  24253678.0904   24253672.8014
      1812.3134
  -8493988.64249  -6613239.89547  22768218.7694   22768210.8714
       954.7034
 -12334642.35649  -9599831.45348  21665899.4414   21665892.9884
       293.5474
   7059862.85949   5509390.64348  22609746.5434   22609741.0784
     -2977.6724
 04  9 16 17  9 30.0040000  0  6G 1G11G16G23G20G25
    824698.13849    649576.67948  21728635.5274   21728629.7154
     -1351.2664
  14070019.15649  10964618.04547  24233281.8554   24233277.1134
     -3676.0624
  -3733916.42649  -2903208.15347  24248511.0664   24248506.4304
      1807.7344
  -8508282.78349  -6624378.18647  22765499.0124   22765490.5554
       951.0944
 -12338986.99649  -9603216.90048  21665072.6294   21665066.1484
       285.7664
   7104569.90349   5544227.28848  22618254.3164   22618248.6874
     -2983.4064
 04  9 16 17  9 45.0040000  0  6G 1G11G16G23G20G25
    844999.18549    665395.68148  21732498.5514   21732493.5514
     -1355.3124
  14125190.55449  11007608.72747  24243780.9654   24243775.7234
     -3679.9064
  -3760997.45749  -2924310.23547  24243357.8714   24243352.4804
      1803.3134
  -8522521.78549  -6635473.49347  22762789.2544   22762780.9614
       947.6884
 -12343212.62349  -9606509.59148  21664268.7304   21664261.8754
       278.0004
   7149365.00349   5579132.55448  22626778.5664   22626772.7974
     -2989.0314
 04  9 16 17 10  0.0040000  0  6G 1G11G16G23G20G25
    865363.72349    681264.15248  21736373.5984   21736368.4224
     -1359.7974
  14180421.84249  11050646.05347  24254290.8324   24254285.8714
     -3684.1094
  -3788007.65749  -2945357.12947  24238217.8634   24238212.3794
      1798.2194
  -8536705.89149  -6646526.04647  22760090.0594   22760081.7074
       943.7664
 -12347319.10249  -9609709.44148  21663487.1054   21663480.8054
       269.7664
   7194247.75149   5614106.10448  22635319.0904   22635313.5044
     -2995.1414
 04  9 16 17 10 15.0040000  0  6G 1G11G16G23G20G25
    885791.68749    697182.04448  21740261.1524   21740255.4064
     -1364.1414
  14235712.87249  11093729.94247  24264813.1684   24264807.6724
     -3688.1724
  -3814946.70649  -2966348.57747  24233091.6444   24233086.4374
      1793.4224
  -8550834.97849  -6657535.71947  22757401.5194   22757392.9804
       939.9844
 -12351306.22549  -9612816.30448  21662728.4494   21662722.2814
       261.7034
   7239217.82949   5649147.72748  22643877.2304   22643871.2384
     -3001.0624
 04  9 16 17 10 30.0040000  0  6G 1G11G16G23G20G25
    906284.81849    713150.71248  21744160.7384   21744155.2544
     -1368.4694
  14291064.90149  11136861.33547  24275344.8944   24275340.4654
     -3692.3124
  -3841812.49649  -2987282.92947  24227978.7624   24227973.8524
      1788.4844
  -8564907.04049  -6668500.94547  22754723.8634   22754715.1954
       936.1884
 -12355171.99149  -9615828.58648  21661992.6054   21661986.3364
       253.6094
   7284276.88549   5684258.66248  22652451.3324   22652445.4414
     -3006.9844
 04  9 16 17 10 45.0040000  0  6G 1G11G16G23G20G25
    926841.99449    729169.28348  21748072.7304   21748067.4454
     -1372.6094
  14346476.53649  11180039.22447  24285889.6214   24285884.6844
     -3696.0004
  -3868605.69049  -3008160.73547  24222880.6604   24222875.6914
      1783.8284
  -8578923.29249  -6679422.69347  22752056.4184   22752048.6724
       932.6254
 -12358917.31349  -9618747.01448  21661280.2464   21661273.6444
       245.7034
   7329423.51849   5719437.85348  22661042.6684   22661036.9654
     -3012.5624
 04  9 16 17 11  0.0040000  0  6G 1G11G16G23G20G25
    947462.82649    745237.45648  21751996.7154   21751991.0434
     -1376.7814
  14401947.20349  11223263.07347  24296445.3634   24296440.9184
     -3700.0474
  -3895326.20949  -3028981.90347  24217795.9654   24217790.5434
      1778.9844
  -8592884.08949  -6690301.24247  22749399.9654   22749391.3834
       928.9534
 -12362542.32249  -9621571.71348  21660590.6994   21660584.0554
       237.7034
   7374657.15849   5754684.83348  22669650.3794   22669644.5664
     -3018.3914
 04  9 16 17 11 15.0040000  0  6G 1G11G16G23G20G25
    968146.96649    761354.96948  21755932.8404   21755927.5274
     -1380.9534
  14457476.30849  11266532.48047  24307013.9264   24307007.8444
     -3703.7504
  -3921973.93749  -3049746.35147  24212725.0434   24212720.0124
      1774.2034
  -8606789.61449  -6701136.71147  22746753.8874   22746745.2624
       925.2974
 -12366047.13949  -9624302.73748  21659923.6214   21659917.0194
       229.7504
   7419977.14449   5789999.09748  22678274.2384   22678268.8484
     -3024.0944
 04  9 16 17 11 30.0040000  0  6G 1G11G16G23G20G25
    988896.75649    777523.63148  21759881.4024   21759875.8014
     -1385.8124
  14513065.70949  11309848.86947  24317590.8794   24317586.1804
     -3708.3124
  -3948546.15949  -3070451.95647  24207668.3404   24207663.2544
      1768.6724
  -8620637.36049  -6711927.15848  22744118.9024   22744110.2894
       921.0164
 -12369428.98449  -9626937.94048  21659280.1684   21659273.1484
       221.0474
   7465385.68649   5825382.36748  22686915.0434   22686909.5434
     -3030.4694
 04  9 16 17 11 45.0040000  0  6G 1G11G16G23G20G25
   1009713.26949    793744.29048  21763842.6214   21763836.9774
     -1389.9534
  14568716.12349  11353212.80847  24328180.6214   24328176.2344
     -3711.9694
  -3975041.32549  -3091097.51747  24202626.8714   24202621.3754
      1763.8914
  -8634426.29249  -6722671.76847  22741494.2934   22741486.4024
       917.3754
 -12372686.67249  -9629476.39348  21658659.8244   21658653.2894
       213.1564
   7510883.66749   5860835.32948  22695573.2304   22695567.4614
     -3036.1254
 04  9 16 17 12  0.0040000  0  6G 1G11G16G23G20G25
   1030595.54549    810016.16648  21767816.3874   21767810.8404
     -1394.3914
  14624426.31049  11396623.30347  24338783.3484   24338777.7074
     -3715.9844
  -4001460.01149  -3111683.50247  24197599.3554   24197594.4694
      1758.6564
  -8648157.29249  -6733371.24547  22738881.4104   22738873.7814
       913.4384
 -12375820.78949  -9631918.57048  21658063.6524   21658057.2194
       204.7974
   7556469.83049   5896357.00048  22704248.1134   22704242.1564
     -3042.0164
 04  9 16 17 12 15.0040000  0  6G 1G11G16G23G20G25
   1051539.97649    826336.50648  21771802.0664   21771796.6134
     -1398.1254
  14680192.41649  11440077.38647  24349394.9344   24349389.4264
     -3719.3124
  -4027805.48549  -3132212.42847  24192585.9104   24192580.9924
      1754.1884
  -8661833.82549  -6744028.27047  22736278.9264   22736270.7894
       910.2344
 -12378834.74849  -9634267.11648  21657489.9494   21657483.8484
       197.2194
   7602140.29949   5931944.36948  22712938.7774   22712933.1414
     -3047.2814
 04  9 16 17 12 30.0040000  0  6G 1G11G16G23G20G25
   1072548.18449    842706.53148  21775799.9414   21775794.3634
     -1403.0784
  14736015.77949  11483576.05047  24360016.6054   24360012.1874
     -3723.8284
  -4054075.70349  -3152682.70847  24187586.9344   24187581.5314
      1748.4224
  -8675454.32549  -6754641.64548  22733687.1444   22733678.8874
       905.7974
 -12381726.60949  -9636520.52748  21656939.6914   21656933.7584
       188.2814
   7647896.50149   5967598.54148  22721646.0664   22721640.2074
     -3053.6874
 04  9 16 17 12 45.0040000  0  6G 1G11G16G23G20G25
   1093619.31649    859125.59448  21779809.5434   21779804.0704
     -1406.7974
  14791894.97849  11527118.24247  24370650.9264   24370645.2074
     -3727.1724
  -4080271.02549  -3173094.62147  24182602.2384   24182597.2034
      1743.7974
  -8689019.40849  -6765211.84048  22731105.8014   22731097.4534
       902.4844
 -12384496.94349  -9638679.21448  21656412.3554   21656406.4374
       180.6414
   7693737.40049   6003318.71348  22730368.9184   22730363.4884
     -3058.8914
 04  9 16 17 13  0.0040000  0  6G 1G11G16G23G20G25
   1114754.31549    875594.42548  21783831.4024   21783825.5664
     -1411.3444
  14847830.76649  11570704.53847  24381295.0594   24381289.6254
     -3731.0784
  -4106390.09949  -3193447.11947  24177631.6444   24177625.9694
      1738.4844
  -8702528.15149  -6775738.13247  22728535.2154   22728527.2344
       898.4694
 -12387144.67349  -9640742.38248  21655908.8164   21655902.7814
       172.1884
   7739663.52349   6039105.29548  22739108.7934   22739103.0554
     -3064.7814
 04  9 16 17 13 15.0040000  0  6G 1G11G16G23G20G25
   1135956.71949    892115.76748  21787866.2774   21787860.6444
     -1415.6414
  14903826.38749  11614337.48947  24391950.7694   24391944.7894
     -3734.8284
  -4132429.01649  -3213737.16447  24172676.4414   24172671.7194
      1733.3284
  -8715976.92349  -6786217.69147  22725976.0824   22725968.4064
       894.6884
 -12389665.96749  -9642707.03248  21655428.8794   21655422.6174
       163.9844
   7785678.49549   6074961.11048  22747865.0904   22747859.3054
     -3070.4534
 04  9 16 17 13 30.0040000  0  6G 1G11G16G23G20G25
   1157219.69949    908684.31148  21791912.3634   21791906.6054
     -1419.2504
  14959874.53249  11658011.30847  24402615.6294   24402611.3714
     -3738.0164
  -4158394.04549  -3233969.63747  24167735.6134   24167730.7854
      1728.7974
  -8729372.50049  -6796655.78847  22723426.7154   22723418.9224
       891.5314
 -12392067.42449  -9644578.29248  21654971.9964   21654965.6644
       156.3594
   7831775.15849   6110880.57748  22756637.2384   22756631.4964
     -3075.5624
 04  9 16 17 13 45.0040000  0  6G 1G11G16G23G20G25
   1178548.71349    925304.31448  21795970.9964   21795965.5864
     -1423.7814
  15015980.50449  11701730.23247  24413292.9884   24413288.0594
     -3741.9694
  -4184279.39849  -3254140.03247  24162809.7074   24162804.7274
      1723.4064
  -8742709.32349  -6807048.12547  22720888.9494   22720880.9344
       887.5164
 -12394343.33749  -9646351.74848  21654538.8944   21654532.4844
       147.8914
   7877958.63849   6146867.67848  22765425.5194   22765419.7734
     -3081.4374
 04  9 16 17 14  0.0040000  0  6G 1G11G16G23G20G25
   1199942.86749    941975.08648  21800042.1604   21800037.0864
     -1428.3754
  15072143.18549  11745493.33447  24423980.4964   24423975.5164
     -3746.0314
  -4210085.61649  -3274248.73547  24157898.7854   24157893.4844
      1717.8914
  -8755988.17949  -6817395.27847  22718362.1214   22718354.2734
       883.3754
 -12396494.22749  -9648027.75648  21654129.3714   21654123.0944
       139.3284
   7924227.86949   6182921.62648  22774230.0354   22774224.3554
     -3087.3754
 04  9 16 17 14 15.0040000  0  6G 1G11G16G23G20G25
   1221400.63649    958695.41448  21804125.5354   21804120.0594
     -1432.6254
  15128360.62349  11789299.08847  24434677.5594   24434673.2544
     -3749.6874
  -4235813.75149  -3294296.61147  24153002.9884   24152997.7034
      1712.5634
  -8769210.59149  -6827698.45947  22715845.9804   22715837.4144
       879.6254
 -12398521.41749  -9649607.39048  21653743.5904   21653736.8794
       131.0004
   7970581.08349   6219040.99748  22783050.8164   22783045.1564
     -3093.0164
 04  9 16 17 14 30.0040000  0  6G 1G11G16G23G20G25
   1242920.21349    975463.91948  21808220.4654   21808214.9844
     -1436.6094
  15184630.68349  11833145.86547  24445386.2694   24445381.2234
     -3752.9374
  -4261465.32649  -3314284.84147  24148121.7694   24148116.4534
      1707.5634
  -8782378.33449  -6837959.02847  22713340.1764   22713332.0784
       876.1414
 -12400426.54549  -9651091.90048  21653381.2154   21653374.3094
       123.0634
   8017016.22349   6255224.21848  22791887.4024   22791881.6444
     -3098.2664
 04  9 16 17 14 45.0040000  0  6G 1G11G16G23G20G25
   1264504.64549    992282.94148  21812328.0744   21812321.9844
     -1441.0944
  15240956.15449  11877035.78947  24456104.0594   24456099.2344
     -3756.8594
  -4287036.82549  -3334210.67347  24143255.4804   24143250.4614
      1702.1414
  -8795488.13149  -6848174.46347  22710845.5044   22710837.8794
       872.0784
 -12402206.30049  -9652478.74148  21653042.4344   21653036.4304
       114.5164
   8063536.10849   6291473.46548  22800739.8874   22800733.8944
     -3104.1414
 04  9 16 17 15  0.0040000  0  6G 1G11G16G23G20G25
   1286149.13349   1009148.77748  21816446.7934   21816441.5194
     -1445.1254
  15297331.76049  11920964.81347  24466831.3094   24466827.5124
     -3760.2664
  -4312532.51349  -3354077.40547  24138403.9184   24138398.2694
      1696.9224
  -8808544.77449  -6858348.46647  22708360.9804   22708352.7194
       868.5004
 -12403865.16049  -9653771.34748  21652726.9024   21652720.6954
       106.3754
   8110135.67749   6327784.81048  22809607.0514   22809601.3984
     -3109.5164
 04  9 16 17 15 15.0040000  0  6G 1G11G16G23G20G25
   1307858.45049   1026065.12848  21820578.0354   21820572.6804
     -1449.3594
  15353761.96749  11964936.36147  24477570.1134   24477565.5664
     -3763.7344
  -4337947.25249  -3373881.07247  24133567.8634   24133562.3404
      1691.6884
  -8821543.47249  -6868477.30747  22705887.1994   22705879.0274
       864.6724
 -12405398.08649  -9654965.84648  21652435.2694   21652429.1724
        98.0784
   8156819.48949   6364161.79848  22818490.7544   22818485.0394
     -3114.9374
 04  9 16 17 15 30.0040000  0  6G 1G11G16G23G20G25
   1329629.17549   1043029.31648  21824720.8634   21824715.1724
     -1453.5164
  15410243.17749  12008947.65247  24488317.9024   24488313.9734
     -3767.2194
  -4363284.10249  -3393624.04547  24128746.4414   24128740.9694
      1686.4534
  -8834487.56849  -6878563.61747  22703424.3714   22703416.1414
       861.0004
 -12406808.35349  -9656064.75748  21652166.9574   21652160.5624
        89.7814
   8203583.99049   6400601.67048  22827390.1914   22827384.5164
     -3120.4844
 04  9 16 17 15 45.0040000  0  6G 1G11G16G23G20G25
   1351464.69949   1060044.00648  21828875.7934   21828870.1024
     -1457.6414
  15466778.30049  12053000.96747  24499077.7774   24499071.9144
     -3770.5004
  -4388539.25149  -3413303.38447  24123939.9574   24123935.1174
      1681.2194
  -8847373.47049  -6888604.57447  22700971.8014   22700963.6094
       857.4384
 -12408092.19649  -9657065.16848  21651922.4804   21651916.0864
        81.5944
   8250432.35749   6437106.87848  22836304.8794   22836299.2464
     -3125.7504
 04  9 16 17 16  0.0040000  0  6G 1G11G16G23G20G25
   1373359.65749   1077105.01748  21833042.1764   21833036.2624
     -1461.7814
  15523361.88749  12097092.01747  24509844.2384   24509839.9064
     -3773.9374
  -4413717.56249  -3432922.80247  24119148.8874   24119143.6914
      1675.8754
  -8860206.52549  -6898604.34747  22698529.8164   22698521.9264
       853.6564
 -12409254.87549  -9657971.14648  21651701.3244   21651695.4184
        73.3594
   8297358.94949   6473673.04448  22845234.9654   22845229.1564
     -3131.1414
 04  9 16 17 16 15.0040000  0  6G 1G11G16G23G20G25
   1395311.04449   1094209.97948  21837219.5354   21837213.9024
     -1465.2974
  15579990.36449  12141218.09447  24520620.9264   24520615.9654
     -3776.6724
  -4438821.72349  -3452484.47147  24114372.0194   24114366.3204
      1671.2034
  -8872989.64249  -6908565.22248  22696097.7304   22696089.1954
       850.5784
 -12410299.05549  -9658784.79748  21651502.6374   21651495.9884
        65.6884
   8344360.50349   6510297.62448  22854178.9574   22854173.3674
     -3135.8754
 04  9 16 17 16 30.0040000  0  6G 1G11G16G23G20G25
   1417323.42649   1111362.48948  21841408.2774   21841402.5904
     -1469.7034
  15636668.07749  12185382.49447  24531405.5044   24531400.8364
     -3780.3124
  -4463846.61849  -3471984.37047  24109610.2854   24109604.4104
      1665.4384
  -8885718.30749  -6918483.64548  22693675.2384   22693666.6724
       846.5784
 -12411219.89549  -9659502.33248  21651327.2464   21651321.0704
        57.1094
   8391441.43049   6546984.04548  22863138.2304   22863132.3984
     -3141.5474
 04  9 16 17 16 45.0040000  0  6G 1G11G16G23G20G25
   1439398.68649   1128563.98248  21845609.1604   21845603.6804
     -1473.7974
  15693396.60349  12229586.52447  24542200.9884   24542196.5434
     -3783.6414
  -4488790.05349  -3491420.78647  24104863.1134   24104858.0124
      1660.0634
  -8898390.40749  -6928358.01447  22691264.0044   22691255.4264
       842.9694
 -12412015.30849  -9660122.13348  21651176.0514   21651169.3404
        48.7974
   8438603.35749   6583733.58948  22872112.5194   22872106.6414
     -3146.9374
 04  9 16 17 17  0.0040000  0  6G 1G11G16G23G20G25
   1461534.62449   1145812.75748  21849821.4494   21849816.4574
     -1477.0944
  15750173.45949  12273828.18247  24553005.9264   24553000.4884
     -3786.1094
  -4513653.86349  -3510795.16347  24100131.6294   24100126.4454
      1655.5784
  -8911008.19049  -6938190.04847  22688862.8324   22688854.4654
       839.9844
 -12412687.29849  -9660645.76148  21651047.9734   21651041.7074
        41.2974
   8485843.84649   6620544.36448  22881102.3244   22881096.5554
     -3151.3914
 04  9 16 17 17 15.0040000  0  6G 1G11G16G23G20G25
   1483729.95149   1163107.81248  21854045.1444   21854039.4804
     -1482.1094
  15806997.00149  12318106.22947  24563818.7934   24563813.8444
     -3790.2664
  -4538438.86449  -3530108.14147  24095415.0984   24095410.1604
      1649.2504
  -8923572.73049  -6947980.59648  22686471.6524   22686463.4374
       835.4384
 -12413236.76649  -9661073.93348  21650943.3944   21650937.2424
        32.1254
   8533161.33549   6657415.11448  22890106.3794   22890100.6334
     -3157.4844
 04  9 16 17 17 30.0040000  0  6G 1G11G16G23G20G25
   1505990.92449   1180454.00648  21858281.3634   21858275.7424
     -1486.4844
  15863873.14749  12362425.26247  24574642.2304   24574636.9774
     -3793.7344
  -4563138.45149  -3549354.55247  24090714.9414   24090709.7694
      1643.5784
  -8936077.78149  -6957724.79148  22684092.2384   22684083.9064
       831.4384
 -12413657.35849  -9661401.67048  21650863.5514   21650857.2114
        23.5164
   8580561.94249   6694350.63848  22899126.4884   22899120.8674
     -3163.0474
 04  9 16 17 17 45.0040000  0  6G 1G11G16G23G20G25
   1528309.98949   1197845.48448  21862528.4184   21862522.7034
     -1490.2664
  15920793.91149  12406779.07247  24585473.5124   24585468.4844
     -3796.5474
  -4587759.75349  -3568539.95347  24086029.7304   24086023.9924
      1638.4534
  -8948530.80049  -6967428.43848  22681722.4494   22681714.3634
       828.1414
 -12413956.37249  -9661634.66948  21650806.9344   21650800.5594
        15.4694
   8628037.82649   6731344.82448  22908161.0984   22908155.2464
     -3168.0004
 04  9 16 17 18  0.0040000  0  6G 1G11G16G23G20G25
   1550686.86049   1215282.00248  21866786.7774   21866781.5904
     -1493.4694
  15977758.68849  12451167.18647  24596313.6524   24596309.2154
     -3798.8284
  -4612302.64049  -3587664.26547  24081359.2934   24081353.8484
      1633.8134
  -8960931.99849  -6977091.70548  22679362.8484   22679354.7154
       825.3914
 -12414133.82949  -9661772.94648  21650772.7934   21650766.4534
         8.0944
   8675588.49349   6768397.28248  22917209.2624   22917203.6414
     -3172.3594
 04  9 16 17 18 15.0040000  0  6G 1G11G16G23G20G25
   1573124.03249   1232765.50648  21871056.5904   21871050.9734
     -1497.9534
  16034769.74749  12495591.34447  24607162.3014   24607158.1684
     -3802.4064
  -4636764.17849  -3606725.18647  24076704.7234   24076699.4264
      1627.9844
  -8973278.79449  -6986712.56748  22677013.0124   22677004.7974
       821.1254
 -12414186.96849  -9661814.35248  21650762.8404   21650756.3204
        -0.7034
   8723216.01349   6805509.62548  22926272.6764   22926266.8834
     -3177.7974
 04  9 16 17 18 30.0040000  0  6G 1G11G16G23G20G25
   1595624.25049   1250298.13948  21875338.3944   21875332.3554
     -1501.7194
  16091829.58049  12540053.49147  24618020.3634   24618015.6994
     -3805.1094
  -4661141.17849  -3625720.23547  24072065.7464   24072060.2734
      1622.6884
  -8985568.42349  -6996288.91047  22674674.5124   22674665.9804
       817.7814
 -12414112.76649  -9661756.52848  21650777.0984   21650770.3834
        -8.7974
   8770923.13949   6842683.99748  22935351.2544   22935345.3754
     -3182.6564
 04  9 16 17 18 45.0040000  0  6G 1G11G16G23G20G25
   1618180.90049   1267874.74048  21879630.3094   21879624.7694
     -1505.8284
  16148931.17649  12584548.22047  24628886.4964   24628881.8754
     -3808.3284
  -4685439.92349  -3644654.31447  24067442.0124   24067436.4534
      1617.1724
  -8997807.37349  -7005825.76348  22672345.2304   22672336.8874
       814.1094
 -12413917.65849  -9661604.51048  21650813.7304   21650807.8054
       -17.2034
   8818703.00049   6879915.04448  22944443.2074   22944437.1954
     -3187.9064
 04  9 16 17 19  0.0040000  0  6G 1G11G16G23G20G25
   1640798.89849   1285499.14748  21883934.2304   21883928.7234
     -1510.0624
  16206079.05849  12629079.00347  24639762.0824   24639756.8874
     -3811.5164
  -4709655.13849  -3663523.27247  24062833.9574   24062828.9024
      1611.4534
  -9009990.66549  -7015319.22247  22670027.0984   22670018.8124
       810.2504
 -12413596.49749  -9661354.25048  21650874.9574   21650868.6134
       -25.7344
   8866560.17749   6917206.33748  22953550.4184   22953544.4654
     -3193.1094
 04  9 16 17 19 15.0040000  0  6G 1G11G16G23G20G25
   1663476.72449   1303170.17848  21888249.9414   21888244.3484
     -1513.6874
  16263271.51849  12673644.52847  24650644.2624   24650641.0234
     -3814.1094
  -4733787.86349  -3682327.97247  24058241.8554   24058236.0434
      1606.1884
  -9022119.68849  -7024770.39848  22667719.0194   22667710.7544
       806.9064
 -12413150.61949  -9661006.82248  21650959.6604   21650953.2584
       -33.7504
   8914492.95849   6954556.55048  22962671.8794   22962665.7974
     -3197.9844
 04  9 16 17 19 30.0040000  0  6G 1G11G16G23G20G25
   1686212.50149   1320886.36848  21892576.4654   21892570.9414
     -1517.8444
  16320506.24549  12718242.96647  24661536.7234   24661532.1334
     -3817.3124
  -4757839.68349  -3701069.61647  24053664.4264   24053659.3444
      1600.5474
  -9034196.35949  -7034180.78248  22665420.9574   22665412.5514
       803.1254
 -12412581.69549  -9660563.49948  21651068.0904   21651061.4734
       -42.2194
   8962499.22449   6991964.03248  22971807.0194   22971801.1644
     -3203.0784
 04  9 16 17 19 45.0040000  0  6G 1G11G16G23G20G25
   1709005.63049   1338647.24448  21896913.8244   21896908.1334
     -1521.6724
  16377782.41749  12762873.71947  24672436.1054   24672430.7304
     -3820.0314
  -4781810.65749  -3719748.28847  24049102.9804   24049097.6954
      1595.0944
  -9046221.13649  -7043550.74047  22663132.9654   22663124.2544
       799.7194
 -12411889.89949  -9660024.43648  21651199.6374   21651193.9774
       -50.4534
   9010578.26249   7029428.20348  22980956.1134   22980950.1994
     -3207.8754
 04  9 16 17 20  0.0040000  0  6G 1G11G16G23G20G25
   1731860.54949   1356456.26848  21901263.0044   21901257.6954
     -1525.8444
  16435104.23949  12807540.01646  24683343.8244   24683338.9024
     -3823.1094
  -4805695.90749  -3738360.13447  24044557.7074   24044552.3404
      1589.4064
  -9058189.49349  -7052876.72647  22660855.2694   22660847.1134
       795.8284
 -12411070.62249  -9659386.04748  21651356.0904   21651349.5434
       -58.9844
   9058734.15049   7066952.26148  22990119.4734   22990114.0274
     -3213.0164
 04  9 16 17 20 15.0040000  0  6G 1G11G16G23G20G25
   1754779.97449   1374315.54148  21905624.3244   21905618.6844
     -1529.6564
  16492473.84749  12852243.57247  24694260.7234   24694256.4454
     -3825.7344
  -4829492.31949  -3756902.78247  24040029.6294   24040023.5084
      1583.9384
  -9070098.57449  -7062156.52848  22658588.7154   22658580.4064
       792.5164
 -12410120.97049  -9658646.05948  21651536.6054   21651530.3054
       -67.2034
   9106969.45349   7104538.18948  22999298.5044   22999293.0864
     -3217.8444
 04  9 16 17 20 30.0040000  0  6G 1G11G16G23G20G25
   1777754.62949   1392217.87248  21909996.2694   21909990.8524
     -1533.8124
  16549881.67149  12896976.90847  24705185.3244   24705180.4184
     -3828.7664
  -4853208.80649  -3775383.15047  24035516.3164   24035510.6414
      1578.1094
  -9081957.62949  -7071397.34348  22656332.3244   22656324.3284
       788.6564
 -12409049.90449  -9657811.45648  21651740.1764   21651733.3204
       -75.7664
   9155274.70649   7142178.63448  23008490.8554   23008485.3054
     -3223.0004
 04  9 16 17 20 45.0040000  0  6G 1G11G16G23G20G25
   1800789.33949   1410166.98448  21914379.7154   21914374.3944
     -1538.1414
  16607332.34049  12941743.65147  24716117.7854   24716112.7934
     -3831.9534
  -4876840.14449  -3793797.16047  24031019.4574   24031013.7074
      1572.0784
  -9093761.86949  -7080595.46248  22654085.9024   22654077.7424
       784.5474
 -12407852.40649  -9656878.36348  21651968.1444   21651961.9144
       -84.4844
   9203654.45949   7179877.13148  23017697.2624   23017691.2544
     -3228.2504
 04  9 16 17 21  0.0040000  0  6G 1G11G16G23G20G25
   1823882.87149   1428161.94148  21918774.2234   21918768.5354
     -1541.5314
  16664824.23149  12986542.44447  24727058.0194   24727053.4344
     -3834.1254
  -4900387.18049  -3812145.48147  24026538.4734   24026533.0824
      1567.0314
  -9105512.42449  -7089751.72648  22651849.8404   22651841.7504
       781.5784
 -12406529.56649  -9655847.56848  21652219.8714   21652213.5394
       -92.3444
   9252107.31849   7217632.59147  23026917.3554   23026912.0984
     -3232.6094
 04  9 16 17 21 15.0040000  0  6G 1G11G16G23G20G25
   1847035.26949   1446202.75948  21923179.7934   21923174.5704
     -1545.2974
  16722357.03549  13031373.16447  24738007.0354   24738001.7774
     -3836.7814
  -4923849.50249  -3830427.78447  24022073.7074   24022067.8674
      1561.3754
  -9117209.08249  -7098866.00448  22649624.2304   22649615.8164
       778.0634
 -12405081.17049  -9654718.95348  21652495.6374   21652489.2344
      -100.6564
   9300632.98449   7255444.79148  23036151.5194   23036146.0514
     -3237.3914
 04  9 16 17 21 30.0040000  0  6G 1G11G16G23G20G25
   1870246.01349   1464289.05448  21927596.7074   21927591.4844
     -1549.2034
  16779929.70949  13076234.95547  24748962.0594   24748958.0744
     -3839.4224
  -4947227.28049  -3848644.21447  24017625.3714   24017619.7774
      1555.7814
  -9128852.40249  -7107938.71448  22647408.2544   22647400.3874
       774.5474
 -12403507.47949  -9653492.70548  21652795.0354   21652788.5904
      -108.9844
   9349230.60449   7293313.05148  23045399.2074   23045393.3874
     -3242.1724
 04  9 16 17 21 45.0040000  0  6G 1G11G16G23G20G25
   1893519.79649   1482424.46748  21932025.7774   21932020.3834
     -1553.8914
  16837546.87849  13121131.40947  24759925.8634   24759921.6764
     -3842.9064
  -4970515.40049  -3866790.79347  24013193.7074   24013187.9494
      1549.3284
  -9140437.55749  -7116966.10847  22645203.1844   22645195.3984
       770.2034
 -12401803.48849  -9652164.92348  21653119.1844   21653112.8674
      -118.0944
   9397904.75149   7331240.93548  23054661.7544   23054656.4884
     -3247.7664
 04  9 16 17 22  0.0040000  0  6G 1G11G16G23G20G25
   1916854.00349   1500606.95348  21936466.0434   21936460.8714
     -1557.5164
  16895205.55349  13166060.19347  24770898.6444   24770893.4924
     -3845.1254
  -4993716.03749  -3884869.18647  24008778.3324   24008772.7734
      1543.8284
  -9151967.09549  -7125950.16848  22643009.9024   22643001.5164
       766.8594
 -12399971.60149  -9650737.49548  21653467.7934   21653461.3944
      -126.2814
   9446652.55449   7369226.22848  23063938.1294   23063933.0434
     -3252.2034
 04  9 16 17 22 15.0040000  0  6G 1G11G16G23G20G25
   1940245.30149   1518833.92848  21940917.5904   21940911.9844
     -1561.2194
  16952902.19449  13211018.57947  24781877.9414   24781872.9104
     -3847.5164
  -5016832.14349  -3902881.71047  24004379.6374   24004374.4454
      1538.4224
  -9163444.28849  -7134893.42548  22640825.4964   22640817.6524
       763.5314
 -12398014.93149  -9649212.81548  21653839.9104   21653833.7194
      -134.5004
   9495470.58449   7407266.23348  23073227.9264   23073222.4734
     -3256.7344
